<?xml version="1.0" encoding="UTF-8" standalone="no" ?>
<gpx xmlns="http://www.topografix.com/GPX/1/1" xmlns:xsi="http://www.w3.org/2001/XMLSchema-instance" xsi:schemaLocation="http://www.topografix.com/GPX/1/1 http://www.topografix.com/GPX/1/1/gpx.xsd" version="1.1" creator="VisuGPX - https://www.visugpx.com">
  <metadata>
    <name>Dieppe-Forge le retour</name>
    <desc><![CDATA[Route plutot que VTT...
pat-famille]]></desc>
  </metadata>
  <trk>
    <name><![CDATA[20120722_Allee verte_II_55]]></name>
    <trkseg>
      <trkpt lat="49.85984" lon="1.06932">
        <ele>-41.2</ele>
        <time>2012-07-22T08:10:50Z</time>
      </trkpt>
      <trkpt lat="49.85978" lon="1.06924">
        <ele>-37.35</ele>
        <time>2012-07-22T08:11:07Z</time>
      </trkpt>
      <trkpt lat="49.85978" lon="1.06923">
        <ele>-33.51</ele>
        <time>2012-07-22T08:11:09Z</time>
      </trkpt>
      <trkpt lat="49.85978" lon="1.06923">
        <ele>-30.14</ele>
        <time>2012-07-22T08:11:11Z</time>
      </trkpt>
      <trkpt lat="49.85977" lon="1.06923">
        <ele>-26.78</ele>
        <time>2012-07-22T08:11:13Z</time>
      </trkpt>
      <trkpt lat="49.85977" lon="1.06923">
        <ele>-22.45</ele>
        <time>2012-07-22T08:11:16Z</time>
      </trkpt>
      <trkpt lat="49.85977" lon="1.06923">
        <ele>-19.57</ele>
        <time>2012-07-22T08:11:18Z</time>
      </trkpt>
      <trkpt lat="49.85977" lon="1.06923">
        <ele>-15.72</ele>
        <time>2012-07-22T08:11:21Z</time>
      </trkpt>
      <trkpt lat="49.85977" lon="1.06924">
        <ele>-12.36</ele>
        <time>2012-07-22T08:11:24Z</time>
      </trkpt>
      <trkpt lat="49.85977" lon="1.06925">
        <ele>-9</ele>
        <time>2012-07-22T08:11:27Z</time>
      </trkpt>
      <trkpt lat="49.85977" lon="1.06925">
        <ele>-5.63</ele>
        <time>2012-07-22T08:11:31Z</time>
      </trkpt>
      <trkpt lat="49.85977" lon="1.06923">
        <ele>-2.27</ele>
        <time>2012-07-22T08:11:35Z</time>
      </trkpt>
      <trkpt lat="49.85976" lon="1.06919">
        <ele>1.1</ele>
        <time>2012-07-22T08:11:39Z</time>
      </trkpt>
      <trkpt lat="49.85975" lon="1.06918">
        <ele>4.94</ele>
        <time>2012-07-22T08:11:44Z</time>
      </trkpt>
      <trkpt lat="49.85975" lon="1.06919">
        <ele>7.83</ele>
        <time>2012-07-22T08:11:49Z</time>
      </trkpt>
      <trkpt lat="49.85975" lon="1.06921">
        <ele>11.19</ele>
        <time>2012-07-22T08:11:54Z</time>
      </trkpt>
      <trkpt lat="49.85975" lon="1.06922">
        <ele>12.15</ele>
        <time>2012-07-22T08:11:56Z</time>
      </trkpt>
      <trkpt lat="49.85975" lon="1.06923">
        <ele>15.04</ele>
        <time>2012-07-22T08:12:04Z</time>
      </trkpt>
      <trkpt lat="49.85974" lon="1.06922">
        <ele>17.44</ele>
        <time>2012-07-22T08:12:10Z</time>
      </trkpt>
      <trkpt lat="49.85975" lon="1.06922">
        <ele>20.81</ele>
        <time>2012-07-22T08:12:26Z</time>
      </trkpt>
      <trkpt lat="49.85974" lon="1.0692">
        <ele>22.73</ele>
        <time>2012-07-22T08:13:01Z</time>
      </trkpt>
      <trkpt lat="49.85974" lon="1.06921">
        <ele>23.69</ele>
        <time>2012-07-22T08:13:30Z</time>
      </trkpt>
      <trkpt lat="49.85973" lon="1.06921">
        <ele>23.69</ele>
        <time>2012-07-22T08:13:33Z</time>
      </trkpt>
      <trkpt lat="49.85971" lon="1.06925">
        <ele>23.69</ele>
        <time>2012-07-22T08:13:42Z</time>
      </trkpt>
      <trkpt lat="49.85953" lon="1.06929">
        <ele>23.69</ele>
        <time>2012-07-22T08:13:52Z</time>
      </trkpt>
      <trkpt lat="49.85922" lon="1.06923">
        <ele>24.17</ele>
        <time>2012-07-22T08:14:07Z</time>
      </trkpt>
      <trkpt lat="49.85889" lon="1.06932">
        <ele>24.17</ele>
        <time>2012-07-22T08:14:24Z</time>
      </trkpt>
      <trkpt lat="49.85883" lon="1.06932">
        <ele>25.13</ele>
        <time>2012-07-22T08:14:28Z</time>
      </trkpt>
      <trkpt lat="49.8588" lon="1.06925">
        <ele>25.61</ele>
        <time>2012-07-22T08:14:32Z</time>
      </trkpt>
      <trkpt lat="49.85872" lon="1.06906">
        <ele>26.09</ele>
        <time>2012-07-22T08:14:42Z</time>
      </trkpt>
      <trkpt lat="49.85872" lon="1.06899">
        <ele>26.09</ele>
        <time>2012-07-22T08:14:56Z</time>
      </trkpt>
      <trkpt lat="49.85872" lon="1.06899">
        <ele>26.09</ele>
        <time>2012-07-22T08:14:58Z</time>
      </trkpt>
      <trkpt lat="49.85872" lon="1.06899">
        <ele>26.09</ele>
        <time>2012-07-22T08:15:07Z</time>
      </trkpt>
      <trkpt lat="49.85864" lon="1.06896">
        <ele>25.61</ele>
        <time>2012-07-22T08:15:11Z</time>
      </trkpt>
      <trkpt lat="49.85826" lon="1.06895">
        <ele>25.13</ele>
        <time>2012-07-22T08:15:21Z</time>
      </trkpt>
      <trkpt lat="49.85777" lon="1.06897">
        <ele>25.13</ele>
        <time>2012-07-22T08:15:34Z</time>
      </trkpt>
      <trkpt lat="49.85725" lon="1.06915">
        <ele>24.65</ele>
        <time>2012-07-22T08:15:46Z</time>
      </trkpt>
      <trkpt lat="49.85681" lon="1.06931">
        <ele>25.13</ele>
        <time>2012-07-22T08:15:57Z</time>
      </trkpt>
      <trkpt lat="49.8563" lon="1.06947">
        <ele>25.13</ele>
        <time>2012-07-22T08:16:09Z</time>
      </trkpt>
      <trkpt lat="49.85579" lon="1.06967">
        <ele>25.61</ele>
        <time>2012-07-22T08:16:22Z</time>
      </trkpt>
      <trkpt lat="49.85538" lon="1.06982">
        <ele>26.09</ele>
        <time>2012-07-22T08:16:33Z</time>
      </trkpt>
      <trkpt lat="49.85536" lon="1.06985">
        <ele>26.09</ele>
        <time>2012-07-22T08:16:34Z</time>
      </trkpt>
      <trkpt lat="49.85536" lon="1.06989">
        <ele>26.09</ele>
        <time>2012-07-22T08:16:35Z</time>
      </trkpt>
      <trkpt lat="49.85534" lon="1.07041">
        <ele>26.57</ele>
        <time>2012-07-22T08:16:46Z</time>
      </trkpt>
      <trkpt lat="49.85533" lon="1.07091">
        <ele>27.05</ele>
        <time>2012-07-22T08:16:56Z</time>
      </trkpt>
      <trkpt lat="49.85531" lon="1.07108">
        <ele>28.02</ele>
        <time>2012-07-22T08:17:00Z</time>
      </trkpt>
      <trkpt lat="49.85541" lon="1.07129">
        <ele>28.02</ele>
        <time>2012-07-22T08:17:08Z</time>
      </trkpt>
      <trkpt lat="49.85574" lon="1.07167">
        <ele>29.46</ele>
        <time>2012-07-22T08:17:20Z</time>
      </trkpt>
      <trkpt lat="49.85598" lon="1.07204">
        <ele>28.98</ele>
        <time>2012-07-22T08:17:30Z</time>
      </trkpt>
      <trkpt lat="49.85604" lon="1.07217">
        <ele>28.98</ele>
        <time>2012-07-22T08:17:35Z</time>
      </trkpt>
      <trkpt lat="49.85604" lon="1.07219">
        <ele>29.46</ele>
        <time>2012-07-22T08:17:36Z</time>
      </trkpt>
      <trkpt lat="49.85608" lon="1.07238">
        <ele>28.5</ele>
        <time>2012-07-22T08:17:43Z</time>
      </trkpt>
      <trkpt lat="49.85609" lon="1.07287">
        <ele>28.02</ele>
        <time>2012-07-22T08:17:51Z</time>
      </trkpt>
      <trkpt lat="49.85612" lon="1.07353">
        <ele>28.98</ele>
        <time>2012-07-22T08:18:02Z</time>
      </trkpt>
      <trkpt lat="49.8561" lon="1.07421">
        <ele>29.94</ele>
        <time>2012-07-22T08:18:14Z</time>
      </trkpt>
      <trkpt lat="49.85612" lon="1.07478">
        <ele>30.9</ele>
        <time>2012-07-22T08:18:25Z</time>
      </trkpt>
      <trkpt lat="49.85636" lon="1.0753">
        <ele>31.38</ele>
        <time>2012-07-22T08:18:37Z</time>
      </trkpt>
      <trkpt lat="49.85647" lon="1.07583">
        <ele>33.3</ele>
        <time>2012-07-22T08:18:48Z</time>
      </trkpt>
      <trkpt lat="49.85663" lon="1.07627">
        <ele>34.74</ele>
        <time>2012-07-22T08:18:58Z</time>
      </trkpt>
      <trkpt lat="49.85687" lon="1.07666">
        <ele>35.71</ele>
        <time>2012-07-22T08:19:09Z</time>
      </trkpt>
      <trkpt lat="49.85714" lon="1.07697">
        <ele>37.63</ele>
        <time>2012-07-22T08:19:21Z</time>
      </trkpt>
      <trkpt lat="49.8574" lon="1.07724">
        <ele>38.11</ele>
        <time>2012-07-22T08:19:32Z</time>
      </trkpt>
      <trkpt lat="49.85756" lon="1.07759">
        <ele>39.07</ele>
        <time>2012-07-22T08:19:42Z</time>
      </trkpt>
      <trkpt lat="49.85767" lon="1.07796">
        <ele>40.03</ele>
        <time>2012-07-22T08:19:51Z</time>
      </trkpt>
      <trkpt lat="49.85775" lon="1.07839">
        <ele>41.47</ele>
        <time>2012-07-22T08:20:01Z</time>
      </trkpt>
      <trkpt lat="49.8578" lon="1.07886">
        <ele>42.44</ele>
        <time>2012-07-22T08:20:12Z</time>
      </trkpt>
      <trkpt lat="49.85778" lon="1.07938">
        <ele>44.36</ele>
        <time>2012-07-22T08:20:24Z</time>
      </trkpt>
      <trkpt lat="49.85766" lon="1.07979">
        <ele>44.36</ele>
        <time>2012-07-22T08:20:33Z</time>
      </trkpt>
      <trkpt lat="49.85745" lon="1.08039">
        <ele>44.84</ele>
        <time>2012-07-22T08:20:45Z</time>
      </trkpt>
      <trkpt lat="49.85727" lon="1.08095">
        <ele>45.32</ele>
        <time>2012-07-22T08:20:56Z</time>
      </trkpt>
      <trkpt lat="49.85713" lon="1.08164">
        <ele>46.76</ele>
        <time>2012-07-22T08:21:09Z</time>
      </trkpt>
      <trkpt lat="49.85704" lon="1.08232">
        <ele>47.72</ele>
        <time>2012-07-22T08:21:22Z</time>
      </trkpt>
      <trkpt lat="49.85702" lon="1.08296">
        <ele>47.72</ele>
        <time>2012-07-22T08:21:34Z</time>
      </trkpt>
      <trkpt lat="49.85705" lon="1.08375">
        <ele>49.65</ele>
        <time>2012-07-22T08:21:49Z</time>
      </trkpt>
      <trkpt lat="49.85708" lon="1.08408">
        <ele>50.61</ele>
        <time>2012-07-22T08:21:57Z</time>
      </trkpt>
      <trkpt lat="49.85713" lon="1.08456">
        <ele>52.05</ele>
        <time>2012-07-22T08:22:09Z</time>
      </trkpt>
      <trkpt lat="49.8572" lon="1.08509">
        <ele>52.53</ele>
        <time>2012-07-22T08:22:23Z</time>
      </trkpt>
      <trkpt lat="49.85734" lon="1.08553">
        <ele>53.49</ele>
        <time>2012-07-22T08:22:35Z</time>
      </trkpt>
      <trkpt lat="49.85756" lon="1.08597">
        <ele>54.45</ele>
        <time>2012-07-22T08:22:48Z</time>
      </trkpt>
      <trkpt lat="49.85774" lon="1.08645">
        <ele>55.41</ele>
        <time>2012-07-22T08:23:01Z</time>
      </trkpt>
      <trkpt lat="49.8578" lon="1.08696">
        <ele>56.37</ele>
        <time>2012-07-22T08:23:13Z</time>
      </trkpt>
      <trkpt lat="49.8578" lon="1.08717">
        <ele>59.26</ele>
        <time>2012-07-22T08:23:18Z</time>
      </trkpt>
      <trkpt lat="49.85779" lon="1.08722">
        <ele>54.93</ele>
        <time>2012-07-22T08:23:19Z</time>
      </trkpt>
      <trkpt lat="49.85777" lon="1.08756">
        <ele>57.82</ele>
        <time>2012-07-22T08:23:27Z</time>
      </trkpt>
      <trkpt lat="49.85768" lon="1.08807">
        <ele>59.26</ele>
        <time>2012-07-22T08:23:39Z</time>
      </trkpt>
      <trkpt lat="49.85758" lon="1.08853">
        <ele>60.22</ele>
        <time>2012-07-22T08:23:50Z</time>
      </trkpt>
      <trkpt lat="49.85744" lon="1.08913">
        <ele>60.7</ele>
        <time>2012-07-22T08:24:04Z</time>
      </trkpt>
      <trkpt lat="49.8573" lon="1.08953">
        <ele>62.62</ele>
        <time>2012-07-22T08:24:14Z</time>
      </trkpt>
      <trkpt lat="49.8572" lon="1.0899">
        <ele>63.58</ele>
        <time>2012-07-22T08:24:24Z</time>
      </trkpt>
      <trkpt lat="49.85708" lon="1.09026">
        <ele>63.58</ele>
        <time>2012-07-22T08:24:34Z</time>
      </trkpt>
      <trkpt lat="49.85693" lon="1.09077">
        <ele>64.07</ele>
        <time>2012-07-22T08:24:48Z</time>
      </trkpt>
      <trkpt lat="49.85675" lon="1.09115">
        <ele>65.99</ele>
        <time>2012-07-22T08:25:00Z</time>
      </trkpt>
      <trkpt lat="49.85655" lon="1.09147">
        <ele>66.95</ele>
        <time>2012-07-22T08:25:11Z</time>
      </trkpt>
      <trkpt lat="49.85636" lon="1.09175">
        <ele>68.39</ele>
        <time>2012-07-22T08:25:22Z</time>
      </trkpt>
      <trkpt lat="49.85619" lon="1.09199">
        <ele>67.91</ele>
        <time>2012-07-22T08:25:32Z</time>
      </trkpt>
      <trkpt lat="49.85587" lon="1.09236">
        <ele>68.87</ele>
        <time>2012-07-22T08:25:48Z</time>
      </trkpt>
      <trkpt lat="49.8557" lon="1.09265">
        <ele>68.87</ele>
        <time>2012-07-22T08:25:59Z</time>
      </trkpt>
      <trkpt lat="49.85554" lon="1.09303">
        <ele>70.31</ele>
        <time>2012-07-22T08:26:11Z</time>
      </trkpt>
      <trkpt lat="49.85535" lon="1.09345">
        <ele>70.79</ele>
        <time>2012-07-22T08:26:24Z</time>
      </trkpt>
      <trkpt lat="49.85513" lon="1.09382">
        <ele>72.24</ele>
        <time>2012-07-22T08:26:37Z</time>
      </trkpt>
      <trkpt lat="49.85492" lon="1.09421">
        <ele>73.68</ele>
        <time>2012-07-22T08:26:50Z</time>
      </trkpt>
      <trkpt lat="49.8548" lon="1.09463">
        <ele>75.12</ele>
        <time>2012-07-22T08:27:02Z</time>
      </trkpt>
      <trkpt lat="49.85481" lon="1.09489">
        <ele>76.08</ele>
        <time>2012-07-22T08:27:10Z</time>
      </trkpt>
      <trkpt lat="49.85485" lon="1.09524">
        <ele>77.04</ele>
        <time>2012-07-22T08:27:21Z</time>
      </trkpt>
      <trkpt lat="49.85485" lon="1.09534">
        <ele>77.52</ele>
        <time>2012-07-22T08:27:24Z</time>
      </trkpt>
      <trkpt lat="49.85485" lon="1.09536">
        <ele>77.52</ele>
        <time>2012-07-22T08:27:25Z</time>
      </trkpt>
      <trkpt lat="49.85485" lon="1.09539">
        <ele>77.52</ele>
        <time>2012-07-22T08:27:26Z</time>
      </trkpt>
      <trkpt lat="49.85486" lon="1.09557">
        <ele>78.48</ele>
        <time>2012-07-22T08:27:32Z</time>
      </trkpt>
      <trkpt lat="49.85485" lon="1.09559">
        <ele>78.97</ele>
        <time>2012-07-22T08:27:33Z</time>
      </trkpt>
      <trkpt lat="49.85485" lon="1.09562">
        <ele>78.48</ele>
        <time>2012-07-22T08:27:34Z</time>
      </trkpt>
      <trkpt lat="49.85485" lon="1.09564">
        <ele>79.45</ele>
        <time>2012-07-22T08:27:35Z</time>
      </trkpt>
      <trkpt lat="49.85484" lon="1.09567">
        <ele>79.45</ele>
        <time>2012-07-22T08:27:36Z</time>
      </trkpt>
      <trkpt lat="49.85484" lon="1.09569">
        <ele>78.97</ele>
        <time>2012-07-22T08:27:37Z</time>
      </trkpt>
      <trkpt lat="49.85483" lon="1.09572">
        <ele>79.45</ele>
        <time>2012-07-22T08:27:38Z</time>
      </trkpt>
      <trkpt lat="49.85483" lon="1.09574">
        <ele>79.45</ele>
        <time>2012-07-22T08:27:39Z</time>
      </trkpt>
      <trkpt lat="49.85482" lon="1.09577">
        <ele>79.45</ele>
        <time>2012-07-22T08:27:40Z</time>
      </trkpt>
      <trkpt lat="49.85482" lon="1.0958">
        <ele>79.93</ele>
        <time>2012-07-22T08:27:41Z</time>
      </trkpt>
      <trkpt lat="49.85483" lon="1.09583">
        <ele>79.93</ele>
        <time>2012-07-22T08:27:42Z</time>
      </trkpt>
      <trkpt lat="49.85483" lon="1.09586">
        <ele>80.41</ele>
        <time>2012-07-22T08:27:43Z</time>
      </trkpt>
      <trkpt lat="49.85483" lon="1.09589">
        <ele>80.41</ele>
        <time>2012-07-22T08:27:44Z</time>
      </trkpt>
      <trkpt lat="49.85483" lon="1.09592">
        <ele>80.41</ele>
        <time>2012-07-22T08:27:45Z</time>
      </trkpt>
      <trkpt lat="49.85492" lon="1.09632">
        <ele>82.81</ele>
        <time>2012-07-22T08:27:57Z</time>
      </trkpt>
      <trkpt lat="49.85502" lon="1.09674">
        <ele>84.25</ele>
        <time>2012-07-22T08:28:10Z</time>
      </trkpt>
      <trkpt lat="49.8551" lon="1.09711">
        <ele>86.18</ele>
        <time>2012-07-22T08:28:21Z</time>
      </trkpt>
      <trkpt lat="49.85521" lon="1.09754">
        <ele>87.62</ele>
        <time>2012-07-22T08:28:33Z</time>
      </trkpt>
      <trkpt lat="49.85533" lon="1.09792">
        <ele>89.06</ele>
        <time>2012-07-22T08:28:44Z</time>
      </trkpt>
      <trkpt lat="49.85541" lon="1.09822">
        <ele>90.02</ele>
        <time>2012-07-22T08:28:53Z</time>
      </trkpt>
      <trkpt lat="49.8555" lon="1.0984">
        <ele>90.98</ele>
        <time>2012-07-22T08:28:59Z</time>
      </trkpt>
      <trkpt lat="49.85552" lon="1.09844">
        <ele>90.98</ele>
        <time>2012-07-22T08:29:00Z</time>
      </trkpt>
      <trkpt lat="49.85553" lon="1.09847">
        <ele>89.06</ele>
        <time>2012-07-22T08:29:01Z</time>
      </trkpt>
      <trkpt lat="49.85555" lon="1.09851">
        <ele>90.5</ele>
        <time>2012-07-22T08:29:02Z</time>
      </trkpt>
      <trkpt lat="49.85556" lon="1.09854">
        <ele>88.58</ele>
        <time>2012-07-22T08:29:03Z</time>
      </trkpt>
      <trkpt lat="49.85557" lon="1.09858">
        <ele>91.94</ele>
        <time>2012-07-22T08:29:04Z</time>
      </trkpt>
      <trkpt lat="49.85571" lon="1.09891">
        <ele>91.94</ele>
        <time>2012-07-22T08:29:15Z</time>
      </trkpt>
      <trkpt lat="49.85583" lon="1.09927">
        <ele>93.87</ele>
        <time>2012-07-22T08:29:27Z</time>
      </trkpt>
      <trkpt lat="49.85598" lon="1.09968">
        <ele>95.79</ele>
        <time>2012-07-22T08:29:40Z</time>
      </trkpt>
      <trkpt lat="49.85616" lon="1.10008">
        <ele>97.23</ele>
        <time>2012-07-22T08:29:54Z</time>
      </trkpt>
      <trkpt lat="49.85636" lon="1.10031">
        <ele>97.71</ele>
        <time>2012-07-22T08:30:05Z</time>
      </trkpt>
      <trkpt lat="49.85649" lon="1.1004">
        <ele>98.67</ele>
        <time>2012-07-22T08:30:11Z</time>
      </trkpt>
      <trkpt lat="49.85651" lon="1.10042">
        <ele>98.19</ele>
        <time>2012-07-22T08:30:12Z</time>
      </trkpt>
      <trkpt lat="49.85653" lon="1.10044">
        <ele>98.67</ele>
        <time>2012-07-22T08:30:13Z</time>
      </trkpt>
      <trkpt lat="49.85655" lon="1.10045">
        <ele>98.67</ele>
        <time>2012-07-22T08:30:14Z</time>
      </trkpt>
      <trkpt lat="49.85657" lon="1.10046">
        <ele>98.67</ele>
        <time>2012-07-22T08:30:15Z</time>
      </trkpt>
      <trkpt lat="49.85675" lon="1.10057">
        <ele>100.11</ele>
        <time>2012-07-22T08:30:24Z</time>
      </trkpt>
      <trkpt lat="49.85677" lon="1.10058">
        <ele>99.15</ele>
        <time>2012-07-22T08:30:25Z</time>
      </trkpt>
      <trkpt lat="49.85679" lon="1.10058">
        <ele>99.15</ele>
        <time>2012-07-22T08:30:26Z</time>
      </trkpt>
      <trkpt lat="49.85681" lon="1.1006">
        <ele>99.15</ele>
        <time>2012-07-22T08:30:27Z</time>
      </trkpt>
      <trkpt lat="49.85683" lon="1.10061">
        <ele>99.63</ele>
        <time>2012-07-22T08:30:28Z</time>
      </trkpt>
      <trkpt lat="49.85685" lon="1.10063">
        <ele>99.15</ele>
        <time>2012-07-22T08:30:29Z</time>
      </trkpt>
      <trkpt lat="49.85687" lon="1.10065">
        <ele>100.11</ele>
        <time>2012-07-22T08:30:30Z</time>
      </trkpt>
      <trkpt lat="49.8569" lon="1.10067">
        <ele>99.63</ele>
        <time>2012-07-22T08:30:31Z</time>
      </trkpt>
      <trkpt lat="49.85692" lon="1.10069">
        <ele>99.63</ele>
        <time>2012-07-22T08:30:32Z</time>
      </trkpt>
      <trkpt lat="49.85712" lon="1.10082">
        <ele>100.6</ele>
        <time>2012-07-22T08:30:42Z</time>
      </trkpt>
      <trkpt lat="49.85716" lon="1.10083">
        <ele>100.11</ele>
        <time>2012-07-22T08:30:44Z</time>
      </trkpt>
      <trkpt lat="49.85718" lon="1.10085">
        <ele>100.6</ele>
        <time>2012-07-22T08:30:45Z</time>
      </trkpt>
      <trkpt lat="49.8572" lon="1.10085">
        <ele>100.11</ele>
        <time>2012-07-22T08:30:46Z</time>
      </trkpt>
      <trkpt lat="49.85727" lon="1.10085">
        <ele>100.11</ele>
        <time>2012-07-22T08:30:50Z</time>
      </trkpt>
      <trkpt lat="49.85728" lon="1.10087">
        <ele>100.6</ele>
        <time>2012-07-22T08:30:51Z</time>
      </trkpt>
      <trkpt lat="49.85728" lon="1.10088">
        <ele>101.08</ele>
        <time>2012-07-22T08:30:52Z</time>
      </trkpt>
      <trkpt lat="49.85728" lon="1.1009">
        <ele>101.08</ele>
        <time>2012-07-22T08:31:02Z</time>
      </trkpt>
      <trkpt lat="49.8573" lon="1.10092">
        <ele>100.6</ele>
        <time>2012-07-22T08:31:10Z</time>
      </trkpt>
      <trkpt lat="49.8573" lon="1.10094">
        <ele>100.11</ele>
        <time>2012-07-22T08:31:11Z</time>
      </trkpt>
      <trkpt lat="49.85731" lon="1.10097">
        <ele>101.08</ele>
        <time>2012-07-22T08:31:12Z</time>
      </trkpt>
      <trkpt lat="49.85732" lon="1.101">
        <ele>100.11</ele>
        <time>2012-07-22T08:31:13Z</time>
      </trkpt>
      <trkpt lat="49.85733" lon="1.10104">
        <ele>100.6</ele>
        <time>2012-07-22T08:31:14Z</time>
      </trkpt>
      <trkpt lat="49.8574" lon="1.10155">
        <ele>100.6</ele>
        <time>2012-07-22T08:31:25Z</time>
      </trkpt>
      <trkpt lat="49.85763" lon="1.10215">
        <ele>102.52</ele>
        <time>2012-07-22T08:31:39Z</time>
      </trkpt>
      <trkpt lat="49.85773" lon="1.10232">
        <ele>102.52</ele>
        <time>2012-07-22T08:31:44Z</time>
      </trkpt>
      <trkpt lat="49.85773" lon="1.10237">
        <ele>102.04</ele>
        <time>2012-07-22T08:31:45Z</time>
      </trkpt>
      <trkpt lat="49.85772" lon="1.10242">
        <ele>102.52</ele>
        <time>2012-07-22T08:31:46Z</time>
      </trkpt>
      <trkpt lat="49.8577" lon="1.10247">
        <ele>103</ele>
        <time>2012-07-22T08:31:47Z</time>
      </trkpt>
      <trkpt lat="49.85769" lon="1.10252">
        <ele>102.04</ele>
        <time>2012-07-22T08:31:48Z</time>
      </trkpt>
      <trkpt lat="49.85749" lon="1.10305">
        <ele>102.04</ele>
        <time>2012-07-22T08:32:00Z</time>
      </trkpt>
      <trkpt lat="49.8575" lon="1.1031">
        <ele>103</ele>
        <time>2012-07-22T08:32:01Z</time>
      </trkpt>
      <trkpt lat="49.85752" lon="1.10314">
        <ele>103</ele>
        <time>2012-07-22T08:32:02Z</time>
      </trkpt>
      <trkpt lat="49.85754" lon="1.10318">
        <ele>102.52</ele>
        <time>2012-07-22T08:32:03Z</time>
      </trkpt>
      <trkpt lat="49.85794" lon="1.10347">
        <ele>103</ele>
        <time>2012-07-22T08:32:16Z</time>
      </trkpt>
      <trkpt lat="49.85826" lon="1.10361">
        <ele>103.96</ele>
        <time>2012-07-22T08:32:26Z</time>
      </trkpt>
      <trkpt lat="49.85867" lon="1.1039">
        <ele>104.44</ele>
        <time>2012-07-22T08:32:39Z</time>
      </trkpt>
      <trkpt lat="49.85893" lon="1.10416">
        <ele>104.92</ele>
        <time>2012-07-22T08:32:49Z</time>
      </trkpt>
      <trkpt lat="49.85914" lon="1.10474">
        <ele>104.44</ele>
        <time>2012-07-22T08:33:01Z</time>
      </trkpt>
      <trkpt lat="49.8593" lon="1.10549">
        <ele>105.88</ele>
        <time>2012-07-22T08:33:14Z</time>
      </trkpt>
      <trkpt lat="49.85954" lon="1.1063">
        <ele>105.88</ele>
        <time>2012-07-22T08:33:28Z</time>
      </trkpt>
      <trkpt lat="49.85988" lon="1.10689">
        <ele>106.36</ele>
        <time>2012-07-22T08:33:39Z</time>
      </trkpt>
      <trkpt lat="49.85991" lon="1.10695">
        <ele>105.4</ele>
        <time>2012-07-22T08:33:40Z</time>
      </trkpt>
      <trkpt lat="49.86003" lon="1.10717">
        <ele>105.88</ele>
        <time>2012-07-22T08:33:44Z</time>
      </trkpt>
      <trkpt lat="49.86006" lon="1.10723">
        <ele>106.36</ele>
        <time>2012-07-22T08:33:45Z</time>
      </trkpt>
      <trkpt lat="49.86043" lon="1.10806">
        <ele>106.84</ele>
        <time>2012-07-22T08:33:59Z</time>
      </trkpt>
      <trkpt lat="49.86078" lon="1.10892">
        <ele>107.32</ele>
        <time>2012-07-22T08:34:14Z</time>
      </trkpt>
      <trkpt lat="49.86088" lon="1.10915">
        <ele>107.81</ele>
        <time>2012-07-22T08:34:18Z</time>
      </trkpt>
      <trkpt lat="49.86091" lon="1.10919">
        <ele>106.84</ele>
        <time>2012-07-22T08:34:19Z</time>
      </trkpt>
      <trkpt lat="49.86094" lon="1.10924">
        <ele>107.81</ele>
        <time>2012-07-22T08:34:20Z</time>
      </trkpt>
      <trkpt lat="49.86101" lon="1.10932">
        <ele>107.81</ele>
        <time>2012-07-22T08:34:22Z</time>
      </trkpt>
      <trkpt lat="49.86104" lon="1.10936">
        <ele>107.81</ele>
        <time>2012-07-22T08:34:23Z</time>
      </trkpt>
      <trkpt lat="49.86122" lon="1.10957">
        <ele>107.81</ele>
        <time>2012-07-22T08:34:28Z</time>
      </trkpt>
      <trkpt lat="49.86171" lon="1.11004">
        <ele>107.81</ele>
        <time>2012-07-22T08:34:42Z</time>
      </trkpt>
      <trkpt lat="49.8621" lon="1.11043">
        <ele>108.29</ele>
        <time>2012-07-22T08:34:54Z</time>
      </trkpt>
      <trkpt lat="49.86225" lon="1.11086">
        <ele>108.77</ele>
        <time>2012-07-22T08:35:05Z</time>
      </trkpt>
      <trkpt lat="49.86228" lon="1.1109">
        <ele>108.77</ele>
        <time>2012-07-22T08:35:13Z</time>
      </trkpt>
      <trkpt lat="49.86233" lon="1.11096">
        <ele>108.29</ele>
        <time>2012-07-22T08:35:21Z</time>
      </trkpt>
      <trkpt lat="49.86235" lon="1.11098">
        <ele>108.29</ele>
        <time>2012-07-22T08:35:22Z</time>
      </trkpt>
      <trkpt lat="49.86237" lon="1.11101">
        <ele>108.77</ele>
        <time>2012-07-22T08:35:23Z</time>
      </trkpt>
      <trkpt lat="49.86239" lon="1.11104">
        <ele>108.77</ele>
        <time>2012-07-22T08:35:24Z</time>
      </trkpt>
      <trkpt lat="49.86241" lon="1.11108">
        <ele>108.77</ele>
        <time>2012-07-22T08:35:25Z</time>
      </trkpt>
      <trkpt lat="49.86267" lon="1.11121">
        <ele>108.29</ele>
        <time>2012-07-22T08:35:33Z</time>
      </trkpt>
      <trkpt lat="49.8628" lon="1.11123">
        <ele>108.77</ele>
        <time>2012-07-22T08:35:36Z</time>
      </trkpt>
      <trkpt lat="49.86283" lon="1.11125">
        <ele>108.29</ele>
        <time>2012-07-22T08:35:37Z</time>
      </trkpt>
      <trkpt lat="49.86287" lon="1.11128">
        <ele>108.77</ele>
        <time>2012-07-22T08:35:38Z</time>
      </trkpt>
      <trkpt lat="49.86312" lon="1.11151">
        <ele>107.81</ele>
        <time>2012-07-22T08:35:45Z</time>
      </trkpt>
      <trkpt lat="49.86355" lon="1.112">
        <ele>107.81</ele>
        <time>2012-07-22T08:35:57Z</time>
      </trkpt>
      <trkpt lat="49.8641" lon="1.11261">
        <ele>107.32</ele>
        <time>2012-07-22T08:36:12Z</time>
      </trkpt>
      <trkpt lat="49.86477" lon="1.11334">
        <ele>106.84</ele>
        <time>2012-07-22T08:36:29Z</time>
      </trkpt>
      <trkpt lat="49.86537" lon="1.11393">
        <ele>106.36</ele>
        <time>2012-07-22T08:36:44Z</time>
      </trkpt>
      <trkpt lat="49.86603" lon="1.11449">
        <ele>105.4</ele>
        <time>2012-07-22T08:36:59Z</time>
      </trkpt>
      <trkpt lat="49.8667" lon="1.11497">
        <ele>104.92</ele>
        <time>2012-07-22T08:37:13Z</time>
      </trkpt>
      <trkpt lat="49.86748" lon="1.11546">
        <ele>104.92</ele>
        <time>2012-07-22T08:37:28Z</time>
      </trkpt>
      <trkpt lat="49.8683" lon="1.11585">
        <ele>103.48</ele>
        <time>2012-07-22T08:37:44Z</time>
      </trkpt>
      <trkpt lat="49.86914" lon="1.11622">
        <ele>103</ele>
        <time>2012-07-22T08:38:00Z</time>
      </trkpt>
      <trkpt lat="49.86982" lon="1.11653">
        <ele>102.04</ele>
        <time>2012-07-22T08:38:13Z</time>
      </trkpt>
      <trkpt lat="49.87061" lon="1.11687">
        <ele>103</ele>
        <time>2012-07-22T08:38:28Z</time>
      </trkpt>
      <trkpt lat="49.87066" lon="1.11689">
        <ele>102.52</ele>
        <time>2012-07-22T08:38:29Z</time>
      </trkpt>
      <trkpt lat="49.87144" lon="1.11725">
        <ele>102.04</ele>
        <time>2012-07-22T08:38:44Z</time>
      </trkpt>
      <trkpt lat="49.87227" lon="1.11761">
        <ele>102.04</ele>
        <time>2012-07-22T08:39:00Z</time>
      </trkpt>
      <trkpt lat="49.87313" lon="1.118">
        <ele>101.56</ele>
        <time>2012-07-22T08:39:16Z</time>
      </trkpt>
      <trkpt lat="49.87387" lon="1.11832">
        <ele>99.63</ele>
        <time>2012-07-22T08:39:29Z</time>
      </trkpt>
      <trkpt lat="49.87455" lon="1.11863">
        <ele>98.19</ele>
        <time>2012-07-22T08:39:40Z</time>
      </trkpt>
      <trkpt lat="49.87525" lon="1.11908">
        <ele>97.23</ele>
        <time>2012-07-22T08:39:52Z</time>
      </trkpt>
      <trkpt lat="49.87536" lon="1.11917">
        <ele>96.27</ele>
        <time>2012-07-22T08:39:54Z</time>
      </trkpt>
      <trkpt lat="49.87587" lon="1.11967">
        <ele>93.39</ele>
        <time>2012-07-22T08:40:03Z</time>
      </trkpt>
      <trkpt lat="49.87622" lon="1.11991">
        <ele>91.46</ele>
        <time>2012-07-22T08:40:08Z</time>
      </trkpt>
      <trkpt lat="49.87629" lon="1.11992">
        <ele>90.5</ele>
        <time>2012-07-22T08:40:09Z</time>
      </trkpt>
      <trkpt lat="49.87635" lon="1.11991">
        <ele>91.46</ele>
        <time>2012-07-22T08:40:10Z</time>
      </trkpt>
      <trkpt lat="49.87641" lon="1.11987">
        <ele>90.5</ele>
        <time>2012-07-22T08:40:11Z</time>
      </trkpt>
      <trkpt lat="49.87648" lon="1.1198">
        <ele>90.02</ele>
        <time>2012-07-22T08:40:12Z</time>
      </trkpt>
      <trkpt lat="49.87652" lon="1.11972">
        <ele>90.02</ele>
        <time>2012-07-22T08:40:13Z</time>
      </trkpt>
      <trkpt lat="49.87654" lon="1.11963">
        <ele>89.54</ele>
        <time>2012-07-22T08:40:14Z</time>
      </trkpt>
      <trkpt lat="49.87656" lon="1.11956">
        <ele>89.06</ele>
        <time>2012-07-22T08:40:15Z</time>
      </trkpt>
      <trkpt lat="49.87658" lon="1.11952">
        <ele>89.54</ele>
        <time>2012-07-22T08:40:16Z</time>
      </trkpt>
      <trkpt lat="49.87661" lon="1.11951">
        <ele>88.58</ele>
        <time>2012-07-22T08:40:17Z</time>
      </trkpt>
      <trkpt lat="49.87663" lon="1.11952">
        <ele>88.1</ele>
        <time>2012-07-22T08:40:18Z</time>
      </trkpt>
      <trkpt lat="49.87666" lon="1.11957">
        <ele>88.58</ele>
        <time>2012-07-22T08:40:19Z</time>
      </trkpt>
      <trkpt lat="49.87668" lon="1.11962">
        <ele>87.62</ele>
        <time>2012-07-22T08:40:20Z</time>
      </trkpt>
      <trkpt lat="49.8767" lon="1.11967">
        <ele>88.1</ele>
        <time>2012-07-22T08:40:21Z</time>
      </trkpt>
      <trkpt lat="49.87673" lon="1.11971">
        <ele>88.1</ele>
        <time>2012-07-22T08:40:22Z</time>
      </trkpt>
      <trkpt lat="49.87678" lon="1.11975">
        <ele>87.14</ele>
        <time>2012-07-22T08:40:23Z</time>
      </trkpt>
      <trkpt lat="49.87699" lon="1.11987">
        <ele>86.66</ele>
        <time>2012-07-22T08:40:27Z</time>
      </trkpt>
      <trkpt lat="49.87733" lon="1.12003">
        <ele>83.77</ele>
        <time>2012-07-22T08:40:32Z</time>
      </trkpt>
      <trkpt lat="49.87768" lon="1.12031">
        <ele>81.37</ele>
        <time>2012-07-22T08:40:37Z</time>
      </trkpt>
      <trkpt lat="49.87783" lon="1.12045">
        <ele>80.41</ele>
        <time>2012-07-22T08:40:39Z</time>
      </trkpt>
      <trkpt lat="49.87791" lon="1.12052">
        <ele>79.93</ele>
        <time>2012-07-22T08:40:40Z</time>
      </trkpt>
      <trkpt lat="49.87805" lon="1.12066">
        <ele>78.97</ele>
        <time>2012-07-22T08:40:42Z</time>
      </trkpt>
      <trkpt lat="49.87813" lon="1.12074">
        <ele>78.48</ele>
        <time>2012-07-22T08:40:43Z</time>
      </trkpt>
      <trkpt lat="49.87842" lon="1.12107">
        <ele>76.56</ele>
        <time>2012-07-22T08:40:47Z</time>
      </trkpt>
      <trkpt lat="49.8785" lon="1.12114">
        <ele>75.12</ele>
        <time>2012-07-22T08:40:48Z</time>
      </trkpt>
      <trkpt lat="49.87858" lon="1.12119">
        <ele>76.08</ele>
        <time>2012-07-22T08:40:49Z</time>
      </trkpt>
      <trkpt lat="49.87867" lon="1.12123">
        <ele>74.64</ele>
        <time>2012-07-22T08:40:50Z</time>
      </trkpt>
      <trkpt lat="49.87877" lon="1.12126">
        <ele>74.16</ele>
        <time>2012-07-22T08:40:51Z</time>
      </trkpt>
      <trkpt lat="49.87906" lon="1.12138">
        <ele>70.79</ele>
        <time>2012-07-22T08:40:54Z</time>
      </trkpt>
      <trkpt lat="49.87916" lon="1.1214">
        <ele>70.79</ele>
        <time>2012-07-22T08:40:55Z</time>
      </trkpt>
      <trkpt lat="49.87967" lon="1.12154">
        <ele>67.91</ele>
        <time>2012-07-22T08:41:00Z</time>
      </trkpt>
      <trkpt lat="49.88027" lon="1.12193">
        <ele>64.07</ele>
        <time>2012-07-22T08:41:06Z</time>
      </trkpt>
      <trkpt lat="49.88037" lon="1.12202">
        <ele>63.58</ele>
        <time>2012-07-22T08:41:07Z</time>
      </trkpt>
      <trkpt lat="49.88063" lon="1.12227">
        <ele>62.14</ele>
        <time>2012-07-22T08:41:10Z</time>
      </trkpt>
      <trkpt lat="49.88095" lon="1.12256">
        <ele>62.14</ele>
        <time>2012-07-22T08:41:15Z</time>
      </trkpt>
      <trkpt lat="49.881" lon="1.12259">
        <ele>62.62</ele>
        <time>2012-07-22T08:41:16Z</time>
      </trkpt>
      <trkpt lat="49.88102" lon="1.12264">
        <ele>62.14</ele>
        <time>2012-07-22T08:41:17Z</time>
      </trkpt>
      <trkpt lat="49.88101" lon="1.12269">
        <ele>61.66</ele>
        <time>2012-07-22T08:41:18Z</time>
      </trkpt>
      <trkpt lat="49.881" lon="1.12274">
        <ele>61.66</ele>
        <time>2012-07-22T08:41:19Z</time>
      </trkpt>
      <trkpt lat="49.88099" lon="1.12277">
        <ele>61.18</ele>
        <time>2012-07-22T08:41:20Z</time>
      </trkpt>
      <trkpt lat="49.88102" lon="1.12287">
        <ele>61.66</ele>
        <time>2012-07-22T08:41:27Z</time>
      </trkpt>
      <trkpt lat="49.88104" lon="1.12283">
        <ele>61.66</ele>
        <time>2012-07-22T08:41:31Z</time>
      </trkpt>
      <trkpt lat="49.88104" lon="1.12278">
        <ele>61.18</ele>
        <time>2012-07-22T08:41:37Z</time>
      </trkpt>
      <trkpt lat="49.881" lon="1.1228">
        <ele>61.18</ele>
        <time>2012-07-22T08:41:38Z</time>
      </trkpt>
      <trkpt lat="49.88096" lon="1.1228">
        <ele>59.74</ele>
        <time>2012-07-22T08:41:39Z</time>
      </trkpt>
      <trkpt lat="49.88092" lon="1.12278">
        <ele>59.26</ele>
        <time>2012-07-22T08:41:40Z</time>
      </trkpt>
      <trkpt lat="49.88084" lon="1.12272">
        <ele>58.3</ele>
        <time>2012-07-22T08:41:42Z</time>
      </trkpt>
      <trkpt lat="49.88079" lon="1.12269">
        <ele>58.3</ele>
        <time>2012-07-22T08:41:43Z</time>
      </trkpt>
      <trkpt lat="49.88043" lon="1.1224">
        <ele>54.45</ele>
        <time>2012-07-22T08:41:49Z</time>
      </trkpt>
      <trkpt lat="49.88026" lon="1.12228">
        <ele>53.49</ele>
        <time>2012-07-22T08:41:51Z</time>
      </trkpt>
      <trkpt lat="49.88017" lon="1.12224">
        <ele>53.01</ele>
        <time>2012-07-22T08:41:52Z</time>
      </trkpt>
      <trkpt lat="49.88008" lon="1.12221">
        <ele>52.53</ele>
        <time>2012-07-22T08:41:53Z</time>
      </trkpt>
      <trkpt lat="49.87966" lon="1.12211">
        <ele>49.65</ele>
        <time>2012-07-22T08:41:57Z</time>
      </trkpt>
      <trkpt lat="49.87937" lon="1.12207">
        <ele>48.2</ele>
        <time>2012-07-22T08:42:00Z</time>
      </trkpt>
      <trkpt lat="49.87928" lon="1.12209">
        <ele>48.68</ele>
        <time>2012-07-22T08:42:01Z</time>
      </trkpt>
      <trkpt lat="49.87921" lon="1.12214">
        <ele>47.72</ele>
        <time>2012-07-22T08:42:02Z</time>
      </trkpt>
      <trkpt lat="49.87915" lon="1.12221">
        <ele>47.24</ele>
        <time>2012-07-22T08:42:03Z</time>
      </trkpt>
      <trkpt lat="49.8791" lon="1.12231">
        <ele>46.28</ele>
        <time>2012-07-22T08:42:04Z</time>
      </trkpt>
      <trkpt lat="49.87905" lon="1.12241">
        <ele>45.32</ele>
        <time>2012-07-22T08:42:05Z</time>
      </trkpt>
      <trkpt lat="49.87898" lon="1.12248">
        <ele>44.84</ele>
        <time>2012-07-22T08:42:06Z</time>
      </trkpt>
      <trkpt lat="49.8789" lon="1.12254">
        <ele>44.84</ele>
        <time>2012-07-22T08:42:07Z</time>
      </trkpt>
      <trkpt lat="49.87882" lon="1.12257">
        <ele>43.4</ele>
        <time>2012-07-22T08:42:08Z</time>
      </trkpt>
      <trkpt lat="49.87873" lon="1.12256">
        <ele>42.44</ele>
        <time>2012-07-22T08:42:09Z</time>
      </trkpt>
      <trkpt lat="49.87864" lon="1.12254">
        <ele>41.95</ele>
        <time>2012-07-22T08:42:10Z</time>
      </trkpt>
      <trkpt lat="49.87855" lon="1.1225">
        <ele>41.95</ele>
        <time>2012-07-22T08:42:11Z</time>
      </trkpt>
      <trkpt lat="49.87847" lon="1.12246">
        <ele>41.95</ele>
        <time>2012-07-22T08:42:12Z</time>
      </trkpt>
      <trkpt lat="49.87839" lon="1.12243">
        <ele>41.95</ele>
        <time>2012-07-22T08:42:13Z</time>
      </trkpt>
      <trkpt lat="49.87831" lon="1.12243">
        <ele>41.47</ele>
        <time>2012-07-22T08:42:14Z</time>
      </trkpt>
      <trkpt lat="49.87823" lon="1.12247">
        <ele>40.99</ele>
        <time>2012-07-22T08:42:15Z</time>
      </trkpt>
      <trkpt lat="49.87817" lon="1.12255">
        <ele>40.51</ele>
        <time>2012-07-22T08:42:16Z</time>
      </trkpt>
      <trkpt lat="49.87816" lon="1.12266">
        <ele>40.51</ele>
        <time>2012-07-22T08:42:17Z</time>
      </trkpt>
      <trkpt lat="49.87819" lon="1.12278">
        <ele>39.07</ele>
        <time>2012-07-22T08:42:18Z</time>
      </trkpt>
      <trkpt lat="49.87825" lon="1.12288">
        <ele>38.59</ele>
        <time>2012-07-22T08:42:19Z</time>
      </trkpt>
      <trkpt lat="49.87832" lon="1.12297">
        <ele>38.11</ele>
        <time>2012-07-22T08:42:20Z</time>
      </trkpt>
      <trkpt lat="49.8784" lon="1.12307">
        <ele>37.63</ele>
        <time>2012-07-22T08:42:21Z</time>
      </trkpt>
      <trkpt lat="49.87854" lon="1.12324">
        <ele>36.67</ele>
        <time>2012-07-22T08:42:23Z</time>
      </trkpt>
      <trkpt lat="49.87888" lon="1.1236">
        <ele>34.74</ele>
        <time>2012-07-22T08:42:30Z</time>
      </trkpt>
      <trkpt lat="49.87906" lon="1.12376">
        <ele>33.3</ele>
        <time>2012-07-22T08:42:39Z</time>
      </trkpt>
      <trkpt lat="49.87917" lon="1.12384">
        <ele>32.82</ele>
        <time>2012-07-22T08:42:48Z</time>
      </trkpt>
      <trkpt lat="49.87925" lon="1.12388">
        <ele>31.86</ele>
        <time>2012-07-22T08:42:57Z</time>
      </trkpt>
      <trkpt lat="49.87939" lon="1.12399">
        <ele>30.9</ele>
        <time>2012-07-22T08:43:01Z</time>
      </trkpt>
      <trkpt lat="49.87943" lon="1.12402">
        <ele>30.9</ele>
        <time>2012-07-22T08:43:02Z</time>
      </trkpt>
      <trkpt lat="49.87947" lon="1.12406">
        <ele>30.9</ele>
        <time>2012-07-22T08:43:03Z</time>
      </trkpt>
      <trkpt lat="49.87982" lon="1.12446">
        <ele>28.02</ele>
        <time>2012-07-22T08:43:10Z</time>
      </trkpt>
      <trkpt lat="49.87999" lon="1.12467">
        <ele>26.57</ele>
        <time>2012-07-22T08:43:13Z</time>
      </trkpt>
      <trkpt lat="49.88033" lon="1.12507">
        <ele>25.13</ele>
        <time>2012-07-22T08:43:20Z</time>
      </trkpt>
      <trkpt lat="49.88072" lon="1.12544">
        <ele>21.77</ele>
        <time>2012-07-22T08:43:28Z</time>
      </trkpt>
      <trkpt lat="49.88117" lon="1.12584">
        <ele>19.36</ele>
        <time>2012-07-22T08:43:36Z</time>
      </trkpt>
      <trkpt lat="49.8816" lon="1.12623">
        <ele>17.44</ele>
        <time>2012-07-22T08:43:44Z</time>
      </trkpt>
      <trkpt lat="49.88176" lon="1.12644">
        <ele>16.96</ele>
        <time>2012-07-22T08:43:51Z</time>
      </trkpt>
      <trkpt lat="49.88208" lon="1.12695">
        <ele>14.56</ele>
        <time>2012-07-22T08:44:00Z</time>
      </trkpt>
      <trkpt lat="49.88211" lon="1.12703">
        <ele>13.6</ele>
        <time>2012-07-22T08:44:01Z</time>
      </trkpt>
      <trkpt lat="49.88214" lon="1.12711">
        <ele>14.08</ele>
        <time>2012-07-22T08:44:02Z</time>
      </trkpt>
      <trkpt lat="49.88227" lon="1.12741">
        <ele>12.63</ele>
        <time>2012-07-22T08:44:08Z</time>
      </trkpt>
      <trkpt lat="49.88233" lon="1.12751">
        <ele>12.63</ele>
        <time>2012-07-22T08:44:10Z</time>
      </trkpt>
      <trkpt lat="49.88238" lon="1.12763">
        <ele>12.15</ele>
        <time>2012-07-22T08:44:12Z</time>
      </trkpt>
      <trkpt lat="49.88248" lon="1.12791">
        <ele>11.67</ele>
        <time>2012-07-22T08:44:16Z</time>
      </trkpt>
      <trkpt lat="49.8825" lon="1.12799">
        <ele>10.71</ele>
        <time>2012-07-22T08:44:17Z</time>
      </trkpt>
      <trkpt lat="49.88251" lon="1.12808">
        <ele>10.71</ele>
        <time>2012-07-22T08:44:18Z</time>
      </trkpt>
      <trkpt lat="49.88251" lon="1.12818">
        <ele>10.23</ele>
        <time>2012-07-22T08:44:19Z</time>
      </trkpt>
      <trkpt lat="49.8825" lon="1.12827">
        <ele>9.75</ele>
        <time>2012-07-22T08:44:20Z</time>
      </trkpt>
      <trkpt lat="49.88248" lon="1.12836">
        <ele>10.23</ele>
        <time>2012-07-22T08:44:21Z</time>
      </trkpt>
      <trkpt lat="49.88244" lon="1.12843">
        <ele>10.23</ele>
        <time>2012-07-22T08:44:22Z</time>
      </trkpt>
      <trkpt lat="49.88239" lon="1.12849">
        <ele>8.79</ele>
        <time>2012-07-22T08:44:23Z</time>
      </trkpt>
      <trkpt lat="49.88233" lon="1.12855">
        <ele>9.27</ele>
        <time>2012-07-22T08:44:24Z</time>
      </trkpt>
      <trkpt lat="49.88181" lon="1.12902">
        <ele>7.35</ele>
        <time>2012-07-22T08:44:34Z</time>
      </trkpt>
      <trkpt lat="49.8811" lon="1.12958">
        <ele>6.39</ele>
        <time>2012-07-22T08:44:47Z</time>
      </trkpt>
      <trkpt lat="49.88094" lon="1.12971">
        <ele>5.91</ele>
        <time>2012-07-22T08:44:50Z</time>
      </trkpt>
      <trkpt lat="49.88088" lon="1.12973">
        <ele>6.39</ele>
        <time>2012-07-22T08:44:51Z</time>
      </trkpt>
      <trkpt lat="49.88082" lon="1.12976">
        <ele>6.39</ele>
        <time>2012-07-22T08:44:52Z</time>
      </trkpt>
      <trkpt lat="49.88076" lon="1.12979">
        <ele>5.91</ele>
        <time>2012-07-22T08:44:53Z</time>
      </trkpt>
      <trkpt lat="49.88071" lon="1.12981">
        <ele>6.39</ele>
        <time>2012-07-22T08:44:54Z</time>
      </trkpt>
      <trkpt lat="49.88066" lon="1.12984">
        <ele>5.91</ele>
        <time>2012-07-22T08:44:55Z</time>
      </trkpt>
      <trkpt lat="49.88052" lon="1.13012">
        <ele>5.91</ele>
        <time>2012-07-22T08:45:02Z</time>
      </trkpt>
      <trkpt lat="49.88055" lon="1.13065">
        <ele>5.91</ele>
        <time>2012-07-22T08:45:12Z</time>
      </trkpt>
      <trkpt lat="49.88062" lon="1.1312">
        <ele>5.42</ele>
        <time>2012-07-22T08:45:21Z</time>
      </trkpt>
      <trkpt lat="49.88064" lon="1.13139">
        <ele>5.91</ele>
        <time>2012-07-22T08:45:24Z</time>
      </trkpt>
      <trkpt lat="49.88064" lon="1.13151">
        <ele>5.91</ele>
        <time>2012-07-22T08:45:26Z</time>
      </trkpt>
      <trkpt lat="49.88064" lon="1.13158">
        <ele>4.94</ele>
        <time>2012-07-22T08:45:27Z</time>
      </trkpt>
      <trkpt lat="49.88064" lon="1.13165">
        <ele>5.91</ele>
        <time>2012-07-22T08:45:28Z</time>
      </trkpt>
      <trkpt lat="49.88069" lon="1.1321">
        <ele>5.91</ele>
        <time>2012-07-22T08:45:35Z</time>
      </trkpt>
      <trkpt lat="49.88071" lon="1.13217">
        <ele>6.39</ele>
        <time>2012-07-22T08:45:36Z</time>
      </trkpt>
      <trkpt lat="49.88077" lon="1.13297">
        <ele>5.91</ele>
        <time>2012-07-22T08:45:47Z</time>
      </trkpt>
      <trkpt lat="49.88079" lon="1.13318">
        <ele>6.87</ele>
        <time>2012-07-22T08:45:53Z</time>
      </trkpt>
      <trkpt lat="49.88079" lon="1.13318">
        <ele>6.39</ele>
        <time>2012-07-22T08:46:12Z</time>
      </trkpt>
      <trkpt lat="49.8808" lon="1.1332">
        <ele>5.91</ele>
        <time>2012-07-22T08:46:19Z</time>
      </trkpt>
      <trkpt lat="49.8808" lon="1.13322">
        <ele>5.42</ele>
        <time>2012-07-22T08:46:20Z</time>
      </trkpt>
      <trkpt lat="49.88081" lon="1.13325">
        <ele>6.39</ele>
        <time>2012-07-22T08:46:21Z</time>
      </trkpt>
      <trkpt lat="49.88081" lon="1.13327">
        <ele>6.87</ele>
        <time>2012-07-22T08:46:22Z</time>
      </trkpt>
      <trkpt lat="49.88081" lon="1.1333">
        <ele>6.39</ele>
        <time>2012-07-22T08:46:23Z</time>
      </trkpt>
      <trkpt lat="49.88081" lon="1.13333">
        <ele>6.39</ele>
        <time>2012-07-22T08:46:24Z</time>
      </trkpt>
      <trkpt lat="49.88082" lon="1.13335">
        <ele>5.91</ele>
        <time>2012-07-22T08:46:25Z</time>
      </trkpt>
      <trkpt lat="49.88081" lon="1.13342">
        <ele>6.39</ele>
        <time>2012-07-22T08:46:28Z</time>
      </trkpt>
      <trkpt lat="49.8808" lon="1.13344">
        <ele>6.87</ele>
        <time>2012-07-22T08:46:29Z</time>
      </trkpt>
      <trkpt lat="49.88072" lon="1.13357">
        <ele>6.87</ele>
        <time>2012-07-22T08:46:34Z</time>
      </trkpt>
      <trkpt lat="49.8807" lon="1.13358">
        <ele>6.39</ele>
        <time>2012-07-22T08:46:35Z</time>
      </trkpt>
      <trkpt lat="49.88067" lon="1.13359">
        <ele>6.87</ele>
        <time>2012-07-22T08:46:36Z</time>
      </trkpt>
      <trkpt lat="49.88065" lon="1.13362">
        <ele>6.39</ele>
        <time>2012-07-22T08:46:37Z</time>
      </trkpt>
      <trkpt lat="49.88064" lon="1.13365">
        <ele>6.39</ele>
        <time>2012-07-22T08:46:38Z</time>
      </trkpt>
      <trkpt lat="49.88063" lon="1.13368">
        <ele>6.87</ele>
        <time>2012-07-22T08:46:39Z</time>
      </trkpt>
      <trkpt lat="49.88061" lon="1.1337">
        <ele>7.35</ele>
        <time>2012-07-22T08:46:40Z</time>
      </trkpt>
      <trkpt lat="49.8806" lon="1.13372">
        <ele>6.87</ele>
        <time>2012-07-22T08:46:41Z</time>
      </trkpt>
      <trkpt lat="49.88059" lon="1.13375">
        <ele>7.35</ele>
        <time>2012-07-22T08:46:50Z</time>
      </trkpt>
      <trkpt lat="49.88059" lon="1.13376">
        <ele>6.87</ele>
        <time>2012-07-22T08:47:11Z</time>
      </trkpt>
      <trkpt lat="49.8804" lon="1.13389">
        <ele>5.91</ele>
        <time>2012-07-22T08:47:19Z</time>
      </trkpt>
      <trkpt lat="49.8801" lon="1.13409">
        <ele>4.94</ele>
        <time>2012-07-22T08:47:27Z</time>
      </trkpt>
      <trkpt lat="49.88007" lon="1.13412">
        <ele>5.42</ele>
        <time>2012-07-22T08:47:28Z</time>
      </trkpt>
      <trkpt lat="49.87979" lon="1.1343">
        <ele>6.39</ele>
        <time>2012-07-22T08:47:35Z</time>
      </trkpt>
      <trkpt lat="49.87942" lon="1.13451">
        <ele>7.35</ele>
        <time>2012-07-22T08:47:46Z</time>
      </trkpt>
      <trkpt lat="49.87912" lon="1.13475">
        <ele>5.91</ele>
        <time>2012-07-22T08:47:54Z</time>
      </trkpt>
      <trkpt lat="49.87878" lon="1.13502">
        <ele>6.87</ele>
        <time>2012-07-22T08:48:04Z</time>
      </trkpt>
      <trkpt lat="49.87843" lon="1.1353">
        <ele>6.87</ele>
        <time>2012-07-22T08:48:15Z</time>
      </trkpt>
      <trkpt lat="49.87832" lon="1.13541">
        <ele>6.87</ele>
        <time>2012-07-22T08:48:18Z</time>
      </trkpt>
      <trkpt lat="49.87828" lon="1.13544">
        <ele>7.35</ele>
        <time>2012-07-22T08:48:19Z</time>
      </trkpt>
      <trkpt lat="49.87816" lon="1.13553">
        <ele>6.87</ele>
        <time>2012-07-22T08:48:22Z</time>
      </trkpt>
      <trkpt lat="49.87767" lon="1.13597">
        <ele>6.39</ele>
        <time>2012-07-22T08:48:34Z</time>
      </trkpt>
      <trkpt lat="49.87723" lon="1.13643">
        <ele>6.39</ele>
        <time>2012-07-22T08:48:46Z</time>
      </trkpt>
      <trkpt lat="49.87722" lon="1.13649">
        <ele>6.39</ele>
        <time>2012-07-22T08:48:47Z</time>
      </trkpt>
      <trkpt lat="49.87722" lon="1.13656">
        <ele>6.39</ele>
        <time>2012-07-22T08:48:48Z</time>
      </trkpt>
      <trkpt lat="49.87724" lon="1.13663">
        <ele>6.39</ele>
        <time>2012-07-22T08:48:49Z</time>
      </trkpt>
      <trkpt lat="49.87727" lon="1.13669">
        <ele>6.39</ele>
        <time>2012-07-22T08:48:50Z</time>
      </trkpt>
      <trkpt lat="49.87729" lon="1.13676">
        <ele>6.39</ele>
        <time>2012-07-22T08:48:51Z</time>
      </trkpt>
      <trkpt lat="49.87731" lon="1.13683">
        <ele>6.39</ele>
        <time>2012-07-22T08:48:52Z</time>
      </trkpt>
      <trkpt lat="49.87733" lon="1.13697">
        <ele>6.39</ele>
        <time>2012-07-22T08:48:54Z</time>
      </trkpt>
      <trkpt lat="49.87732" lon="1.13703">
        <ele>6.87</ele>
        <time>2012-07-22T08:48:55Z</time>
      </trkpt>
      <trkpt lat="49.87728" lon="1.13709">
        <ele>6.39</ele>
        <time>2012-07-22T08:48:56Z</time>
      </trkpt>
      <trkpt lat="49.87725" lon="1.13715">
        <ele>5.91</ele>
        <time>2012-07-22T08:48:57Z</time>
      </trkpt>
      <trkpt lat="49.87722" lon="1.1372">
        <ele>6.39</ele>
        <time>2012-07-22T08:48:58Z</time>
      </trkpt>
      <trkpt lat="49.87718" lon="1.13725">
        <ele>5.91</ele>
        <time>2012-07-22T08:48:59Z</time>
      </trkpt>
      <trkpt lat="49.87714" lon="1.1373">
        <ele>5.91</ele>
        <time>2012-07-22T08:49:00Z</time>
      </trkpt>
      <trkpt lat="49.87711" lon="1.13735">
        <ele>6.39</ele>
        <time>2012-07-22T08:49:01Z</time>
      </trkpt>
      <trkpt lat="49.8769" lon="1.13766">
        <ele>5.91</ele>
        <time>2012-07-22T08:49:08Z</time>
      </trkpt>
      <trkpt lat="49.87678" lon="1.13783">
        <ele>6.39</ele>
        <time>2012-07-22T08:49:12Z</time>
      </trkpt>
      <trkpt lat="49.87653" lon="1.13825">
        <ele>6.87</ele>
        <time>2012-07-22T08:49:21Z</time>
      </trkpt>
      <trkpt lat="49.8765" lon="1.13826">
        <ele>6.39</ele>
        <time>2012-07-22T08:49:22Z</time>
      </trkpt>
      <trkpt lat="49.87648" lon="1.13828">
        <ele>6.39</ele>
        <time>2012-07-22T08:49:23Z</time>
      </trkpt>
      <trkpt lat="49.87646" lon="1.1383">
        <ele>7.35</ele>
        <time>2012-07-22T08:49:24Z</time>
      </trkpt>
      <trkpt lat="49.87645" lon="1.13833">
        <ele>6.87</ele>
        <time>2012-07-22T08:49:25Z</time>
      </trkpt>
      <trkpt lat="49.87644" lon="1.13836">
        <ele>6.87</ele>
        <time>2012-07-22T08:49:26Z</time>
      </trkpt>
      <trkpt lat="49.87643" lon="1.1384">
        <ele>7.35</ele>
        <time>2012-07-22T08:49:27Z</time>
      </trkpt>
      <trkpt lat="49.87643" lon="1.13844">
        <ele>6.87</ele>
        <time>2012-07-22T08:49:28Z</time>
      </trkpt>
      <trkpt lat="49.87641" lon="1.13848">
        <ele>6.87</ele>
        <time>2012-07-22T08:49:29Z</time>
      </trkpt>
      <trkpt lat="49.8764" lon="1.13851">
        <ele>6.87</ele>
        <time>2012-07-22T08:49:30Z</time>
      </trkpt>
      <trkpt lat="49.87637" lon="1.13853">
        <ele>6.39</ele>
        <time>2012-07-22T08:49:31Z</time>
      </trkpt>
      <trkpt lat="49.87635" lon="1.13856">
        <ele>6.87</ele>
        <time>2012-07-22T08:49:32Z</time>
      </trkpt>
      <trkpt lat="49.87633" lon="1.1386">
        <ele>7.35</ele>
        <time>2012-07-22T08:49:33Z</time>
      </trkpt>
      <trkpt lat="49.8763" lon="1.13866">
        <ele>6.87</ele>
        <time>2012-07-22T08:49:34Z</time>
      </trkpt>
      <trkpt lat="49.87628" lon="1.13871">
        <ele>6.87</ele>
        <time>2012-07-22T08:49:35Z</time>
      </trkpt>
      <trkpt lat="49.87602" lon="1.13922">
        <ele>6.39</ele>
        <time>2012-07-22T08:49:46Z</time>
      </trkpt>
      <trkpt lat="49.87586" lon="1.13952">
        <ele>6.87</ele>
        <time>2012-07-22T08:49:52Z</time>
      </trkpt>
      <trkpt lat="49.87584" lon="1.13957">
        <ele>6.39</ele>
        <time>2012-07-22T08:49:53Z</time>
      </trkpt>
      <trkpt lat="49.8756" lon="1.14024">
        <ele>6.87</ele>
        <time>2012-07-22T08:50:04Z</time>
      </trkpt>
      <trkpt lat="49.87545" lon="1.14071">
        <ele>6.87</ele>
        <time>2012-07-22T08:50:12Z</time>
      </trkpt>
      <trkpt lat="49.87525" lon="1.14146">
        <ele>7.35</ele>
        <time>2012-07-22T08:50:24Z</time>
      </trkpt>
      <trkpt lat="49.87514" lon="1.14187">
        <ele>7.35</ele>
        <time>2012-07-22T08:50:30Z</time>
      </trkpt>
      <trkpt lat="49.87512" lon="1.14194">
        <ele>8.31</ele>
        <time>2012-07-22T08:50:31Z</time>
      </trkpt>
      <trkpt lat="49.875" lon="1.14234">
        <ele>6.87</ele>
        <time>2012-07-22T08:50:37Z</time>
      </trkpt>
      <trkpt lat="49.87497" lon="1.1424">
        <ele>7.35</ele>
        <time>2012-07-22T08:50:38Z</time>
      </trkpt>
      <trkpt lat="49.87495" lon="1.14246">
        <ele>7.83</ele>
        <time>2012-07-22T08:50:39Z</time>
      </trkpt>
      <trkpt lat="49.87489" lon="1.14258">
        <ele>7.83</ele>
        <time>2012-07-22T08:50:41Z</time>
      </trkpt>
      <trkpt lat="49.87487" lon="1.14264">
        <ele>7.83</ele>
        <time>2012-07-22T08:50:42Z</time>
      </trkpt>
      <trkpt lat="49.87486" lon="1.1427">
        <ele>7.83</ele>
        <time>2012-07-22T08:50:43Z</time>
      </trkpt>
      <trkpt lat="49.87485" lon="1.14277">
        <ele>7.35</ele>
        <time>2012-07-22T08:50:44Z</time>
      </trkpt>
      <trkpt lat="49.87486" lon="1.14284">
        <ele>7.35</ele>
        <time>2012-07-22T08:50:45Z</time>
      </trkpt>
      <trkpt lat="49.87486" lon="1.14292">
        <ele>6.87</ele>
        <time>2012-07-22T08:50:46Z</time>
      </trkpt>
      <trkpt lat="49.87487" lon="1.14299">
        <ele>7.35</ele>
        <time>2012-07-22T08:50:47Z</time>
      </trkpt>
      <trkpt lat="49.87487" lon="1.14307">
        <ele>6.87</ele>
        <time>2012-07-22T08:50:48Z</time>
      </trkpt>
      <trkpt lat="49.87486" lon="1.14321">
        <ele>7.35</ele>
        <time>2012-07-22T08:50:50Z</time>
      </trkpt>
      <trkpt lat="49.87485" lon="1.14328">
        <ele>7.83</ele>
        <time>2012-07-22T08:50:51Z</time>
      </trkpt>
      <trkpt lat="49.87484" lon="1.14336">
        <ele>6.87</ele>
        <time>2012-07-22T08:50:52Z</time>
      </trkpt>
      <trkpt lat="49.87483" lon="1.14343">
        <ele>6.39</ele>
        <time>2012-07-22T08:50:53Z</time>
      </trkpt>
      <trkpt lat="49.87482" lon="1.14351">
        <ele>6.87</ele>
        <time>2012-07-22T08:50:54Z</time>
      </trkpt>
      <trkpt lat="49.87481" lon="1.14358">
        <ele>6.87</ele>
        <time>2012-07-22T08:50:55Z</time>
      </trkpt>
      <trkpt lat="49.8748" lon="1.14365">
        <ele>6.39</ele>
        <time>2012-07-22T08:50:56Z</time>
      </trkpt>
      <trkpt lat="49.87479" lon="1.14373">
        <ele>6.39</ele>
        <time>2012-07-22T08:50:57Z</time>
      </trkpt>
      <trkpt lat="49.87477" lon="1.14387">
        <ele>6.87</ele>
        <time>2012-07-22T08:50:59Z</time>
      </trkpt>
      <trkpt lat="49.87475" lon="1.14416">
        <ele>6.39</ele>
        <time>2012-07-22T08:51:03Z</time>
      </trkpt>
      <trkpt lat="49.87476" lon="1.14444">
        <ele>6.87</ele>
        <time>2012-07-22T08:51:07Z</time>
      </trkpt>
      <trkpt lat="49.87465" lon="1.14529">
        <ele>6.87</ele>
        <time>2012-07-22T08:51:19Z</time>
      </trkpt>
      <trkpt lat="49.8745" lon="1.14592">
        <ele>6.87</ele>
        <time>2012-07-22T08:51:29Z</time>
      </trkpt>
      <trkpt lat="49.87442" lon="1.14625">
        <ele>7.83</ele>
        <time>2012-07-22T08:51:36Z</time>
      </trkpt>
      <trkpt lat="49.87442" lon="1.14627">
        <ele>7.83</ele>
        <time>2012-07-22T08:51:37Z</time>
      </trkpt>
      <trkpt lat="49.87442" lon="1.14629">
        <ele>8.31</ele>
        <time>2012-07-22T08:51:38Z</time>
      </trkpt>
      <trkpt lat="49.87441" lon="1.14632">
        <ele>8.31</ele>
        <time>2012-07-22T08:51:39Z</time>
      </trkpt>
      <trkpt lat="49.8744" lon="1.14635">
        <ele>7.83</ele>
        <time>2012-07-22T08:51:40Z</time>
      </trkpt>
      <trkpt lat="49.87438" lon="1.14638">
        <ele>8.79</ele>
        <time>2012-07-22T08:51:41Z</time>
      </trkpt>
      <trkpt lat="49.87435" lon="1.14642">
        <ele>8.31</ele>
        <time>2012-07-22T08:51:42Z</time>
      </trkpt>
      <trkpt lat="49.87433" lon="1.14645">
        <ele>8.31</ele>
        <time>2012-07-22T08:51:43Z</time>
      </trkpt>
      <trkpt lat="49.87431" lon="1.14649">
        <ele>8.31</ele>
        <time>2012-07-22T08:51:44Z</time>
      </trkpt>
      <trkpt lat="49.87431" lon="1.14654">
        <ele>8.31</ele>
        <time>2012-07-22T08:51:45Z</time>
      </trkpt>
      <trkpt lat="49.8743" lon="1.14659">
        <ele>7.83</ele>
        <time>2012-07-22T08:51:46Z</time>
      </trkpt>
      <trkpt lat="49.87429" lon="1.14664">
        <ele>8.79</ele>
        <time>2012-07-22T08:51:47Z</time>
      </trkpt>
      <trkpt lat="49.87428" lon="1.14669">
        <ele>8.31</ele>
        <time>2012-07-22T08:51:48Z</time>
      </trkpt>
      <trkpt lat="49.87426" lon="1.14674">
        <ele>8.31</ele>
        <time>2012-07-22T08:51:49Z</time>
      </trkpt>
      <trkpt lat="49.87407" lon="1.14719">
        <ele>7.83</ele>
        <time>2012-07-22T08:51:59Z</time>
      </trkpt>
      <trkpt lat="49.87403" lon="1.1473">
        <ele>7.83</ele>
        <time>2012-07-22T08:52:01Z</time>
      </trkpt>
      <trkpt lat="49.874" lon="1.14736">
        <ele>7.83</ele>
        <time>2012-07-22T08:52:02Z</time>
      </trkpt>
      <trkpt lat="49.87398" lon="1.14742">
        <ele>8.79</ele>
        <time>2012-07-22T08:52:03Z</time>
      </trkpt>
      <trkpt lat="49.87396" lon="1.14748">
        <ele>7.35</ele>
        <time>2012-07-22T08:52:04Z</time>
      </trkpt>
      <trkpt lat="49.87394" lon="1.14755">
        <ele>8.31</ele>
        <time>2012-07-22T08:52:05Z</time>
      </trkpt>
      <trkpt lat="49.87389" lon="1.14774">
        <ele>8.31</ele>
        <time>2012-07-22T08:52:08Z</time>
      </trkpt>
      <trkpt lat="49.87386" lon="1.14779">
        <ele>7.83</ele>
        <time>2012-07-22T08:52:09Z</time>
      </trkpt>
      <trkpt lat="49.87383" lon="1.14784">
        <ele>8.31</ele>
        <time>2012-07-22T08:52:10Z</time>
      </trkpt>
      <trkpt lat="49.87379" lon="1.14786">
        <ele>7.83</ele>
        <time>2012-07-22T08:52:11Z</time>
      </trkpt>
      <trkpt lat="49.87362" lon="1.14783">
        <ele>7.83</ele>
        <time>2012-07-22T08:52:15Z</time>
      </trkpt>
      <trkpt lat="49.87345" lon="1.14779">
        <ele>7.83</ele>
        <time>2012-07-22T08:52:19Z</time>
      </trkpt>
      <trkpt lat="49.87341" lon="1.14781">
        <ele>7.83</ele>
        <time>2012-07-22T08:52:20Z</time>
      </trkpt>
      <trkpt lat="49.87338" lon="1.14785">
        <ele>7.35</ele>
        <time>2012-07-22T08:52:21Z</time>
      </trkpt>
      <trkpt lat="49.87336" lon="1.14791">
        <ele>8.79</ele>
        <time>2012-07-22T08:52:22Z</time>
      </trkpt>
      <trkpt lat="49.87335" lon="1.14796">
        <ele>7.83</ele>
        <time>2012-07-22T08:52:23Z</time>
      </trkpt>
      <trkpt lat="49.87316" lon="1.14862">
        <ele>7.83</ele>
        <time>2012-07-22T08:52:35Z</time>
      </trkpt>
      <trkpt lat="49.87298" lon="1.14931">
        <ele>8.79</ele>
        <time>2012-07-22T08:52:47Z</time>
      </trkpt>
      <trkpt lat="49.87295" lon="1.14943">
        <ele>8.79</ele>
        <time>2012-07-22T08:52:49Z</time>
      </trkpt>
      <trkpt lat="49.87282" lon="1.1503">
        <ele>8.31</ele>
        <time>2012-07-22T08:53:02Z</time>
      </trkpt>
      <trkpt lat="49.87277" lon="1.1505">
        <ele>8.79</ele>
        <time>2012-07-22T08:53:05Z</time>
      </trkpt>
      <trkpt lat="49.87274" lon="1.15055">
        <ele>8.79</ele>
        <time>2012-07-22T08:53:06Z</time>
      </trkpt>
      <trkpt lat="49.87247" lon="1.15063">
        <ele>8.31</ele>
        <time>2012-07-22T08:53:12Z</time>
      </trkpt>
      <trkpt lat="49.8721" lon="1.1506">
        <ele>8.31</ele>
        <time>2012-07-22T08:53:21Z</time>
      </trkpt>
      <trkpt lat="49.872" lon="1.15085">
        <ele>7.35</ele>
        <time>2012-07-22T08:53:27Z</time>
      </trkpt>
      <trkpt lat="49.87192" lon="1.15147">
        <ele>7.83</ele>
        <time>2012-07-22T08:53:37Z</time>
      </trkpt>
      <trkpt lat="49.87175" lon="1.15244">
        <ele>7.83</ele>
        <time>2012-07-22T08:53:51Z</time>
      </trkpt>
      <trkpt lat="49.87161" lon="1.15322">
        <ele>7.35</ele>
        <time>2012-07-22T08:54:02Z</time>
      </trkpt>
      <trkpt lat="49.8715" lon="1.15386">
        <ele>7.83</ele>
        <time>2012-07-22T08:54:11Z</time>
      </trkpt>
      <trkpt lat="49.87149" lon="1.15393">
        <ele>7.83</ele>
        <time>2012-07-22T08:54:12Z</time>
      </trkpt>
      <trkpt lat="49.87147" lon="1.15408">
        <ele>8.31</ele>
        <time>2012-07-22T08:54:14Z</time>
      </trkpt>
      <trkpt lat="49.87146" lon="1.15415">
        <ele>7.83</ele>
        <time>2012-07-22T08:54:15Z</time>
      </trkpt>
      <trkpt lat="49.87143" lon="1.1543">
        <ele>7.83</ele>
        <time>2012-07-22T08:54:17Z</time>
      </trkpt>
      <trkpt lat="49.87142" lon="1.15437">
        <ele>7.35</ele>
        <time>2012-07-22T08:54:18Z</time>
      </trkpt>
      <trkpt lat="49.87142" lon="1.15452">
        <ele>6.87</ele>
        <time>2012-07-22T08:54:20Z</time>
      </trkpt>
      <trkpt lat="49.87149" lon="1.15477">
        <ele>7.83</ele>
        <time>2012-07-22T08:54:24Z</time>
      </trkpt>
      <trkpt lat="49.87169" lon="1.1551">
        <ele>8.31</ele>
        <time>2012-07-22T08:54:31Z</time>
      </trkpt>
      <trkpt lat="49.87172" lon="1.15512">
        <ele>8.31</ele>
        <time>2012-07-22T08:54:32Z</time>
      </trkpt>
      <trkpt lat="49.87177" lon="1.15514">
        <ele>8.31</ele>
        <time>2012-07-22T08:54:33Z</time>
      </trkpt>
      <trkpt lat="49.87186" lon="1.15516">
        <ele>8.31</ele>
        <time>2012-07-22T08:54:35Z</time>
      </trkpt>
      <trkpt lat="49.87191" lon="1.15516">
        <ele>8.31</ele>
        <time>2012-07-22T08:54:36Z</time>
      </trkpt>
      <trkpt lat="49.87196" lon="1.15516">
        <ele>7.83</ele>
        <time>2012-07-22T08:54:37Z</time>
      </trkpt>
      <trkpt lat="49.87201" lon="1.15516">
        <ele>8.31</ele>
        <time>2012-07-22T08:54:38Z</time>
      </trkpt>
      <trkpt lat="49.87206" lon="1.15515">
        <ele>8.79</ele>
        <time>2012-07-22T08:54:39Z</time>
      </trkpt>
      <trkpt lat="49.87251" lon="1.15502">
        <ele>8.31</ele>
        <time>2012-07-22T08:54:49Z</time>
      </trkpt>
      <trkpt lat="49.8727" lon="1.15497">
        <ele>8.31</ele>
        <time>2012-07-22T08:54:53Z</time>
      </trkpt>
      <trkpt lat="49.87274" lon="1.15498">
        <ele>8.31</ele>
        <time>2012-07-22T08:54:54Z</time>
      </trkpt>
      <trkpt lat="49.87287" lon="1.15523">
        <ele>7.83</ele>
        <time>2012-07-22T08:54:59Z</time>
      </trkpt>
      <trkpt lat="49.87298" lon="1.15554">
        <ele>8.31</ele>
        <time>2012-07-22T08:55:04Z</time>
      </trkpt>
      <trkpt lat="49.87304" lon="1.15566">
        <ele>8.31</ele>
        <time>2012-07-22T08:55:06Z</time>
      </trkpt>
      <trkpt lat="49.87311" lon="1.15608">
        <ele>8.79</ele>
        <time>2012-07-22T08:55:12Z</time>
      </trkpt>
      <trkpt lat="49.87313" lon="1.15629">
        <ele>8.31</ele>
        <time>2012-07-22T08:55:15Z</time>
      </trkpt>
      <trkpt lat="49.87315" lon="1.15636">
        <ele>8.31</ele>
        <time>2012-07-22T08:55:16Z</time>
      </trkpt>
      <trkpt lat="49.87319" lon="1.15642">
        <ele>7.83</ele>
        <time>2012-07-22T08:55:17Z</time>
      </trkpt>
      <trkpt lat="49.87322" lon="1.15647">
        <ele>8.79</ele>
        <time>2012-07-22T08:55:18Z</time>
      </trkpt>
      <trkpt lat="49.87326" lon="1.15653">
        <ele>8.79</ele>
        <time>2012-07-22T08:55:19Z</time>
      </trkpt>
      <trkpt lat="49.87366" lon="1.1571">
        <ele>9.75</ele>
        <time>2012-07-22T08:55:32Z</time>
      </trkpt>
      <trkpt lat="49.87372" lon="1.15714">
        <ele>9.75</ele>
        <time>2012-07-22T08:55:36Z</time>
      </trkpt>
      <trkpt lat="49.87373" lon="1.15716">
        <ele>9.27</ele>
        <time>2012-07-22T08:55:37Z</time>
      </trkpt>
      <trkpt lat="49.87375" lon="1.15718">
        <ele>9.75</ele>
        <time>2012-07-22T08:55:38Z</time>
      </trkpt>
      <trkpt lat="49.87378" lon="1.15721">
        <ele>9.75</ele>
        <time>2012-07-22T08:55:39Z</time>
      </trkpt>
      <trkpt lat="49.87379" lon="1.15725">
        <ele>9.75</ele>
        <time>2012-07-22T08:55:40Z</time>
      </trkpt>
      <trkpt lat="49.87379" lon="1.15731">
        <ele>9.75</ele>
        <time>2012-07-22T08:55:41Z</time>
      </trkpt>
      <trkpt lat="49.87378" lon="1.15737">
        <ele>9.75</ele>
        <time>2012-07-22T08:55:42Z</time>
      </trkpt>
      <trkpt lat="49.87375" lon="1.15777">
        <ele>9.75</ele>
        <time>2012-07-22T08:55:49Z</time>
      </trkpt>
      <trkpt lat="49.87377" lon="1.1578">
        <ele>9.75</ele>
        <time>2012-07-22T08:55:50Z</time>
      </trkpt>
      <trkpt lat="49.8738" lon="1.1578">
        <ele>10.23</ele>
        <time>2012-07-22T08:55:51Z</time>
      </trkpt>
      <trkpt lat="49.87383" lon="1.15781">
        <ele>10.23</ele>
        <time>2012-07-22T08:55:52Z</time>
      </trkpt>
      <trkpt lat="49.87385" lon="1.15782">
        <ele>10.23</ele>
        <time>2012-07-22T08:55:53Z</time>
      </trkpt>
      <trkpt lat="49.87386" lon="1.15786">
        <ele>10.23</ele>
        <time>2012-07-22T08:55:54Z</time>
      </trkpt>
      <trkpt lat="49.87385" lon="1.15789">
        <ele>10.23</ele>
        <time>2012-07-22T08:55:55Z</time>
      </trkpt>
      <trkpt lat="49.87385" lon="1.15793">
        <ele>10.71</ele>
        <time>2012-07-22T08:55:56Z</time>
      </trkpt>
      <trkpt lat="49.87384" lon="1.15796">
        <ele>10.23</ele>
        <time>2012-07-22T08:55:57Z</time>
      </trkpt>
      <trkpt lat="49.87384" lon="1.158">
        <ele>10.23</ele>
        <time>2012-07-22T08:55:58Z</time>
      </trkpt>
      <trkpt lat="49.87383" lon="1.15804">
        <ele>10.71</ele>
        <time>2012-07-22T08:55:59Z</time>
      </trkpt>
      <trkpt lat="49.87376" lon="1.15853">
        <ele>10.71</ele>
        <time>2012-07-22T08:56:08Z</time>
      </trkpt>
      <trkpt lat="49.87375" lon="1.15859">
        <ele>10.23</ele>
        <time>2012-07-22T08:56:09Z</time>
      </trkpt>
      <trkpt lat="49.87373" lon="1.15864">
        <ele>10.23</ele>
        <time>2012-07-22T08:56:10Z</time>
      </trkpt>
      <trkpt lat="49.8736" lon="1.15919">
        <ele>10.71</ele>
        <time>2012-07-22T08:56:19Z</time>
      </trkpt>
      <trkpt lat="49.87356" lon="1.15951">
        <ele>10.23</ele>
        <time>2012-07-22T08:56:24Z</time>
      </trkpt>
      <trkpt lat="49.87353" lon="1.15971">
        <ele>10.23</ele>
        <time>2012-07-22T08:56:27Z</time>
      </trkpt>
      <trkpt lat="49.8734" lon="1.16057">
        <ele>10.23</ele>
        <time>2012-07-22T08:56:39Z</time>
      </trkpt>
      <trkpt lat="49.87338" lon="1.16064">
        <ele>10.71</ele>
        <time>2012-07-22T08:56:40Z</time>
      </trkpt>
      <trkpt lat="49.87337" lon="1.16071">
        <ele>10.23</ele>
        <time>2012-07-22T08:56:41Z</time>
      </trkpt>
      <trkpt lat="49.87319" lon="1.16163">
        <ele>10.23</ele>
        <time>2012-07-22T08:56:54Z</time>
      </trkpt>
      <trkpt lat="49.8731" lon="1.16212">
        <ele>11.19</ele>
        <time>2012-07-22T08:57:01Z</time>
      </trkpt>
      <trkpt lat="49.87309" lon="1.16219">
        <ele>11.67</ele>
        <time>2012-07-22T08:57:02Z</time>
      </trkpt>
      <trkpt lat="49.87308" lon="1.16227">
        <ele>11.67</ele>
        <time>2012-07-22T08:57:03Z</time>
      </trkpt>
      <trkpt lat="49.87296" lon="1.16292">
        <ele>11.19</ele>
        <time>2012-07-22T08:57:12Z</time>
      </trkpt>
      <trkpt lat="49.87294" lon="1.16305">
        <ele>11.19</ele>
        <time>2012-07-22T08:57:14Z</time>
      </trkpt>
      <trkpt lat="49.87287" lon="1.16333">
        <ele>11.67</ele>
        <time>2012-07-22T08:57:18Z</time>
      </trkpt>
      <trkpt lat="49.87285" lon="1.1634">
        <ele>11.67</ele>
        <time>2012-07-22T08:57:19Z</time>
      </trkpt>
      <trkpt lat="49.87283" lon="1.16347">
        <ele>11.19</ele>
        <time>2012-07-22T08:57:20Z</time>
      </trkpt>
      <trkpt lat="49.87282" lon="1.16354">
        <ele>11.19</ele>
        <time>2012-07-22T08:57:21Z</time>
      </trkpt>
      <trkpt lat="49.8728" lon="1.16361">
        <ele>11.67</ele>
        <time>2012-07-22T08:57:22Z</time>
      </trkpt>
      <trkpt lat="49.87278" lon="1.16367">
        <ele>11.19</ele>
        <time>2012-07-22T08:57:23Z</time>
      </trkpt>
      <trkpt lat="49.8726" lon="1.16424">
        <ele>10.71</ele>
        <time>2012-07-22T08:57:32Z</time>
      </trkpt>
      <trkpt lat="49.8724" lon="1.16481">
        <ele>12.15</ele>
        <time>2012-07-22T08:57:41Z</time>
      </trkpt>
      <trkpt lat="49.87208" lon="1.16562">
        <ele>11.67</ele>
        <time>2012-07-22T08:57:53Z</time>
      </trkpt>
      <trkpt lat="49.87191" lon="1.16605">
        <ele>11.67</ele>
        <time>2012-07-22T08:58:00Z</time>
      </trkpt>
      <trkpt lat="49.87176" lon="1.16632">
        <ele>11.67</ele>
        <time>2012-07-22T08:58:05Z</time>
      </trkpt>
      <trkpt lat="49.87174" lon="1.16638">
        <ele>12.15</ele>
        <time>2012-07-22T08:58:06Z</time>
      </trkpt>
      <trkpt lat="49.87171" lon="1.16643">
        <ele>11.67</ele>
        <time>2012-07-22T08:58:07Z</time>
      </trkpt>
      <trkpt lat="49.87169" lon="1.16649">
        <ele>11.67</ele>
        <time>2012-07-22T08:58:08Z</time>
      </trkpt>
      <trkpt lat="49.87166" lon="1.16654">
        <ele>12.15</ele>
        <time>2012-07-22T08:58:09Z</time>
      </trkpt>
      <trkpt lat="49.87163" lon="1.1666">
        <ele>12.15</ele>
        <time>2012-07-22T08:58:10Z</time>
      </trkpt>
      <trkpt lat="49.87124" lon="1.16733">
        <ele>11.67</ele>
        <time>2012-07-22T08:58:22Z</time>
      </trkpt>
      <trkpt lat="49.87099" lon="1.1678">
        <ele>12.15</ele>
        <time>2012-07-22T08:58:31Z</time>
      </trkpt>
      <trkpt lat="49.87096" lon="1.16785">
        <ele>12.15</ele>
        <time>2012-07-22T08:58:32Z</time>
      </trkpt>
      <trkpt lat="49.87093" lon="1.16789">
        <ele>12.63</ele>
        <time>2012-07-22T08:58:33Z</time>
      </trkpt>
      <trkpt lat="49.87079" lon="1.16816">
        <ele>12.15</ele>
        <time>2012-07-22T08:58:38Z</time>
      </trkpt>
      <trkpt lat="49.87061" lon="1.16858">
        <ele>11.67</ele>
        <time>2012-07-22T08:58:45Z</time>
      </trkpt>
      <trkpt lat="49.87039" lon="1.16905">
        <ele>11.67</ele>
        <time>2012-07-22T08:58:53Z</time>
      </trkpt>
      <trkpt lat="49.87036" lon="1.16911">
        <ele>12.15</ele>
        <time>2012-07-22T08:58:54Z</time>
      </trkpt>
      <trkpt lat="49.87034" lon="1.16917">
        <ele>11.67</ele>
        <time>2012-07-22T08:58:55Z</time>
      </trkpt>
      <trkpt lat="49.87032" lon="1.16923">
        <ele>12.15</ele>
        <time>2012-07-22T08:58:56Z</time>
      </trkpt>
      <trkpt lat="49.87008" lon="1.16998">
        <ele>12.15</ele>
        <time>2012-07-22T08:59:07Z</time>
      </trkpt>
      <trkpt lat="49.86997" lon="1.17032">
        <ele>12.15</ele>
        <time>2012-07-22T08:59:12Z</time>
      </trkpt>
      <trkpt lat="49.86969" lon="1.17127">
        <ele>13.12</ele>
        <time>2012-07-22T08:59:25Z</time>
      </trkpt>
      <trkpt lat="49.86965" lon="1.17141">
        <ele>12.63</ele>
        <time>2012-07-22T08:59:27Z</time>
      </trkpt>
      <trkpt lat="49.86964" lon="1.17149">
        <ele>12.63</ele>
        <time>2012-07-22T08:59:28Z</time>
      </trkpt>
      <trkpt lat="49.86961" lon="1.1717">
        <ele>12.63</ele>
        <time>2012-07-22T08:59:31Z</time>
      </trkpt>
      <trkpt lat="49.86959" lon="1.17177">
        <ele>12.63</ele>
        <time>2012-07-22T08:59:32Z</time>
      </trkpt>
      <trkpt lat="49.86926" lon="1.17282">
        <ele>12.63</ele>
        <time>2012-07-22T08:59:48Z</time>
      </trkpt>
      <trkpt lat="49.86918" lon="1.17307">
        <ele>13.12</ele>
        <time>2012-07-22T08:59:52Z</time>
      </trkpt>
      <trkpt lat="49.86907" lon="1.17345">
        <ele>13.12</ele>
        <time>2012-07-22T08:59:58Z</time>
      </trkpt>
      <trkpt lat="49.86885" lon="1.17419">
        <ele>13.12</ele>
        <time>2012-07-22T09:00:09Z</time>
      </trkpt>
      <trkpt lat="49.86861" lon="1.175">
        <ele>13.12</ele>
        <time>2012-07-22T09:00:21Z</time>
      </trkpt>
      <trkpt lat="49.86836" lon="1.17579">
        <ele>13.6</ele>
        <time>2012-07-22T09:00:33Z</time>
      </trkpt>
      <trkpt lat="49.86829" lon="1.17606">
        <ele>13.6</ele>
        <time>2012-07-22T09:00:37Z</time>
      </trkpt>
      <trkpt lat="49.86827" lon="1.17613">
        <ele>14.08</ele>
        <time>2012-07-22T09:00:38Z</time>
      </trkpt>
      <trkpt lat="49.86821" lon="1.17633">
        <ele>14.08</ele>
        <time>2012-07-22T09:00:41Z</time>
      </trkpt>
      <trkpt lat="49.86804" lon="1.17684">
        <ele>13.6</ele>
        <time>2012-07-22T09:00:49Z</time>
      </trkpt>
      <trkpt lat="49.86785" lon="1.17745">
        <ele>14.08</ele>
        <time>2012-07-22T09:00:58Z</time>
      </trkpt>
      <trkpt lat="49.86783" lon="1.17753">
        <ele>14.56</ele>
        <time>2012-07-22T09:00:59Z</time>
      </trkpt>
      <trkpt lat="49.86781" lon="1.17759">
        <ele>14.56</ele>
        <time>2012-07-22T09:01:00Z</time>
      </trkpt>
      <trkpt lat="49.86761" lon="1.17818">
        <ele>14.56</ele>
        <time>2012-07-22T09:01:11Z</time>
      </trkpt>
      <trkpt lat="49.86748" lon="1.17846">
        <ele>15.04</ele>
        <time>2012-07-22T09:01:19Z</time>
      </trkpt>
      <trkpt lat="49.86735" lon="1.17881">
        <ele>14.08</ele>
        <time>2012-07-22T09:01:28Z</time>
      </trkpt>
      <trkpt lat="49.86715" lon="1.17941">
        <ele>14.56</ele>
        <time>2012-07-22T09:01:39Z</time>
      </trkpt>
      <trkpt lat="49.86683" lon="1.18033">
        <ele>14.08</ele>
        <time>2012-07-22T09:01:54Z</time>
      </trkpt>
      <trkpt lat="49.86653" lon="1.18116">
        <ele>13.6</ele>
        <time>2012-07-22T09:02:07Z</time>
      </trkpt>
      <trkpt lat="49.86623" lon="1.18194">
        <ele>14.08</ele>
        <time>2012-07-22T09:02:19Z</time>
      </trkpt>
      <trkpt lat="49.86593" lon="1.1828">
        <ele>14.56</ele>
        <time>2012-07-22T09:02:32Z</time>
      </trkpt>
      <trkpt lat="49.86568" lon="1.18353">
        <ele>15.04</ele>
        <time>2012-07-22T09:02:43Z</time>
      </trkpt>
      <trkpt lat="49.86549" lon="1.18404">
        <ele>15.52</ele>
        <time>2012-07-22T09:02:51Z</time>
      </trkpt>
      <trkpt lat="49.86518" lon="1.18494">
        <ele>16</ele>
        <time>2012-07-22T09:03:04Z</time>
      </trkpt>
      <trkpt lat="49.86489" lon="1.18593">
        <ele>16</ele>
        <time>2012-07-22T09:03:18Z</time>
      </trkpt>
      <trkpt lat="49.8646" lon="1.18681">
        <ele>16.48</ele>
        <time>2012-07-22T09:03:31Z</time>
      </trkpt>
      <trkpt lat="49.86435" lon="1.18763">
        <ele>16.96</ele>
        <time>2012-07-22T09:03:44Z</time>
      </trkpt>
      <trkpt lat="49.86433" lon="1.18769">
        <ele>16.96</ele>
        <time>2012-07-22T09:03:45Z</time>
      </trkpt>
      <trkpt lat="49.8643" lon="1.18781">
        <ele>16.96</ele>
        <time>2012-07-22T09:03:47Z</time>
      </trkpt>
      <trkpt lat="49.86429" lon="1.18788">
        <ele>16.96</ele>
        <time>2012-07-22T09:03:48Z</time>
      </trkpt>
      <trkpt lat="49.86414" lon="1.18837">
        <ele>18.4</ele>
        <time>2012-07-22T09:03:58Z</time>
      </trkpt>
      <trkpt lat="49.86405" lon="1.18878">
        <ele>17.44</ele>
        <time>2012-07-22T09:04:08Z</time>
      </trkpt>
      <trkpt lat="49.86389" lon="1.18934">
        <ele>17.92</ele>
        <time>2012-07-22T09:04:20Z</time>
      </trkpt>
      <trkpt lat="49.86369" lon="1.18995">
        <ele>17.92</ele>
        <time>2012-07-22T09:04:32Z</time>
      </trkpt>
      <trkpt lat="49.86345" lon="1.19068">
        <ele>18.4</ele>
        <time>2012-07-22T09:04:44Z</time>
      </trkpt>
      <trkpt lat="49.86313" lon="1.19148">
        <ele>19.36</ele>
        <time>2012-07-22T09:04:57Z</time>
      </trkpt>
      <trkpt lat="49.86281" lon="1.19229">
        <ele>19.36</ele>
        <time>2012-07-22T09:05:10Z</time>
      </trkpt>
      <trkpt lat="49.86246" lon="1.1931">
        <ele>20.32</ele>
        <time>2012-07-22T09:05:23Z</time>
      </trkpt>
      <trkpt lat="49.86218" lon="1.19385">
        <ele>20.81</ele>
        <time>2012-07-22T09:05:35Z</time>
      </trkpt>
      <trkpt lat="49.86185" lon="1.1947">
        <ele>21.77</ele>
        <time>2012-07-22T09:05:49Z</time>
      </trkpt>
      <trkpt lat="49.86177" lon="1.19489">
        <ele>22.25</ele>
        <time>2012-07-22T09:05:52Z</time>
      </trkpt>
      <trkpt lat="49.86175" lon="1.19495">
        <ele>21.77</ele>
        <time>2012-07-22T09:05:53Z</time>
      </trkpt>
      <trkpt lat="49.8615" lon="1.19572">
        <ele>22.25</ele>
        <time>2012-07-22T09:06:05Z</time>
      </trkpt>
      <trkpt lat="49.86129" lon="1.19659">
        <ele>22.25</ele>
        <time>2012-07-22T09:06:18Z</time>
      </trkpt>
      <trkpt lat="49.86102" lon="1.19747">
        <ele>23.69</ele>
        <time>2012-07-22T09:06:32Z</time>
      </trkpt>
      <trkpt lat="49.8608" lon="1.19827">
        <ele>24.65</ele>
        <time>2012-07-22T09:06:46Z</time>
      </trkpt>
      <trkpt lat="49.86069" lon="1.19874">
        <ele>24.65</ele>
        <time>2012-07-22T09:06:56Z</time>
      </trkpt>
      <trkpt lat="49.8605" lon="1.19942">
        <ele>24.17</ele>
        <time>2012-07-22T09:07:08Z</time>
      </trkpt>
      <trkpt lat="49.86024" lon="1.20018">
        <ele>25.13</ele>
        <time>2012-07-22T09:07:21Z</time>
      </trkpt>
      <trkpt lat="49.86019" lon="1.20031">
        <ele>25.13</ele>
        <time>2012-07-22T09:07:23Z</time>
      </trkpt>
      <trkpt lat="49.85989" lon="1.20104">
        <ele>24.65</ele>
        <time>2012-07-22T09:07:35Z</time>
      </trkpt>
      <trkpt lat="49.85957" lon="1.20195">
        <ele>24.17</ele>
        <time>2012-07-22T09:07:50Z</time>
      </trkpt>
      <trkpt lat="49.85919" lon="1.20286">
        <ele>24.65</ele>
        <time>2012-07-22T09:08:06Z</time>
      </trkpt>
      <trkpt lat="49.85914" lon="1.20297">
        <ele>25.61</ele>
        <time>2012-07-22T09:08:08Z</time>
      </trkpt>
      <trkpt lat="49.85898" lon="1.20332">
        <ele>25.13</ele>
        <time>2012-07-22T09:08:17Z</time>
      </trkpt>
      <trkpt lat="49.85873" lon="1.20397">
        <ele>25.13</ele>
        <time>2012-07-22T09:08:28Z</time>
      </trkpt>
      <trkpt lat="49.8586" lon="1.20428">
        <ele>25.13</ele>
        <time>2012-07-22T09:08:33Z</time>
      </trkpt>
      <trkpt lat="49.85825" lon="1.20503">
        <ele>25.13</ele>
        <time>2012-07-22T09:08:46Z</time>
      </trkpt>
      <trkpt lat="49.85782" lon="1.20579">
        <ele>24.65</ele>
        <time>2012-07-22T09:09:00Z</time>
      </trkpt>
      <trkpt lat="49.85745" lon="1.20632">
        <ele>24.65</ele>
        <time>2012-07-22T09:09:10Z</time>
      </trkpt>
      <trkpt lat="49.8573" lon="1.20652">
        <ele>24.17</ele>
        <time>2012-07-22T09:09:14Z</time>
      </trkpt>
      <trkpt lat="49.85688" lon="1.20703">
        <ele>24.17</ele>
        <time>2012-07-22T09:09:25Z</time>
      </trkpt>
      <trkpt lat="49.85633" lon="1.20761">
        <ele>24.17</ele>
        <time>2012-07-22T09:09:38Z</time>
      </trkpt>
      <trkpt lat="49.85579" lon="1.20814">
        <ele>24.17</ele>
        <time>2012-07-22T09:09:50Z</time>
      </trkpt>
      <trkpt lat="49.8552" lon="1.20879">
        <ele>23.69</ele>
        <time>2012-07-22T09:10:03Z</time>
      </trkpt>
      <trkpt lat="49.85454" lon="1.20944">
        <ele>23.21</ele>
        <time>2012-07-22T09:10:17Z</time>
      </trkpt>
      <trkpt lat="49.8541" lon="1.20995">
        <ele>23.21</ele>
        <time>2012-07-22T09:10:27Z</time>
      </trkpt>
      <trkpt lat="49.85346" lon="1.21061">
        <ele>22.73</ele>
        <time>2012-07-22T09:10:41Z</time>
      </trkpt>
      <trkpt lat="49.85284" lon="1.21125">
        <ele>22.73</ele>
        <time>2012-07-22T09:10:54Z</time>
      </trkpt>
      <trkpt lat="49.85239" lon="1.21175">
        <ele>22.73</ele>
        <time>2012-07-22T09:11:04Z</time>
      </trkpt>
      <trkpt lat="49.85165" lon="1.2125">
        <ele>22.25</ele>
        <time>2012-07-22T09:11:19Z</time>
      </trkpt>
      <trkpt lat="49.85116" lon="1.21299">
        <ele>22.73</ele>
        <time>2012-07-22T09:11:29Z</time>
      </trkpt>
      <trkpt lat="49.85093" lon="1.21327">
        <ele>22.73</ele>
        <time>2012-07-22T09:11:34Z</time>
      </trkpt>
      <trkpt lat="49.85088" lon="1.21333">
        <ele>22.25</ele>
        <time>2012-07-22T09:11:35Z</time>
      </trkpt>
      <trkpt lat="49.85028" lon="1.21399">
        <ele>22.73</ele>
        <time>2012-07-22T09:11:48Z</time>
      </trkpt>
      <trkpt lat="49.85018" lon="1.21408">
        <ele>22.25</ele>
        <time>2012-07-22T09:11:50Z</time>
      </trkpt>
      <trkpt lat="49.84974" lon="1.21456">
        <ele>22.25</ele>
        <time>2012-07-22T09:12:00Z</time>
      </trkpt>
      <trkpt lat="49.84944" lon="1.21491">
        <ele>23.21</ele>
        <time>2012-07-22T09:12:09Z</time>
      </trkpt>
      <trkpt lat="49.8494" lon="1.21494">
        <ele>22.73</ele>
        <time>2012-07-22T09:12:10Z</time>
      </trkpt>
      <trkpt lat="49.84933" lon="1.21501">
        <ele>22.73</ele>
        <time>2012-07-22T09:12:12Z</time>
      </trkpt>
      <trkpt lat="49.8493" lon="1.21506">
        <ele>22.73</ele>
        <time>2012-07-22T09:12:13Z</time>
      </trkpt>
      <trkpt lat="49.84906" lon="1.21532">
        <ele>22.73</ele>
        <time>2012-07-22T09:12:20Z</time>
      </trkpt>
      <trkpt lat="49.84902" lon="1.21535">
        <ele>22.73</ele>
        <time>2012-07-22T09:12:21Z</time>
      </trkpt>
      <trkpt lat="49.84866" lon="1.21572">
        <ele>22.73</ele>
        <time>2012-07-22T09:12:31Z</time>
      </trkpt>
      <trkpt lat="49.84807" lon="1.21633">
        <ele>23.21</ele>
        <time>2012-07-22T09:12:45Z</time>
      </trkpt>
      <trkpt lat="49.84751" lon="1.21695">
        <ele>23.21</ele>
        <time>2012-07-22T09:12:58Z</time>
      </trkpt>
      <trkpt lat="49.84705" lon="1.21738">
        <ele>23.69</ele>
        <time>2012-07-22T09:13:08Z</time>
      </trkpt>
      <trkpt lat="49.84683" lon="1.21759">
        <ele>23.69</ele>
        <time>2012-07-22T09:13:13Z</time>
      </trkpt>
      <trkpt lat="49.84679" lon="1.21764">
        <ele>23.21</ele>
        <time>2012-07-22T09:13:14Z</time>
      </trkpt>
      <trkpt lat="49.84675" lon="1.21769">
        <ele>23.69</ele>
        <time>2012-07-22T09:13:15Z</time>
      </trkpt>
      <trkpt lat="49.84622" lon="1.21827">
        <ele>24.17</ele>
        <time>2012-07-22T09:13:28Z</time>
      </trkpt>
      <trkpt lat="49.84568" lon="1.21883">
        <ele>24.17</ele>
        <time>2012-07-22T09:13:40Z</time>
      </trkpt>
      <trkpt lat="49.84523" lon="1.21933">
        <ele>24.65</ele>
        <time>2012-07-22T09:13:50Z</time>
      </trkpt>
      <trkpt lat="49.84491" lon="1.21975">
        <ele>24.65</ele>
        <time>2012-07-22T09:13:58Z</time>
      </trkpt>
      <trkpt lat="49.84479" lon="1.2199">
        <ele>25.13</ele>
        <time>2012-07-22T09:14:01Z</time>
      </trkpt>
      <trkpt lat="49.84475" lon="1.21995">
        <ele>24.65</ele>
        <time>2012-07-22T09:14:02Z</time>
      </trkpt>
      <trkpt lat="49.84433" lon="1.22059">
        <ele>25.13</ele>
        <time>2012-07-22T09:14:14Z</time>
      </trkpt>
      <trkpt lat="49.84419" lon="1.22087">
        <ele>24.65</ele>
        <time>2012-07-22T09:14:22Z</time>
      </trkpt>
      <trkpt lat="49.84417" lon="1.22092">
        <ele>25.13</ele>
        <time>2012-07-22T09:14:23Z</time>
      </trkpt>
      <trkpt lat="49.84379" lon="1.22156">
        <ele>25.13</ele>
        <time>2012-07-22T09:14:35Z</time>
      </trkpt>
      <trkpt lat="49.84365" lon="1.22178">
        <ele>25.13</ele>
        <time>2012-07-22T09:14:39Z</time>
      </trkpt>
      <trkpt lat="49.84317" lon="1.22252">
        <ele>24.65</ele>
        <time>2012-07-22T09:14:52Z</time>
      </trkpt>
      <trkpt lat="49.84268" lon="1.22338">
        <ele>25.61</ele>
        <time>2012-07-22T09:15:07Z</time>
      </trkpt>
      <trkpt lat="49.84218" lon="1.22413">
        <ele>25.61</ele>
        <time>2012-07-22T09:15:20Z</time>
      </trkpt>
      <trkpt lat="49.84162" lon="1.22492">
        <ele>25.61</ele>
        <time>2012-07-22T09:15:35Z</time>
      </trkpt>
      <trkpt lat="49.84107" lon="1.22555">
        <ele>25.13</ele>
        <time>2012-07-22T09:15:48Z</time>
      </trkpt>
      <trkpt lat="49.84057" lon="1.22607">
        <ele>25.61</ele>
        <time>2012-07-22T09:16:00Z</time>
      </trkpt>
      <trkpt lat="49.84006" lon="1.22667">
        <ele>26.09</ele>
        <time>2012-07-22T09:16:13Z</time>
      </trkpt>
      <trkpt lat="49.83963" lon="1.22717">
        <ele>26.09</ele>
        <time>2012-07-22T09:16:24Z</time>
      </trkpt>
      <trkpt lat="49.83915" lon="1.22768">
        <ele>26.57</ele>
        <time>2012-07-22T09:16:36Z</time>
      </trkpt>
      <trkpt lat="49.8388" lon="1.2281">
        <ele>26.09</ele>
        <time>2012-07-22T09:16:45Z</time>
      </trkpt>
      <trkpt lat="49.83876" lon="1.22815">
        <ele>26.09</ele>
        <time>2012-07-22T09:16:46Z</time>
      </trkpt>
      <trkpt lat="49.83817" lon="1.22887">
        <ele>27.05</ele>
        <time>2012-07-22T09:17:01Z</time>
      </trkpt>
      <trkpt lat="49.8379" lon="1.22914">
        <ele>28.02</ele>
        <time>2012-07-22T09:17:11Z</time>
      </trkpt>
      <trkpt lat="49.83777" lon="1.22929">
        <ele>28.02</ele>
        <time>2012-07-22T09:17:20Z</time>
      </trkpt>
      <trkpt lat="49.83756" lon="1.22959">
        <ele>27.05</ele>
        <time>2012-07-22T09:17:31Z</time>
      </trkpt>
      <trkpt lat="49.83739" lon="1.22984">
        <ele>26.57</ele>
        <time>2012-07-22T09:17:37Z</time>
      </trkpt>
      <trkpt lat="49.83733" lon="1.22993">
        <ele>26.57</ele>
        <time>2012-07-22T09:17:39Z</time>
      </trkpt>
      <trkpt lat="49.83704" lon="1.23038">
        <ele>27.53</ele>
        <time>2012-07-22T09:17:49Z</time>
      </trkpt>
      <trkpt lat="49.83694" lon="1.23054">
        <ele>27.53</ele>
        <time>2012-07-22T09:17:53Z</time>
      </trkpt>
      <trkpt lat="49.83691" lon="1.23058">
        <ele>27.05</ele>
        <time>2012-07-22T09:17:54Z</time>
      </trkpt>
      <trkpt lat="49.83661" lon="1.23104">
        <ele>27.53</ele>
        <time>2012-07-22T09:18:03Z</time>
      </trkpt>
      <trkpt lat="49.8364" lon="1.23139">
        <ele>28.02</ele>
        <time>2012-07-22T09:18:10Z</time>
      </trkpt>
      <trkpt lat="49.83592" lon="1.23216">
        <ele>28.02</ele>
        <time>2012-07-22T09:18:25Z</time>
      </trkpt>
      <trkpt lat="49.83557" lon="1.23275">
        <ele>28.5</ele>
        <time>2012-07-22T09:18:36Z</time>
      </trkpt>
      <trkpt lat="49.83537" lon="1.23313">
        <ele>29.46</ele>
        <time>2012-07-22T09:18:43Z</time>
      </trkpt>
      <trkpt lat="49.83534" lon="1.23318">
        <ele>28.5</ele>
        <time>2012-07-22T09:18:44Z</time>
      </trkpt>
      <trkpt lat="49.835" lon="1.23377">
        <ele>28.98</ele>
        <time>2012-07-22T09:18:54Z</time>
      </trkpt>
      <trkpt lat="49.83455" lon="1.23452">
        <ele>29.46</ele>
        <time>2012-07-22T09:19:08Z</time>
      </trkpt>
      <trkpt lat="49.83414" lon="1.23517">
        <ele>28.98</ele>
        <time>2012-07-22T09:19:20Z</time>
      </trkpt>
      <trkpt lat="49.83362" lon="1.23584">
        <ele>29.94</ele>
        <time>2012-07-22T09:19:34Z</time>
      </trkpt>
      <trkpt lat="49.8331" lon="1.23646">
        <ele>29.94</ele>
        <time>2012-07-22T09:19:47Z</time>
      </trkpt>
      <trkpt lat="49.83263" lon="1.23705">
        <ele>30.9</ele>
        <time>2012-07-22T09:19:59Z</time>
      </trkpt>
      <trkpt lat="49.83219" lon="1.23761">
        <ele>31.38</ele>
        <time>2012-07-22T09:20:10Z</time>
      </trkpt>
      <trkpt lat="49.83168" lon="1.23821">
        <ele>30.42</ele>
        <time>2012-07-22T09:20:22Z</time>
      </trkpt>
      <trkpt lat="49.83127" lon="1.23873">
        <ele>31.38</ele>
        <time>2012-07-22T09:20:33Z</time>
      </trkpt>
      <trkpt lat="49.83123" lon="1.23878">
        <ele>30.9</ele>
        <time>2012-07-22T09:20:34Z</time>
      </trkpt>
      <trkpt lat="49.83085" lon="1.23923">
        <ele>31.86</ele>
        <time>2012-07-22T09:20:44Z</time>
      </trkpt>
      <trkpt lat="49.83081" lon="1.23928">
        <ele>31.38</ele>
        <time>2012-07-22T09:20:45Z</time>
      </trkpt>
      <trkpt lat="49.83025" lon="1.23997">
        <ele>31.38</ele>
        <time>2012-07-22T09:20:59Z</time>
      </trkpt>
      <trkpt lat="49.83021" lon="1.24002">
        <ele>31.86</ele>
        <time>2012-07-22T09:21:00Z</time>
      </trkpt>
      <trkpt lat="49.83017" lon="1.24007">
        <ele>31.38</ele>
        <time>2012-07-22T09:21:01Z</time>
      </trkpt>
      <trkpt lat="49.83013" lon="1.24012">
        <ele>31.38</ele>
        <time>2012-07-22T09:21:02Z</time>
      </trkpt>
      <trkpt lat="49.8301" lon="1.24018">
        <ele>31.86</ele>
        <time>2012-07-22T09:21:03Z</time>
      </trkpt>
      <trkpt lat="49.83006" lon="1.24023">
        <ele>31.38</ele>
        <time>2012-07-22T09:21:04Z</time>
      </trkpt>
      <trkpt lat="49.82956" lon="1.24103">
        <ele>31.86</ele>
        <time>2012-07-22T09:21:18Z</time>
      </trkpt>
      <trkpt lat="49.82928" lon="1.24154">
        <ele>31.86</ele>
        <time>2012-07-22T09:21:26Z</time>
      </trkpt>
      <trkpt lat="49.82922" lon="1.24166">
        <ele>32.34</ele>
        <time>2012-07-22T09:21:28Z</time>
      </trkpt>
      <trkpt lat="49.8291" lon="1.24192">
        <ele>32.34</ele>
        <time>2012-07-22T09:21:32Z</time>
      </trkpt>
      <trkpt lat="49.82878" lon="1.2426">
        <ele>32.34</ele>
        <time>2012-07-22T09:21:43Z</time>
      </trkpt>
      <trkpt lat="49.82872" lon="1.24272">
        <ele>31.86</ele>
        <time>2012-07-22T09:21:45Z</time>
      </trkpt>
      <trkpt lat="49.82822" lon="1.2437">
        <ele>32.82</ele>
        <time>2012-07-22T09:22:01Z</time>
      </trkpt>
      <trkpt lat="49.82788" lon="1.24441">
        <ele>32.34</ele>
        <time>2012-07-22T09:22:12Z</time>
      </trkpt>
      <trkpt lat="49.82749" lon="1.24524">
        <ele>32.34</ele>
        <time>2012-07-22T09:22:25Z</time>
      </trkpt>
      <trkpt lat="49.82715" lon="1.24589">
        <ele>32.34</ele>
        <time>2012-07-22T09:22:37Z</time>
      </trkpt>
      <trkpt lat="49.82703" lon="1.24612">
        <ele>32.34</ele>
        <time>2012-07-22T09:22:45Z</time>
      </trkpt>
      <trkpt lat="49.82687" lon="1.24647">
        <ele>32.82</ele>
        <time>2012-07-22T09:22:55Z</time>
      </trkpt>
      <trkpt lat="49.8266" lon="1.24697">
        <ele>32.82</ele>
        <time>2012-07-22T09:23:06Z</time>
      </trkpt>
      <trkpt lat="49.82655" lon="1.24707">
        <ele>32.34</ele>
        <time>2012-07-22T09:23:08Z</time>
      </trkpt>
      <trkpt lat="49.82653" lon="1.24713">
        <ele>32.82</ele>
        <time>2012-07-22T09:23:09Z</time>
      </trkpt>
      <trkpt lat="49.82635" lon="1.24754">
        <ele>31.86</ele>
        <time>2012-07-22T09:23:16Z</time>
      </trkpt>
      <trkpt lat="49.82632" lon="1.2476">
        <ele>32.34</ele>
        <time>2012-07-22T09:23:17Z</time>
      </trkpt>
      <trkpt lat="49.82627" lon="1.24771">
        <ele>32.34</ele>
        <time>2012-07-22T09:23:19Z</time>
      </trkpt>
      <trkpt lat="49.82625" lon="1.24777">
        <ele>32.82</ele>
        <time>2012-07-22T09:23:20Z</time>
      </trkpt>
      <trkpt lat="49.82622" lon="1.24782">
        <ele>32.82</ele>
        <time>2012-07-22T09:23:21Z</time>
      </trkpt>
      <trkpt lat="49.8262" lon="1.24788">
        <ele>31.86</ele>
        <time>2012-07-22T09:23:22Z</time>
      </trkpt>
      <trkpt lat="49.82617" lon="1.24793">
        <ele>32.82</ele>
        <time>2012-07-22T09:23:23Z</time>
      </trkpt>
      <trkpt lat="49.82579" lon="1.24864">
        <ele>32.82</ele>
        <time>2012-07-22T09:23:36Z</time>
      </trkpt>
      <trkpt lat="49.82525" lon="1.24963">
        <ele>33.3</ele>
        <time>2012-07-22T09:23:53Z</time>
      </trkpt>
      <trkpt lat="49.82477" lon="1.25042">
        <ele>33.3</ele>
        <time>2012-07-22T09:24:07Z</time>
      </trkpt>
      <trkpt lat="49.82428" lon="1.25113">
        <ele>33.78</ele>
        <time>2012-07-22T09:24:20Z</time>
      </trkpt>
      <trkpt lat="49.82381" lon="1.25177">
        <ele>33.78</ele>
        <time>2012-07-22T09:24:32Z</time>
      </trkpt>
      <trkpt lat="49.82329" lon="1.25247">
        <ele>34.26</ele>
        <time>2012-07-22T09:24:46Z</time>
      </trkpt>
      <trkpt lat="49.82272" lon="1.25321">
        <ele>34.74</ele>
        <time>2012-07-22T09:25:01Z</time>
      </trkpt>
      <trkpt lat="49.82226" lon="1.25386">
        <ele>34.74</ele>
        <time>2012-07-22T09:25:14Z</time>
      </trkpt>
      <trkpt lat="49.82223" lon="1.25391">
        <ele>35.23</ele>
        <time>2012-07-22T09:25:15Z</time>
      </trkpt>
      <trkpt lat="49.82179" lon="1.25447">
        <ele>35.71</ele>
        <time>2012-07-22T09:25:27Z</time>
      </trkpt>
      <trkpt lat="49.82175" lon="1.25452">
        <ele>36.19</ele>
        <time>2012-07-22T09:25:28Z</time>
      </trkpt>
      <trkpt lat="49.8212" lon="1.25527">
        <ele>36.67</ele>
        <time>2012-07-22T09:25:43Z</time>
      </trkpt>
      <trkpt lat="49.82065" lon="1.25609">
        <ele>36.67</ele>
        <time>2012-07-22T09:25:58Z</time>
      </trkpt>
      <trkpt lat="49.8201" lon="1.257">
        <ele>36.67</ele>
        <time>2012-07-22T09:26:14Z</time>
      </trkpt>
      <trkpt lat="49.81989" lon="1.25739">
        <ele>36.67</ele>
        <time>2012-07-22T09:26:21Z</time>
      </trkpt>
      <trkpt lat="49.81943" lon="1.25826">
        <ele>37.63</ele>
        <time>2012-07-22T09:26:36Z</time>
      </trkpt>
      <trkpt lat="49.81929" lon="1.25852">
        <ele>37.63</ele>
        <time>2012-07-22T09:26:41Z</time>
      </trkpt>
      <trkpt lat="49.8189" lon="1.2592">
        <ele>38.11</ele>
        <time>2012-07-22T09:26:54Z</time>
      </trkpt>
      <trkpt lat="49.81874" lon="1.25946">
        <ele>37.63</ele>
        <time>2012-07-22T09:26:59Z</time>
      </trkpt>
      <trkpt lat="49.81836" lon="1.26016">
        <ele>37.63</ele>
        <time>2012-07-22T09:27:12Z</time>
      </trkpt>
      <trkpt lat="49.81792" lon="1.26092">
        <ele>37.15</ele>
        <time>2012-07-22T09:27:26Z</time>
      </trkpt>
      <trkpt lat="49.81771" lon="1.2613">
        <ele>37.63</ele>
        <time>2012-07-22T09:27:33Z</time>
      </trkpt>
      <trkpt lat="49.81737" lon="1.26194">
        <ele>38.11</ele>
        <time>2012-07-22T09:27:45Z</time>
      </trkpt>
      <trkpt lat="49.81698" lon="1.26266">
        <ele>37.15</ele>
        <time>2012-07-22T09:27:59Z</time>
      </trkpt>
      <trkpt lat="49.81671" lon="1.26325">
        <ele>38.11</ele>
        <time>2012-07-22T09:28:10Z</time>
      </trkpt>
      <trkpt lat="49.81645" lon="1.26379">
        <ele>38.59</ele>
        <time>2012-07-22T09:28:22Z</time>
      </trkpt>
      <trkpt lat="49.81631" lon="1.26418">
        <ele>37.63</ele>
        <time>2012-07-22T09:28:33Z</time>
      </trkpt>
      <trkpt lat="49.8162" lon="1.26451">
        <ele>37.63</ele>
        <time>2012-07-22T09:28:41Z</time>
      </trkpt>
      <trkpt lat="49.81606" lon="1.265">
        <ele>37.63</ele>
        <time>2012-07-22T09:28:52Z</time>
      </trkpt>
      <trkpt lat="49.81591" lon="1.26559">
        <ele>37.63</ele>
        <time>2012-07-22T09:29:04Z</time>
      </trkpt>
      <trkpt lat="49.81581" lon="1.26611">
        <ele>37.63</ele>
        <time>2012-07-22T09:29:13Z</time>
      </trkpt>
      <trkpt lat="49.81579" lon="1.26623">
        <ele>37.63</ele>
        <time>2012-07-22T09:29:15Z</time>
      </trkpt>
      <trkpt lat="49.81574" lon="1.26655">
        <ele>37.63</ele>
        <time>2012-07-22T09:29:20Z</time>
      </trkpt>
      <trkpt lat="49.81572" lon="1.26669">
        <ele>38.11</ele>
        <time>2012-07-22T09:29:22Z</time>
      </trkpt>
      <trkpt lat="49.81561" lon="1.26742">
        <ele>38.11</ele>
        <time>2012-07-22T09:29:33Z</time>
      </trkpt>
      <trkpt lat="49.81551" lon="1.26844">
        <ele>38.59</ele>
        <time>2012-07-22T09:29:48Z</time>
      </trkpt>
      <trkpt lat="49.81541" lon="1.26958">
        <ele>38.59</ele>
        <time>2012-07-22T09:30:04Z</time>
      </trkpt>
      <trkpt lat="49.81533" lon="1.27005">
        <ele>39.55</ele>
        <time>2012-07-22T09:30:11Z</time>
      </trkpt>
      <trkpt lat="49.8153" lon="1.27031">
        <ele>40.03</ele>
        <time>2012-07-22T09:30:18Z</time>
      </trkpt>
      <trkpt lat="49.81528" lon="1.27071">
        <ele>39.07</ele>
        <time>2012-07-22T09:30:25Z</time>
      </trkpt>
      <trkpt lat="49.81519" lon="1.27151">
        <ele>40.03</ele>
        <time>2012-07-22T09:30:37Z</time>
      </trkpt>
      <trkpt lat="49.81507" lon="1.2726">
        <ele>39.55</ele>
        <time>2012-07-22T09:30:53Z</time>
      </trkpt>
      <trkpt lat="49.81494" lon="1.27374">
        <ele>40.03</ele>
        <time>2012-07-22T09:31:08Z</time>
      </trkpt>
      <trkpt lat="49.81482" lon="1.2746">
        <ele>39.55</ele>
        <time>2012-07-22T09:31:19Z</time>
      </trkpt>
      <trkpt lat="49.81462" lon="1.27579">
        <ele>39.55</ele>
        <time>2012-07-22T09:31:34Z</time>
      </trkpt>
      <trkpt lat="49.81432" lon="1.27683">
        <ele>40.03</ele>
        <time>2012-07-22T09:31:48Z</time>
      </trkpt>
      <trkpt lat="49.81405" lon="1.27771">
        <ele>40.03</ele>
        <time>2012-07-22T09:32:00Z</time>
      </trkpt>
      <trkpt lat="49.81375" lon="1.27869">
        <ele>40.51</ele>
        <time>2012-07-22T09:32:14Z</time>
      </trkpt>
      <trkpt lat="49.81344" lon="1.27965">
        <ele>40.51</ele>
        <time>2012-07-22T09:32:28Z</time>
      </trkpt>
      <trkpt lat="49.81317" lon="1.28053">
        <ele>40.99</ele>
        <time>2012-07-22T09:32:41Z</time>
      </trkpt>
      <trkpt lat="49.81298" lon="1.28107">
        <ele>41.95</ele>
        <time>2012-07-22T09:32:49Z</time>
      </trkpt>
      <trkpt lat="49.81295" lon="1.28114">
        <ele>41.47</ele>
        <time>2012-07-22T09:32:50Z</time>
      </trkpt>
      <trkpt lat="49.81293" lon="1.2812">
        <ele>41.47</ele>
        <time>2012-07-22T09:32:51Z</time>
      </trkpt>
      <trkpt lat="49.81271" lon="1.2819">
        <ele>41.47</ele>
        <time>2012-07-22T09:33:01Z</time>
      </trkpt>
      <trkpt lat="49.81269" lon="1.28198">
        <ele>41.95</ele>
        <time>2012-07-22T09:33:02Z</time>
      </trkpt>
      <trkpt lat="49.81267" lon="1.28205">
        <ele>41.95</ele>
        <time>2012-07-22T09:33:03Z</time>
      </trkpt>
      <trkpt lat="49.81257" lon="1.28231">
        <ele>41.95</ele>
        <time>2012-07-22T09:33:07Z</time>
      </trkpt>
      <trkpt lat="49.81243" lon="1.28284">
        <ele>42.44</ele>
        <time>2012-07-22T09:33:14Z</time>
      </trkpt>
      <trkpt lat="49.81241" lon="1.28292">
        <ele>42.44</ele>
        <time>2012-07-22T09:33:15Z</time>
      </trkpt>
      <trkpt lat="49.81239" lon="1.28299">
        <ele>42.44</ele>
        <time>2012-07-22T09:33:16Z</time>
      </trkpt>
      <trkpt lat="49.81232" lon="1.28322">
        <ele>42.44</ele>
        <time>2012-07-22T09:33:19Z</time>
      </trkpt>
      <trkpt lat="49.81231" lon="1.2833">
        <ele>42.92</ele>
        <time>2012-07-22T09:33:20Z</time>
      </trkpt>
      <trkpt lat="49.81229" lon="1.28337">
        <ele>42.92</ele>
        <time>2012-07-22T09:33:21Z</time>
      </trkpt>
      <trkpt lat="49.81228" lon="1.28345">
        <ele>42.92</ele>
        <time>2012-07-22T09:33:22Z</time>
      </trkpt>
      <trkpt lat="49.81226" lon="1.28352">
        <ele>41.95</ele>
        <time>2012-07-22T09:33:23Z</time>
      </trkpt>
      <trkpt lat="49.81225" lon="1.2836">
        <ele>42.44</ele>
        <time>2012-07-22T09:33:24Z</time>
      </trkpt>
      <trkpt lat="49.81223" lon="1.28367">
        <ele>41.95</ele>
        <time>2012-07-22T09:33:25Z</time>
      </trkpt>
      <trkpt lat="49.8121" lon="1.2843">
        <ele>42.44</ele>
        <time>2012-07-22T09:33:34Z</time>
      </trkpt>
      <trkpt lat="49.81208" lon="1.28437">
        <ele>42.92</ele>
        <time>2012-07-22T09:33:35Z</time>
      </trkpt>
      <trkpt lat="49.81207" lon="1.28444">
        <ele>42.92</ele>
        <time>2012-07-22T09:33:36Z</time>
      </trkpt>
      <trkpt lat="49.81205" lon="1.28451">
        <ele>42.92</ele>
        <time>2012-07-22T09:33:37Z</time>
      </trkpt>
      <trkpt lat="49.81204" lon="1.28459">
        <ele>42.92</ele>
        <time>2012-07-22T09:33:38Z</time>
      </trkpt>
      <trkpt lat="49.81203" lon="1.28467">
        <ele>42.44</ele>
        <time>2012-07-22T09:33:39Z</time>
      </trkpt>
      <trkpt lat="49.81201" lon="1.28474">
        <ele>43.4</ele>
        <time>2012-07-22T09:33:40Z</time>
      </trkpt>
      <trkpt lat="49.812" lon="1.28481">
        <ele>42.44</ele>
        <time>2012-07-22T09:33:41Z</time>
      </trkpt>
      <trkpt lat="49.81198" lon="1.28488">
        <ele>42.92</ele>
        <time>2012-07-22T09:33:42Z</time>
      </trkpt>
      <trkpt lat="49.8118" lon="1.28574">
        <ele>43.4</ele>
        <time>2012-07-22T09:33:54Z</time>
      </trkpt>
      <trkpt lat="49.81156" lon="1.28685">
        <ele>42.92</ele>
        <time>2012-07-22T09:34:09Z</time>
      </trkpt>
      <trkpt lat="49.81131" lon="1.28787">
        <ele>42.92</ele>
        <time>2012-07-22T09:34:23Z</time>
      </trkpt>
      <trkpt lat="49.81096" lon="1.28889">
        <ele>43.4</ele>
        <time>2012-07-22T09:34:39Z</time>
      </trkpt>
      <trkpt lat="49.81055" lon="1.28989">
        <ele>43.4</ele>
        <time>2012-07-22T09:34:56Z</time>
      </trkpt>
      <trkpt lat="49.81011" lon="1.29071">
        <ele>43.4</ele>
        <time>2012-07-22T09:35:10Z</time>
      </trkpt>
      <trkpt lat="49.80992" lon="1.29104">
        <ele>43.4</ele>
        <time>2012-07-22T09:35:16Z</time>
      </trkpt>
      <trkpt lat="49.80988" lon="1.29108">
        <ele>43.88</ele>
        <time>2012-07-22T09:35:17Z</time>
      </trkpt>
      <trkpt lat="49.80944" lon="1.29168">
        <ele>43.88</ele>
        <time>2012-07-22T09:35:30Z</time>
      </trkpt>
      <trkpt lat="49.80923" lon="1.29194">
        <ele>43.4</ele>
        <time>2012-07-22T09:35:36Z</time>
      </trkpt>
      <trkpt lat="49.80906" lon="1.29215">
        <ele>43.4</ele>
        <time>2012-07-22T09:35:41Z</time>
      </trkpt>
      <trkpt lat="49.80902" lon="1.29218">
        <ele>43.88</ele>
        <time>2012-07-22T09:35:42Z</time>
      </trkpt>
      <trkpt lat="49.80846" lon="1.29279">
        <ele>43.88</ele>
        <time>2012-07-22T09:35:58Z</time>
      </trkpt>
      <trkpt lat="49.8079" lon="1.29333">
        <ele>43.4</ele>
        <time>2012-07-22T09:36:13Z</time>
      </trkpt>
      <trkpt lat="49.80751" lon="1.29373">
        <ele>43.88</ele>
        <time>2012-07-22T09:36:24Z</time>
      </trkpt>
      <trkpt lat="49.80695" lon="1.29429">
        <ele>43.88</ele>
        <time>2012-07-22T09:36:39Z</time>
      </trkpt>
      <trkpt lat="49.80636" lon="1.29483">
        <ele>44.36</ele>
        <time>2012-07-22T09:36:54Z</time>
      </trkpt>
      <trkpt lat="49.80588" lon="1.29537">
        <ele>44.36</ele>
        <time>2012-07-22T09:37:08Z</time>
      </trkpt>
      <trkpt lat="49.80541" lon="1.29597">
        <ele>44.36</ele>
        <time>2012-07-22T09:37:23Z</time>
      </trkpt>
      <trkpt lat="49.80516" lon="1.29631">
        <ele>45.32</ele>
        <time>2012-07-22T09:37:32Z</time>
      </trkpt>
      <trkpt lat="49.80483" lon="1.29676">
        <ele>45.32</ele>
        <time>2012-07-22T09:37:44Z</time>
      </trkpt>
      <trkpt lat="49.80465" lon="1.29701">
        <ele>45.32</ele>
        <time>2012-07-22T09:37:52Z</time>
      </trkpt>
      <trkpt lat="49.80447" lon="1.29727">
        <ele>45.32</ele>
        <time>2012-07-22T09:38:02Z</time>
      </trkpt>
      <trkpt lat="49.80442" lon="1.29736">
        <ele>45.32</ele>
        <time>2012-07-22T09:38:10Z</time>
      </trkpt>
      <trkpt lat="49.8044" lon="1.29742">
        <ele>45.32</ele>
        <time>2012-07-22T09:38:20Z</time>
      </trkpt>
      <trkpt lat="49.80439" lon="1.29746">
        <ele>45.32</ele>
        <time>2012-07-22T09:38:34Z</time>
      </trkpt>
      <trkpt lat="49.80439" lon="1.29748">
        <ele>45.8</ele>
        <time>2012-07-22T09:39:02Z</time>
      </trkpt>
      <trkpt lat="49.80438" lon="1.2975">
        <ele>45.8</ele>
        <time>2012-07-22T09:39:21Z</time>
      </trkpt>
      <trkpt lat="49.80437" lon="1.29751">
        <ele>45.8</ele>
        <time>2012-07-22T09:39:41Z</time>
      </trkpt>
      <trkpt lat="49.80437" lon="1.2975">
        <ele>44.84</ele>
        <time>2012-07-22T09:40:05Z</time>
      </trkpt>
      <trkpt lat="49.80435" lon="1.29751">
        <ele>45.32</ele>
        <time>2012-07-22T09:40:16Z</time>
      </trkpt>
      <trkpt lat="49.80434" lon="1.29751">
        <ele>45.32</ele>
        <time>2012-07-22T09:40:43Z</time>
      </trkpt>
      <trkpt lat="49.80434" lon="1.29751">
        <ele>44.84</ele>
        <time>2012-07-22T09:41:04Z</time>
      </trkpt>
      <trkpt lat="49.80433" lon="1.29755">
        <ele>44.84</ele>
        <time>2012-07-22T09:41:16Z</time>
      </trkpt>
      <trkpt lat="49.80413" lon="1.29789">
        <ele>44.84</ele>
        <time>2012-07-22T09:41:25Z</time>
      </trkpt>
      <trkpt lat="49.80389" lon="1.29833">
        <ele>44.36</ele>
        <time>2012-07-22T09:41:33Z</time>
      </trkpt>
      <trkpt lat="49.80375" lon="1.29858">
        <ele>44.36</ele>
        <time>2012-07-22T09:41:37Z</time>
      </trkpt>
      <trkpt lat="49.80346" lon="1.29925">
        <ele>44.36</ele>
        <time>2012-07-22T09:41:47Z</time>
      </trkpt>
      <trkpt lat="49.80327" lon="1.29976">
        <ele>44.84</ele>
        <time>2012-07-22T09:41:54Z</time>
      </trkpt>
      <trkpt lat="49.80324" lon="1.29983">
        <ele>44.84</ele>
        <time>2012-07-22T09:41:55Z</time>
      </trkpt>
      <trkpt lat="49.80321" lon="1.29991">
        <ele>44.84</ele>
        <time>2012-07-22T09:41:56Z</time>
      </trkpt>
      <trkpt lat="49.80318" lon="1.29999">
        <ele>44.84</ele>
        <time>2012-07-22T09:41:57Z</time>
      </trkpt>
      <trkpt lat="49.80316" lon="1.30006">
        <ele>44.84</ele>
        <time>2012-07-22T09:41:58Z</time>
      </trkpt>
      <trkpt lat="49.80293" lon="1.30083">
        <ele>45.32</ele>
        <time>2012-07-22T09:42:08Z</time>
      </trkpt>
      <trkpt lat="49.80271" lon="1.30171">
        <ele>44.36</ele>
        <time>2012-07-22T09:42:19Z</time>
      </trkpt>
      <trkpt lat="49.80253" lon="1.30277">
        <ele>44.36</ele>
        <time>2012-07-22T09:42:32Z</time>
      </trkpt>
      <trkpt lat="49.80234" lon="1.30379">
        <ele>44.84</ele>
        <time>2012-07-22T09:42:45Z</time>
      </trkpt>
      <trkpt lat="49.80226" lon="1.30425">
        <ele>44.84</ele>
        <time>2012-07-22T09:42:51Z</time>
      </trkpt>
      <trkpt lat="49.80225" lon="1.30433">
        <ele>44.84</ele>
        <time>2012-07-22T09:42:52Z</time>
      </trkpt>
      <trkpt lat="49.80225" lon="1.30441">
        <ele>45.32</ele>
        <time>2012-07-22T09:42:53Z</time>
      </trkpt>
      <trkpt lat="49.80208" lon="1.3053">
        <ele>46.28</ele>
        <time>2012-07-22T09:43:05Z</time>
      </trkpt>
      <trkpt lat="49.80206" lon="1.30537">
        <ele>45.8</ele>
        <time>2012-07-22T09:43:06Z</time>
      </trkpt>
      <trkpt lat="49.80198" lon="1.30572">
        <ele>46.76</ele>
        <time>2012-07-22T09:43:13Z</time>
      </trkpt>
      <trkpt lat="49.8019" lon="1.3063">
        <ele>46.28</ele>
        <time>2012-07-22T09:43:22Z</time>
      </trkpt>
      <trkpt lat="49.80187" lon="1.30643">
        <ele>46.28</ele>
        <time>2012-07-22T09:43:24Z</time>
      </trkpt>
      <trkpt lat="49.80185" lon="1.3065">
        <ele>46.76</ele>
        <time>2012-07-22T09:43:25Z</time>
      </trkpt>
      <trkpt lat="49.80183" lon="1.30657">
        <ele>46.76</ele>
        <time>2012-07-22T09:43:26Z</time>
      </trkpt>
      <trkpt lat="49.8017" lon="1.3074">
        <ele>46.76</ele>
        <time>2012-07-22T09:43:38Z</time>
      </trkpt>
      <trkpt lat="49.80167" lon="1.30754">
        <ele>46.76</ele>
        <time>2012-07-22T09:43:40Z</time>
      </trkpt>
      <trkpt lat="49.80165" lon="1.30761">
        <ele>47.24</ele>
        <time>2012-07-22T09:43:41Z</time>
      </trkpt>
      <trkpt lat="49.80161" lon="1.30782">
        <ele>47.24</ele>
        <time>2012-07-22T09:43:44Z</time>
      </trkpt>
      <trkpt lat="49.80151" lon="1.30824">
        <ele>47.24</ele>
        <time>2012-07-22T09:43:50Z</time>
      </trkpt>
      <trkpt lat="49.80149" lon="1.30831">
        <ele>47.24</ele>
        <time>2012-07-22T09:43:51Z</time>
      </trkpt>
      <trkpt lat="49.80132" lon="1.30894">
        <ele>47.24</ele>
        <time>2012-07-22T09:44:00Z</time>
      </trkpt>
      <trkpt lat="49.80128" lon="1.30907">
        <ele>47.72</ele>
        <time>2012-07-22T09:44:02Z</time>
      </trkpt>
      <trkpt lat="49.80123" lon="1.30929">
        <ele>47.72</ele>
        <time>2012-07-22T09:44:05Z</time>
      </trkpt>
      <trkpt lat="49.80099" lon="1.31014">
        <ele>48.2</ele>
        <time>2012-07-22T09:44:17Z</time>
      </trkpt>
      <trkpt lat="49.80077" lon="1.3108">
        <ele>48.2</ele>
        <time>2012-07-22T09:44:27Z</time>
      </trkpt>
      <trkpt lat="49.8005" lon="1.31151">
        <ele>48.2</ele>
        <time>2012-07-22T09:44:38Z</time>
      </trkpt>
      <trkpt lat="49.80024" lon="1.31232">
        <ele>48.68</ele>
        <time>2012-07-22T09:44:49Z</time>
      </trkpt>
      <trkpt lat="49.79993" lon="1.31329">
        <ele>49.16</ele>
        <time>2012-07-22T09:45:03Z</time>
      </trkpt>
      <trkpt lat="49.79958" lon="1.31414">
        <ele>49.65</ele>
        <time>2012-07-22T09:45:16Z</time>
      </trkpt>
      <trkpt lat="49.79937" lon="1.31456">
        <ele>49.16</ele>
        <time>2012-07-22T09:45:23Z</time>
      </trkpt>
      <trkpt lat="49.79899" lon="1.31522">
        <ele>49.65</ele>
        <time>2012-07-22T09:45:35Z</time>
      </trkpt>
      <trkpt lat="49.79853" lon="1.31587">
        <ele>50.13</ele>
        <time>2012-07-22T09:45:48Z</time>
      </trkpt>
      <trkpt lat="49.79839" lon="1.31608">
        <ele>50.13</ele>
        <time>2012-07-22T09:45:52Z</time>
      </trkpt>
      <trkpt lat="49.79811" lon="1.31642">
        <ele>50.13</ele>
        <time>2012-07-22T09:45:59Z</time>
      </trkpt>
      <trkpt lat="49.79807" lon="1.31647">
        <ele>50.13</ele>
        <time>2012-07-22T09:46:00Z</time>
      </trkpt>
      <trkpt lat="49.79803" lon="1.31651">
        <ele>50.13</ele>
        <time>2012-07-22T09:46:01Z</time>
      </trkpt>
      <trkpt lat="49.79799" lon="1.31655">
        <ele>50.13</ele>
        <time>2012-07-22T09:46:02Z</time>
      </trkpt>
      <trkpt lat="49.79795" lon="1.3166">
        <ele>49.16</ele>
        <time>2012-07-22T09:46:03Z</time>
      </trkpt>
      <trkpt lat="49.79791" lon="1.31665">
        <ele>50.13</ele>
        <time>2012-07-22T09:46:04Z</time>
      </trkpt>
      <trkpt lat="49.79787" lon="1.31671">
        <ele>49.65</ele>
        <time>2012-07-22T09:46:05Z</time>
      </trkpt>
      <trkpt lat="49.7978" lon="1.31681">
        <ele>49.65</ele>
        <time>2012-07-22T09:46:07Z</time>
      </trkpt>
      <trkpt lat="49.79776" lon="1.31686">
        <ele>49.65</ele>
        <time>2012-07-22T09:46:08Z</time>
      </trkpt>
      <trkpt lat="49.79727" lon="1.31754">
        <ele>50.13</ele>
        <time>2012-07-22T09:46:21Z</time>
      </trkpt>
      <trkpt lat="49.79684" lon="1.3182">
        <ele>49.65</ele>
        <time>2012-07-22T09:46:33Z</time>
      </trkpt>
      <trkpt lat="49.79641" lon="1.31899">
        <ele>49.65</ele>
        <time>2012-07-22T09:46:46Z</time>
      </trkpt>
      <trkpt lat="49.79601" lon="1.31976">
        <ele>50.61</ele>
        <time>2012-07-22T09:46:59Z</time>
      </trkpt>
      <trkpt lat="49.79595" lon="1.31987">
        <ele>50.61</ele>
        <time>2012-07-22T09:47:01Z</time>
      </trkpt>
      <trkpt lat="49.79581" lon="1.32011">
        <ele>50.61</ele>
        <time>2012-07-22T09:47:08Z</time>
      </trkpt>
      <trkpt lat="49.79568" lon="1.32041">
        <ele>50.61</ele>
        <time>2012-07-22T09:47:14Z</time>
      </trkpt>
      <trkpt lat="49.79565" lon="1.32046">
        <ele>50.13</ele>
        <time>2012-07-22T09:47:15Z</time>
      </trkpt>
      <trkpt lat="49.79533" lon="1.3211">
        <ele>50.13</ele>
        <time>2012-07-22T09:47:26Z</time>
      </trkpt>
      <trkpt lat="49.7949" lon="1.32188">
        <ele>50.61</ele>
        <time>2012-07-22T09:47:39Z</time>
      </trkpt>
      <trkpt lat="49.79443" lon="1.32279">
        <ele>51.09</ele>
        <time>2012-07-22T09:47:54Z</time>
      </trkpt>
      <trkpt lat="49.79409" lon="1.32349">
        <ele>51.09</ele>
        <time>2012-07-22T09:48:05Z</time>
      </trkpt>
      <trkpt lat="49.7937" lon="1.3243">
        <ele>51.57</ele>
        <time>2012-07-22T09:48:18Z</time>
      </trkpt>
      <trkpt lat="49.79336" lon="1.32508">
        <ele>50.61</ele>
        <time>2012-07-22T09:48:30Z</time>
      </trkpt>
      <trkpt lat="49.79303" lon="1.32576">
        <ele>51.09</ele>
        <time>2012-07-22T09:48:41Z</time>
      </trkpt>
      <trkpt lat="49.793" lon="1.32582">
        <ele>51.57</ele>
        <time>2012-07-22T09:48:42Z</time>
      </trkpt>
      <trkpt lat="49.7927" lon="1.3265">
        <ele>52.05</ele>
        <time>2012-07-22T09:48:53Z</time>
      </trkpt>
      <trkpt lat="49.79249" lon="1.32701">
        <ele>51.57</ele>
        <time>2012-07-22T09:49:01Z</time>
      </trkpt>
      <trkpt lat="49.79247" lon="1.32707">
        <ele>51.57</ele>
        <time>2012-07-22T09:49:02Z</time>
      </trkpt>
      <trkpt lat="49.79244" lon="1.32712">
        <ele>53.01</ele>
        <time>2012-07-22T09:49:03Z</time>
      </trkpt>
      <trkpt lat="49.7924" lon="1.32725">
        <ele>52.05</ele>
        <time>2012-07-22T09:49:05Z</time>
      </trkpt>
      <trkpt lat="49.79215" lon="1.328">
        <ele>52.53</ele>
        <time>2012-07-22T09:49:16Z</time>
      </trkpt>
      <trkpt lat="49.79209" lon="1.3282">
        <ele>52.53</ele>
        <time>2012-07-22T09:49:19Z</time>
      </trkpt>
      <trkpt lat="49.79207" lon="1.32827">
        <ele>52.53</ele>
        <time>2012-07-22T09:49:20Z</time>
      </trkpt>
      <trkpt lat="49.79193" lon="1.32881">
        <ele>52.53</ele>
        <time>2012-07-22T09:49:28Z</time>
      </trkpt>
      <trkpt lat="49.79191" lon="1.32888">
        <ele>53.01</ele>
        <time>2012-07-22T09:49:29Z</time>
      </trkpt>
      <trkpt lat="49.79171" lon="1.32954">
        <ele>53.49</ele>
        <time>2012-07-22T09:49:39Z</time>
      </trkpt>
      <trkpt lat="49.79142" lon="1.33044">
        <ele>54.45</ele>
        <time>2012-07-22T09:49:53Z</time>
      </trkpt>
      <trkpt lat="49.79119" lon="1.33115">
        <ele>54.93</ele>
        <time>2012-07-22T09:50:05Z</time>
      </trkpt>
      <trkpt lat="49.79117" lon="1.33121">
        <ele>54.93</ele>
        <time>2012-07-22T09:50:06Z</time>
      </trkpt>
      <trkpt lat="49.79115" lon="1.33127">
        <ele>55.41</ele>
        <time>2012-07-22T09:50:07Z</time>
      </trkpt>
      <trkpt lat="49.79113" lon="1.33133">
        <ele>55.41</ele>
        <time>2012-07-22T09:50:08Z</time>
      </trkpt>
      <trkpt lat="49.7911" lon="1.33138">
        <ele>55.89</ele>
        <time>2012-07-22T09:50:09Z</time>
      </trkpt>
      <trkpt lat="49.79108" lon="1.33144">
        <ele>55.89</ele>
        <time>2012-07-22T09:50:10Z</time>
      </trkpt>
      <trkpt lat="49.79092" lon="1.33183">
        <ele>55.89</ele>
        <time>2012-07-22T09:50:17Z</time>
      </trkpt>
      <trkpt lat="49.79063" lon="1.33242">
        <ele>56.37</ele>
        <time>2012-07-22T09:50:28Z</time>
      </trkpt>
      <trkpt lat="49.7903" lon="1.33304">
        <ele>56.86</ele>
        <time>2012-07-22T09:50:40Z</time>
      </trkpt>
      <trkpt lat="49.79027" lon="1.33309">
        <ele>56.37</ele>
        <time>2012-07-22T09:50:41Z</time>
      </trkpt>
      <trkpt lat="49.79016" lon="1.3333">
        <ele>56.86</ele>
        <time>2012-07-22T09:50:45Z</time>
      </trkpt>
      <trkpt lat="49.78979" lon="1.33393">
        <ele>57.34</ele>
        <time>2012-07-22T09:50:57Z</time>
      </trkpt>
      <trkpt lat="49.78944" lon="1.33456">
        <ele>57.82</ele>
        <time>2012-07-22T09:51:09Z</time>
      </trkpt>
      <trkpt lat="49.7894" lon="1.3346">
        <ele>57.82</ele>
        <time>2012-07-22T09:51:10Z</time>
      </trkpt>
      <trkpt lat="49.78937" lon="1.33465">
        <ele>58.3</ele>
        <time>2012-07-22T09:51:11Z</time>
      </trkpt>
      <trkpt lat="49.78906" lon="1.33522">
        <ele>58.78</ele>
        <time>2012-07-22T09:51:22Z</time>
      </trkpt>
      <trkpt lat="49.78878" lon="1.33572">
        <ele>59.74</ele>
        <time>2012-07-22T09:51:32Z</time>
      </trkpt>
      <trkpt lat="49.78875" lon="1.33576">
        <ele>59.26</ele>
        <time>2012-07-22T09:51:33Z</time>
      </trkpt>
      <trkpt lat="49.78873" lon="1.33581">
        <ele>59.26</ele>
        <time>2012-07-22T09:51:34Z</time>
      </trkpt>
      <trkpt lat="49.78856" lon="1.3361">
        <ele>58.78</ele>
        <time>2012-07-22T09:51:40Z</time>
      </trkpt>
      <trkpt lat="49.78852" lon="1.33614">
        <ele>59.26</ele>
        <time>2012-07-22T09:51:41Z</time>
      </trkpt>
      <trkpt lat="49.78849" lon="1.33618">
        <ele>59.74</ele>
        <time>2012-07-22T09:51:42Z</time>
      </trkpt>
      <trkpt lat="49.78846" lon="1.33623">
        <ele>59.74</ele>
        <time>2012-07-22T09:51:43Z</time>
      </trkpt>
      <trkpt lat="49.78843" lon="1.33627">
        <ele>59.26</ele>
        <time>2012-07-22T09:51:44Z</time>
      </trkpt>
      <trkpt lat="49.78802" lon="1.33684">
        <ele>59.74</ele>
        <time>2012-07-22T09:51:56Z</time>
      </trkpt>
      <trkpt lat="49.78784" lon="1.33707">
        <ele>60.22</ele>
        <time>2012-07-22T09:52:01Z</time>
      </trkpt>
      <trkpt lat="49.78745" lon="1.33752">
        <ele>60.7</ele>
        <time>2012-07-22T09:52:11Z</time>
      </trkpt>
      <trkpt lat="49.78707" lon="1.33793">
        <ele>60.7</ele>
        <time>2012-07-22T09:52:21Z</time>
      </trkpt>
      <trkpt lat="49.78692" lon="1.33807">
        <ele>61.18</ele>
        <time>2012-07-22T09:52:25Z</time>
      </trkpt>
      <trkpt lat="49.78688" lon="1.33811">
        <ele>61.18</ele>
        <time>2012-07-22T09:52:26Z</time>
      </trkpt>
      <trkpt lat="49.78641" lon="1.33861">
        <ele>61.66</ele>
        <time>2012-07-22T09:52:39Z</time>
      </trkpt>
      <trkpt lat="49.78619" lon="1.33884">
        <ele>62.14</ele>
        <time>2012-07-22T09:52:45Z</time>
      </trkpt>
      <trkpt lat="49.78572" lon="1.33935">
        <ele>62.14</ele>
        <time>2012-07-22T09:52:59Z</time>
      </trkpt>
      <trkpt lat="49.78542" lon="1.33965">
        <ele>62.62</ele>
        <time>2012-07-22T09:53:08Z</time>
      </trkpt>
      <trkpt lat="49.78526" lon="1.33985">
        <ele>63.1</ele>
        <time>2012-07-22T09:53:13Z</time>
      </trkpt>
      <trkpt lat="49.78497" lon="1.34019">
        <ele>63.1</ele>
        <time>2012-07-22T09:53:22Z</time>
      </trkpt>
      <trkpt lat="49.78452" lon="1.34079">
        <ele>63.58</ele>
        <time>2012-07-22T09:53:33Z</time>
      </trkpt>
      <trkpt lat="49.78387" lon="1.34159">
        <ele>64.55</ele>
        <time>2012-07-22T09:53:46Z</time>
      </trkpt>
      <trkpt lat="49.78326" lon="1.34237">
        <ele>65.03</ele>
        <time>2012-07-22T09:53:58Z</time>
      </trkpt>
      <trkpt lat="49.78283" lon="1.34294">
        <ele>65.99</ele>
        <time>2012-07-22T09:54:08Z</time>
      </trkpt>
      <trkpt lat="49.78231" lon="1.34356">
        <ele>66.47</ele>
        <time>2012-07-22T09:54:22Z</time>
      </trkpt>
      <trkpt lat="49.78184" lon="1.34416">
        <ele>66.95</ele>
        <time>2012-07-22T09:54:36Z</time>
      </trkpt>
      <trkpt lat="49.78155" lon="1.34453">
        <ele>67.43</ele>
        <time>2012-07-22T09:54:45Z</time>
      </trkpt>
      <trkpt lat="49.78119" lon="1.34498">
        <ele>66.95</ele>
        <time>2012-07-22T09:54:58Z</time>
      </trkpt>
      <trkpt lat="49.78087" lon="1.3454">
        <ele>67.43</ele>
        <time>2012-07-22T09:55:10Z</time>
      </trkpt>
      <trkpt lat="49.78058" lon="1.34575">
        <ele>66.95</ele>
        <time>2012-07-22T09:55:20Z</time>
      </trkpt>
      <trkpt lat="49.78024" lon="1.34622">
        <ele>67.43</ele>
        <time>2012-07-22T09:55:32Z</time>
      </trkpt>
      <trkpt lat="49.7799" lon="1.34672">
        <ele>67.43</ele>
        <time>2012-07-22T09:55:44Z</time>
      </trkpt>
      <trkpt lat="49.77979" lon="1.34688">
        <ele>66.95</ele>
        <time>2012-07-22T09:55:48Z</time>
      </trkpt>
      <trkpt lat="49.77953" lon="1.3473">
        <ele>66.95</ele>
        <time>2012-07-22T09:55:58Z</time>
      </trkpt>
      <trkpt lat="49.77926" lon="1.34779">
        <ele>67.43</ele>
        <time>2012-07-22T09:56:09Z</time>
      </trkpt>
      <trkpt lat="49.77899" lon="1.34831">
        <ele>67.43</ele>
        <time>2012-07-22T09:56:20Z</time>
      </trkpt>
      <trkpt lat="49.77873" lon="1.34884">
        <ele>67.91</ele>
        <time>2012-07-22T09:56:31Z</time>
      </trkpt>
      <trkpt lat="49.77842" lon="1.34943">
        <ele>67.43</ele>
        <time>2012-07-22T09:56:44Z</time>
      </trkpt>
      <trkpt lat="49.77821" lon="1.34982">
        <ele>67.91</ele>
        <time>2012-07-22T09:56:55Z</time>
      </trkpt>
      <trkpt lat="49.77803" lon="1.35021">
        <ele>67.43</ele>
        <time>2012-07-22T09:57:05Z</time>
      </trkpt>
      <trkpt lat="49.77774" lon="1.35082">
        <ele>67.43</ele>
        <time>2012-07-22T09:57:18Z</time>
      </trkpt>
      <trkpt lat="49.7774" lon="1.3515">
        <ele>66.95</ele>
        <time>2012-07-22T09:57:32Z</time>
      </trkpt>
      <trkpt lat="49.77702" lon="1.35224">
        <ele>67.91</ele>
        <time>2012-07-22T09:57:47Z</time>
      </trkpt>
      <trkpt lat="49.77673" lon="1.35285">
        <ele>66.47</ele>
        <time>2012-07-22T09:57:58Z</time>
      </trkpt>
      <trkpt lat="49.77668" lon="1.35297">
        <ele>67.43</ele>
        <time>2012-07-22T09:58:00Z</time>
      </trkpt>
      <trkpt lat="49.77665" lon="1.35303">
        <ele>66.47</ele>
        <time>2012-07-22T09:58:01Z</time>
      </trkpt>
      <trkpt lat="49.77662" lon="1.35308">
        <ele>67.43</ele>
        <time>2012-07-22T09:58:02Z</time>
      </trkpt>
      <trkpt lat="49.77617" lon="1.35395">
        <ele>66.95</ele>
        <time>2012-07-22T09:58:17Z</time>
      </trkpt>
      <trkpt lat="49.77588" lon="1.35452">
        <ele>67.43</ele>
        <time>2012-07-22T09:58:27Z</time>
      </trkpt>
      <trkpt lat="49.77545" lon="1.35539">
        <ele>66.95</ele>
        <time>2012-07-22T09:58:42Z</time>
      </trkpt>
      <trkpt lat="49.7753" lon="1.35569">
        <ele>67.43</ele>
        <time>2012-07-22T09:58:47Z</time>
      </trkpt>
      <trkpt lat="49.77498" lon="1.35646">
        <ele>66.47</ele>
        <time>2012-07-22T09:58:58Z</time>
      </trkpt>
      <trkpt lat="49.7746" lon="1.35742">
        <ele>67.91</ele>
        <time>2012-07-22T09:59:13Z</time>
      </trkpt>
      <trkpt lat="49.77431" lon="1.35815">
        <ele>67.91</ele>
        <time>2012-07-22T09:59:25Z</time>
      </trkpt>
      <trkpt lat="49.77397" lon="1.35894">
        <ele>68.39</ele>
        <time>2012-07-22T09:59:38Z</time>
      </trkpt>
      <trkpt lat="49.77377" lon="1.35938">
        <ele>69.83</ele>
        <time>2012-07-22T09:59:48Z</time>
      </trkpt>
      <trkpt lat="49.77362" lon="1.35983">
        <ele>68.87</ele>
        <time>2012-07-22T09:59:57Z</time>
      </trkpt>
      <trkpt lat="49.77338" lon="1.36041">
        <ele>70.31</ele>
        <time>2012-07-22T10:00:08Z</time>
      </trkpt>
      <trkpt lat="49.77302" lon="1.36128">
        <ele>70.31</ele>
        <time>2012-07-22T10:00:22Z</time>
      </trkpt>
      <trkpt lat="49.77272" lon="1.36206">
        <ele>70.79</ele>
        <time>2012-07-22T10:00:34Z</time>
      </trkpt>
      <trkpt lat="49.7727" lon="1.36212">
        <ele>70.79</ele>
        <time>2012-07-22T10:00:35Z</time>
      </trkpt>
      <trkpt lat="49.77267" lon="1.36219">
        <ele>70.79</ele>
        <time>2012-07-22T10:00:36Z</time>
      </trkpt>
      <trkpt lat="49.77234" lon="1.36295">
        <ele>71.27</ele>
        <time>2012-07-22T10:00:47Z</time>
      </trkpt>
      <trkpt lat="49.77188" lon="1.36396">
        <ele>70.31</ele>
        <time>2012-07-22T10:01:01Z</time>
      </trkpt>
      <trkpt lat="49.77177" lon="1.36418">
        <ele>70.31</ele>
        <time>2012-07-22T10:01:04Z</time>
      </trkpt>
      <trkpt lat="49.77136" lon="1.36503">
        <ele>70.31</ele>
        <time>2012-07-22T10:01:15Z</time>
      </trkpt>
      <trkpt lat="49.77086" lon="1.36603">
        <ele>69.83</ele>
        <time>2012-07-22T10:01:28Z</time>
      </trkpt>
      <trkpt lat="49.77041" lon="1.36694">
        <ele>68.87</ele>
        <time>2012-07-22T10:01:39Z</time>
      </trkpt>
      <trkpt lat="49.77001" lon="1.36775">
        <ele>68.39</ele>
        <time>2012-07-22T10:01:48Z</time>
      </trkpt>
      <trkpt lat="49.76943" lon="1.36893">
        <ele>67.43</ele>
        <time>2012-07-22T10:02:00Z</time>
      </trkpt>
      <trkpt lat="49.76883" lon="1.37016">
        <ele>66.47</ele>
        <time>2012-07-22T10:02:12Z</time>
      </trkpt>
      <trkpt lat="49.76822" lon="1.37138">
        <ele>65.51</ele>
        <time>2012-07-22T10:02:24Z</time>
      </trkpt>
      <trkpt lat="49.76778" lon="1.37228">
        <ele>65.51</ele>
        <time>2012-07-22T10:02:34Z</time>
      </trkpt>
      <trkpt lat="49.76751" lon="1.37282">
        <ele>65.99</ele>
        <time>2012-07-22T10:02:44Z</time>
      </trkpt>
      <trkpt lat="49.76732" lon="1.37314">
        <ele>65.99</ele>
        <time>2012-07-22T10:02:53Z</time>
      </trkpt>
      <trkpt lat="49.7672" lon="1.37348">
        <ele>65.99</ele>
        <time>2012-07-22T10:03:04Z</time>
      </trkpt>
      <trkpt lat="49.76701" lon="1.37384">
        <ele>65.51</ele>
        <time>2012-07-22T10:03:14Z</time>
      </trkpt>
      <trkpt lat="49.7668" lon="1.37422">
        <ele>65.51</ele>
        <time>2012-07-22T10:03:25Z</time>
      </trkpt>
      <trkpt lat="49.76652" lon="1.37466">
        <ele>65.03</ele>
        <time>2012-07-22T10:03:37Z</time>
      </trkpt>
      <trkpt lat="49.76628" lon="1.37501">
        <ele>65.51</ele>
        <time>2012-07-22T10:03:47Z</time>
      </trkpt>
      <trkpt lat="49.766" lon="1.37537">
        <ele>65.51</ele>
        <time>2012-07-22T10:03:58Z</time>
      </trkpt>
      <trkpt lat="49.7656" lon="1.37582">
        <ele>64.55</ele>
        <time>2012-07-22T10:04:12Z</time>
      </trkpt>
      <trkpt lat="49.76529" lon="1.37611">
        <ele>64.55</ele>
        <time>2012-07-22T10:04:23Z</time>
      </trkpt>
      <trkpt lat="49.76498" lon="1.37636">
        <ele>64.55</ele>
        <time>2012-07-22T10:04:34Z</time>
      </trkpt>
      <trkpt lat="49.76467" lon="1.37659">
        <ele>64.55</ele>
        <time>2012-07-22T10:04:45Z</time>
      </trkpt>
      <trkpt lat="49.76436" lon="1.37678">
        <ele>63.58</ele>
        <time>2012-07-22T10:04:56Z</time>
      </trkpt>
      <trkpt lat="49.7641" lon="1.37693">
        <ele>64.07</ele>
        <time>2012-07-22T10:05:03Z</time>
      </trkpt>
      <trkpt lat="49.76405" lon="1.37696">
        <ele>63.58</ele>
        <time>2012-07-22T10:05:04Z</time>
      </trkpt>
      <trkpt lat="49.76353" lon="1.37724">
        <ele>64.55</ele>
        <time>2012-07-22T10:05:15Z</time>
      </trkpt>
      <trkpt lat="49.76324" lon="1.37741">
        <ele>64.55</ele>
        <time>2012-07-22T10:05:21Z</time>
      </trkpt>
      <trkpt lat="49.76319" lon="1.37743">
        <ele>64.07</ele>
        <time>2012-07-22T10:05:22Z</time>
      </trkpt>
      <trkpt lat="49.76263" lon="1.37774">
        <ele>64.55</ele>
        <time>2012-07-22T10:05:33Z</time>
      </trkpt>
      <trkpt lat="49.76213" lon="1.3781">
        <ele>63.58</ele>
        <time>2012-07-22T10:05:43Z</time>
      </trkpt>
      <trkpt lat="49.7616" lon="1.37856">
        <ele>64.07</ele>
        <time>2012-07-22T10:05:55Z</time>
      </trkpt>
      <trkpt lat="49.76112" lon="1.37906">
        <ele>64.55</ele>
        <time>2012-07-22T10:06:08Z</time>
      </trkpt>
      <trkpt lat="49.76085" lon="1.37941">
        <ele>64.55</ele>
        <time>2012-07-22T10:06:19Z</time>
      </trkpt>
      <trkpt lat="49.76067" lon="1.37963">
        <ele>65.03</ele>
        <time>2012-07-22T10:06:30Z</time>
      </trkpt>
      <trkpt lat="49.76066" lon="1.37965">
        <ele>65.03</ele>
        <time>2012-07-22T10:06:31Z</time>
      </trkpt>
      <trkpt lat="49.76065" lon="1.37966">
        <ele>65.03</ele>
        <time>2012-07-22T10:06:32Z</time>
      </trkpt>
      <trkpt lat="49.76064" lon="1.37968">
        <ele>65.03</ele>
        <time>2012-07-22T10:06:33Z</time>
      </trkpt>
      <trkpt lat="49.76063" lon="1.37969">
        <ele>65.03</ele>
        <time>2012-07-22T10:06:34Z</time>
      </trkpt>
      <trkpt lat="49.76057" lon="1.37982">
        <ele>65.03</ele>
        <time>2012-07-22T10:06:43Z</time>
      </trkpt>
      <trkpt lat="49.76057" lon="1.37981">
        <ele>65.03</ele>
        <time>2012-07-22T10:07:01Z</time>
      </trkpt>
      <trkpt lat="49.76057" lon="1.37983">
        <ele>65.03</ele>
        <time>2012-07-22T10:07:25Z</time>
      </trkpt>
      <trkpt lat="49.76057" lon="1.37982">
        <ele>64.55</ele>
        <time>2012-07-22T10:07:46Z</time>
      </trkpt>
      <trkpt lat="49.76057" lon="1.37982">
        <ele>64.55</ele>
        <time>2012-07-22T10:08:12Z</time>
      </trkpt>
      <trkpt lat="49.76057" lon="1.37983">
        <ele>65.03</ele>
        <time>2012-07-22T10:08:36Z</time>
      </trkpt>
      <trkpt lat="49.76057" lon="1.37982">
        <ele>64.55</ele>
        <time>2012-07-22T10:08:51Z</time>
      </trkpt>
      <trkpt lat="49.76056" lon="1.37982">
        <ele>64.55</ele>
        <time>2012-07-22T10:09:09Z</time>
      </trkpt>
      <trkpt lat="49.76056" lon="1.37983">
        <ele>64.55</ele>
        <time>2012-07-22T10:09:26Z</time>
      </trkpt>
      <trkpt lat="49.76041" lon="1.38009">
        <ele>64.55</ele>
        <time>2012-07-22T10:09:34Z</time>
      </trkpt>
      <trkpt lat="49.76012" lon="1.38056">
        <ele>64.55</ele>
        <time>2012-07-22T10:09:45Z</time>
      </trkpt>
      <trkpt lat="49.76007" lon="1.38066">
        <ele>64.55</ele>
        <time>2012-07-22T10:09:47Z</time>
      </trkpt>
      <trkpt lat="49.76005" lon="1.38071">
        <ele>65.03</ele>
        <time>2012-07-22T10:09:48Z</time>
      </trkpt>
      <trkpt lat="49.75989" lon="1.38102">
        <ele>64.55</ele>
        <time>2012-07-22T10:09:54Z</time>
      </trkpt>
      <trkpt lat="49.75986" lon="1.38108">
        <ele>64.55</ele>
        <time>2012-07-22T10:09:55Z</time>
      </trkpt>
      <trkpt lat="49.75976" lon="1.38131">
        <ele>65.03</ele>
        <time>2012-07-22T10:09:59Z</time>
      </trkpt>
      <trkpt lat="49.75973" lon="1.38137">
        <ele>64.55</ele>
        <time>2012-07-22T10:10:00Z</time>
      </trkpt>
      <trkpt lat="49.75971" lon="1.38142">
        <ele>64.55</ele>
        <time>2012-07-22T10:10:01Z</time>
      </trkpt>
      <trkpt lat="49.75968" lon="1.38148">
        <ele>65.03</ele>
        <time>2012-07-22T10:10:02Z</time>
      </trkpt>
      <trkpt lat="49.75966" lon="1.38154">
        <ele>64.55</ele>
        <time>2012-07-22T10:10:03Z</time>
      </trkpt>
      <trkpt lat="49.75963" lon="1.38161">
        <ele>64.07</ele>
        <time>2012-07-22T10:10:04Z</time>
      </trkpt>
      <trkpt lat="49.7596" lon="1.38167">
        <ele>65.03</ele>
        <time>2012-07-22T10:10:05Z</time>
      </trkpt>
      <trkpt lat="49.75957" lon="1.38174">
        <ele>65.03</ele>
        <time>2012-07-22T10:10:06Z</time>
      </trkpt>
      <trkpt lat="49.75954" lon="1.3818">
        <ele>65.03</ele>
        <time>2012-07-22T10:10:07Z</time>
      </trkpt>
      <trkpt lat="49.75951" lon="1.38186">
        <ele>65.03</ele>
        <time>2012-07-22T10:10:08Z</time>
      </trkpt>
      <trkpt lat="49.75948" lon="1.38192">
        <ele>64.55</ele>
        <time>2012-07-22T10:10:09Z</time>
      </trkpt>
      <trkpt lat="49.75945" lon="1.38199">
        <ele>65.03</ele>
        <time>2012-07-22T10:10:10Z</time>
      </trkpt>
      <trkpt lat="49.75942" lon="1.38206">
        <ele>65.03</ele>
        <time>2012-07-22T10:10:11Z</time>
      </trkpt>
      <trkpt lat="49.7594" lon="1.38214">
        <ele>65.03</ele>
        <time>2012-07-22T10:10:12Z</time>
      </trkpt>
      <trkpt lat="49.75936" lon="1.38221">
        <ele>65.03</ele>
        <time>2012-07-22T10:10:13Z</time>
      </trkpt>
      <trkpt lat="49.75908" lon="1.38292">
        <ele>65.03</ele>
        <time>2012-07-22T10:10:24Z</time>
      </trkpt>
      <trkpt lat="49.75881" lon="1.38359">
        <ele>65.99</ele>
        <time>2012-07-22T10:10:35Z</time>
      </trkpt>
      <trkpt lat="49.7586" lon="1.38407">
        <ele>65.99</ele>
        <time>2012-07-22T10:10:43Z</time>
      </trkpt>
      <trkpt lat="49.75845" lon="1.38442">
        <ele>66.47</ele>
        <time>2012-07-22T10:10:49Z</time>
      </trkpt>
      <trkpt lat="49.75842" lon="1.38447">
        <ele>66.95</ele>
        <time>2012-07-22T10:10:50Z</time>
      </trkpt>
      <trkpt lat="49.7584" lon="1.38452">
        <ele>66.47</ele>
        <time>2012-07-22T10:10:51Z</time>
      </trkpt>
      <trkpt lat="49.75837" lon="1.38457">
        <ele>66.47</ele>
        <time>2012-07-22T10:10:52Z</time>
      </trkpt>
      <trkpt lat="49.75835" lon="1.38463">
        <ele>66.47</ele>
        <time>2012-07-22T10:10:53Z</time>
      </trkpt>
      <trkpt lat="49.75828" lon="1.38478">
        <ele>66.95</ele>
        <time>2012-07-22T10:10:56Z</time>
      </trkpt>
      <trkpt lat="49.75825" lon="1.38483">
        <ele>66.95</ele>
        <time>2012-07-22T10:10:57Z</time>
      </trkpt>
      <trkpt lat="49.75822" lon="1.38489">
        <ele>66.95</ele>
        <time>2012-07-22T10:10:58Z</time>
      </trkpt>
      <trkpt lat="49.75791" lon="1.38557">
        <ele>67.43</ele>
        <time>2012-07-22T10:11:10Z</time>
      </trkpt>
      <trkpt lat="49.75768" lon="1.38597">
        <ele>67.91</ele>
        <time>2012-07-22T10:11:19Z</time>
      </trkpt>
      <trkpt lat="49.75751" lon="1.38635">
        <ele>67.43</ele>
        <time>2012-07-22T10:11:27Z</time>
      </trkpt>
      <trkpt lat="49.75721" lon="1.38696">
        <ele>67.91</ele>
        <time>2012-07-22T10:11:38Z</time>
      </trkpt>
      <trkpt lat="49.75688" lon="1.38769">
        <ele>68.87</ele>
        <time>2012-07-22T10:11:51Z</time>
      </trkpt>
      <trkpt lat="49.75671" lon="1.388">
        <ele>69.35</ele>
        <time>2012-07-22T10:12:02Z</time>
      </trkpt>
      <trkpt lat="49.75671" lon="1.388">
        <ele>64.07</ele>
        <time>2012-07-22T10:12:03Z</time>
      </trkpt>
      <trkpt lat="49.75671" lon="1.388">
        <ele>70.31</ele>
        <time>2012-07-22T10:12:04Z</time>
      </trkpt>
      <trkpt lat="49.7567" lon="1.38803">
        <ele>69.83</ele>
        <time>2012-07-22T10:12:17Z</time>
      </trkpt>
      <trkpt lat="49.7567" lon="1.38805">
        <ele>68.87</ele>
        <time>2012-07-22T10:12:18Z</time>
      </trkpt>
      <trkpt lat="49.75668" lon="1.38806">
        <ele>69.35</ele>
        <time>2012-07-22T10:12:19Z</time>
      </trkpt>
      <trkpt lat="49.75668" lon="1.38807">
        <ele>69.35</ele>
        <time>2012-07-22T10:12:20Z</time>
      </trkpt>
      <trkpt lat="49.75667" lon="1.38809">
        <ele>68.87</ele>
        <time>2012-07-22T10:12:21Z</time>
      </trkpt>
      <trkpt lat="49.75666" lon="1.38811">
        <ele>69.35</ele>
        <time>2012-07-22T10:12:22Z</time>
      </trkpt>
      <trkpt lat="49.75665" lon="1.38813">
        <ele>68.87</ele>
        <time>2012-07-22T10:12:23Z</time>
      </trkpt>
      <trkpt lat="49.75664" lon="1.38815">
        <ele>68.87</ele>
        <time>2012-07-22T10:12:24Z</time>
      </trkpt>
      <trkpt lat="49.75663" lon="1.38817">
        <ele>69.35</ele>
        <time>2012-07-22T10:12:25Z</time>
      </trkpt>
      <trkpt lat="49.75661" lon="1.38819">
        <ele>69.35</ele>
        <time>2012-07-22T10:12:26Z</time>
      </trkpt>
      <trkpt lat="49.7566" lon="1.38821">
        <ele>69.35</ele>
        <time>2012-07-22T10:12:27Z</time>
      </trkpt>
      <trkpt lat="49.75659" lon="1.38824">
        <ele>69.83</ele>
        <time>2012-07-22T10:12:28Z</time>
      </trkpt>
      <trkpt lat="49.75646" lon="1.38849">
        <ele>70.31</ele>
        <time>2012-07-22T10:12:37Z</time>
      </trkpt>
      <trkpt lat="49.75631" lon="1.38876">
        <ele>70.79</ele>
        <time>2012-07-22T10:12:45Z</time>
      </trkpt>
      <trkpt lat="49.75619" lon="1.38902">
        <ele>70.31</ele>
        <time>2012-07-22T10:12:53Z</time>
      </trkpt>
      <trkpt lat="49.75609" lon="1.38922">
        <ele>70.31</ele>
        <time>2012-07-22T10:13:00Z</time>
      </trkpt>
      <trkpt lat="49.75603" lon="1.38935">
        <ele>70.31</ele>
        <time>2012-07-22T10:13:07Z</time>
      </trkpt>
      <trkpt lat="49.75603" lon="1.38934">
        <ele>70.79</ele>
        <time>2012-07-22T10:13:23Z</time>
      </trkpt>
      <trkpt lat="49.75602" lon="1.38935">
        <ele>70.79</ele>
        <time>2012-07-22T10:13:38Z</time>
      </trkpt>
      <trkpt lat="49.756" lon="1.38937">
        <ele>69.83</ele>
        <time>2012-07-22T10:13:40Z</time>
      </trkpt>
      <trkpt lat="49.75599" lon="1.3894">
        <ele>70.79</ele>
        <time>2012-07-22T10:13:41Z</time>
      </trkpt>
      <trkpt lat="49.75598" lon="1.38942">
        <ele>70.31</ele>
        <time>2012-07-22T10:13:42Z</time>
      </trkpt>
      <trkpt lat="49.75596" lon="1.38945">
        <ele>70.31</ele>
        <time>2012-07-22T10:13:43Z</time>
      </trkpt>
      <trkpt lat="49.75595" lon="1.38948">
        <ele>70.79</ele>
        <time>2012-07-22T10:13:44Z</time>
      </trkpt>
      <trkpt lat="49.75594" lon="1.38951">
        <ele>70.31</ele>
        <time>2012-07-22T10:13:45Z</time>
      </trkpt>
      <trkpt lat="49.75592" lon="1.38954">
        <ele>70.31</ele>
        <time>2012-07-22T10:13:46Z</time>
      </trkpt>
      <trkpt lat="49.7558" lon="1.3898">
        <ele>70.79</ele>
        <time>2012-07-22T10:13:53Z</time>
      </trkpt>
      <trkpt lat="49.75567" lon="1.39011">
        <ele>70.79</ele>
        <time>2012-07-22T10:14:00Z</time>
      </trkpt>
      <trkpt lat="49.7555" lon="1.39044">
        <ele>71.27</ele>
        <time>2012-07-22T10:14:08Z</time>
      </trkpt>
      <trkpt lat="49.75547" lon="1.39047">
        <ele>71.76</ele>
        <time>2012-07-22T10:14:09Z</time>
      </trkpt>
      <trkpt lat="49.7553" lon="1.3908">
        <ele>71.76</ele>
        <time>2012-07-22T10:14:18Z</time>
      </trkpt>
      <trkpt lat="49.75509" lon="1.39119">
        <ele>72.24</ele>
        <time>2012-07-22T10:14:29Z</time>
      </trkpt>
      <trkpt lat="49.75496" lon="1.39148">
        <ele>72.72</ele>
        <time>2012-07-22T10:14:38Z</time>
      </trkpt>
      <trkpt lat="49.75496" lon="1.39147">
        <ele>72.24</ele>
        <time>2012-07-22T10:14:46Z</time>
      </trkpt>
      <trkpt lat="49.75497" lon="1.39148">
        <ele>72.24</ele>
        <time>2012-07-22T10:15:04Z</time>
      </trkpt>
      <trkpt lat="49.75496" lon="1.39149">
        <ele>72.24</ele>
        <time>2012-07-22T10:15:15Z</time>
      </trkpt>
      <trkpt lat="49.75496" lon="1.3915">
        <ele>72.72</ele>
        <time>2012-07-22T10:15:20Z</time>
      </trkpt>
      <trkpt lat="49.75495" lon="1.39151">
        <ele>72.24</ele>
        <time>2012-07-22T10:15:21Z</time>
      </trkpt>
      <trkpt lat="49.75494" lon="1.39153">
        <ele>71.76</ele>
        <time>2012-07-22T10:15:22Z</time>
      </trkpt>
      <trkpt lat="49.75493" lon="1.39156">
        <ele>72.24</ele>
        <time>2012-07-22T10:15:23Z</time>
      </trkpt>
      <trkpt lat="49.75491" lon="1.39159">
        <ele>72.24</ele>
        <time>2012-07-22T10:15:24Z</time>
      </trkpt>
      <trkpt lat="49.75475" lon="1.39195">
        <ele>72.24</ele>
        <time>2012-07-22T10:15:32Z</time>
      </trkpt>
      <trkpt lat="49.75449" lon="1.39265">
        <ele>72.72</ele>
        <time>2012-07-22T10:15:42Z</time>
      </trkpt>
      <trkpt lat="49.75421" lon="1.39343">
        <ele>73.68</ele>
        <time>2012-07-22T10:15:55Z</time>
      </trkpt>
      <trkpt lat="49.75397" lon="1.39421">
        <ele>74.64</ele>
        <time>2012-07-22T10:16:08Z</time>
      </trkpt>
      <trkpt lat="49.75376" lon="1.39505">
        <ele>75.12</ele>
        <time>2012-07-22T10:16:21Z</time>
      </trkpt>
      <trkpt lat="49.75374" lon="1.39512">
        <ele>75.6</ele>
        <time>2012-07-22T10:16:22Z</time>
      </trkpt>
      <trkpt lat="49.75356" lon="1.39599">
        <ele>76.08</ele>
        <time>2012-07-22T10:16:35Z</time>
      </trkpt>
      <trkpt lat="49.75332" lon="1.39698">
        <ele>76.08</ele>
        <time>2012-07-22T10:16:50Z</time>
      </trkpt>
      <trkpt lat="49.75314" lon="1.39794">
        <ele>77.04</ele>
        <time>2012-07-22T10:17:04Z</time>
      </trkpt>
      <trkpt lat="49.75291" lon="1.39891">
        <ele>77.52</ele>
        <time>2012-07-22T10:17:19Z</time>
      </trkpt>
      <trkpt lat="49.75273" lon="1.39972">
        <ele>78</ele>
        <time>2012-07-22T10:17:32Z</time>
      </trkpt>
      <trkpt lat="49.75253" lon="1.40068">
        <ele>78.48</ele>
        <time>2012-07-22T10:17:47Z</time>
      </trkpt>
      <trkpt lat="49.75247" lon="1.40093">
        <ele>78.48</ele>
        <time>2012-07-22T10:17:51Z</time>
      </trkpt>
      <trkpt lat="49.75232" lon="1.40159">
        <ele>79.93</ele>
        <time>2012-07-22T10:18:02Z</time>
      </trkpt>
      <trkpt lat="49.75216" lon="1.40219">
        <ele>80.41</ele>
        <time>2012-07-22T10:18:14Z</time>
      </trkpt>
      <trkpt lat="49.75212" lon="1.40238">
        <ele>79.45</ele>
        <time>2012-07-22T10:18:18Z</time>
      </trkpt>
      <trkpt lat="49.7521" lon="1.40251">
        <ele>80.89</ele>
        <time>2012-07-22T10:18:20Z</time>
      </trkpt>
      <trkpt lat="49.75209" lon="1.40257">
        <ele>80.41</ele>
        <time>2012-07-22T10:18:21Z</time>
      </trkpt>
      <trkpt lat="49.75208" lon="1.40264">
        <ele>80.41</ele>
        <time>2012-07-22T10:18:22Z</time>
      </trkpt>
      <trkpt lat="49.75199" lon="1.40301">
        <ele>80.41</ele>
        <time>2012-07-22T10:18:28Z</time>
      </trkpt>
      <trkpt lat="49.7517" lon="1.40391">
        <ele>81.37</ele>
        <time>2012-07-22T10:18:43Z</time>
      </trkpt>
      <trkpt lat="49.75164" lon="1.40409">
        <ele>81.37</ele>
        <time>2012-07-22T10:18:46Z</time>
      </trkpt>
      <trkpt lat="49.75141" lon="1.40489">
        <ele>81.37</ele>
        <time>2012-07-22T10:18:59Z</time>
      </trkpt>
      <trkpt lat="49.75112" lon="1.4059">
        <ele>81.85</ele>
        <time>2012-07-22T10:19:15Z</time>
      </trkpt>
      <trkpt lat="49.75103" lon="1.4062">
        <ele>82.81</ele>
        <time>2012-07-22T10:19:20Z</time>
      </trkpt>
      <trkpt lat="49.75075" lon="1.40706">
        <ele>83.77</ele>
        <time>2012-07-22T10:19:34Z</time>
      </trkpt>
      <trkpt lat="49.75071" lon="1.40718">
        <ele>82.81</ele>
        <time>2012-07-22T10:19:36Z</time>
      </trkpt>
      <trkpt lat="49.75069" lon="1.40724">
        <ele>83.29</ele>
        <time>2012-07-22T10:19:37Z</time>
      </trkpt>
      <trkpt lat="49.75041" lon="1.40814">
        <ele>83.29</ele>
        <time>2012-07-22T10:19:51Z</time>
      </trkpt>
      <trkpt lat="49.75015" lon="1.40881">
        <ele>84.25</ele>
        <time>2012-07-22T10:20:02Z</time>
      </trkpt>
      <trkpt lat="49.75012" lon="1.40887">
        <ele>84.25</ele>
        <time>2012-07-22T10:20:03Z</time>
      </trkpt>
      <trkpt lat="49.74972" lon="1.40965">
        <ele>84.73</ele>
        <time>2012-07-22T10:20:16Z</time>
      </trkpt>
      <trkpt lat="49.74917" lon="1.41053">
        <ele>84.25</ele>
        <time>2012-07-22T10:20:32Z</time>
      </trkpt>
      <trkpt lat="49.74886" lon="1.41097">
        <ele>84.25</ele>
        <time>2012-07-22T10:20:41Z</time>
      </trkpt>
      <trkpt lat="49.74855" lon="1.4114">
        <ele>83.77</ele>
        <time>2012-07-22T10:20:50Z</time>
      </trkpt>
      <trkpt lat="49.74807" lon="1.41211">
        <ele>83.29</ele>
        <time>2012-07-22T10:21:04Z</time>
      </trkpt>
      <trkpt lat="49.74799" lon="1.4122">
        <ele>83.77</ele>
        <time>2012-07-22T10:21:06Z</time>
      </trkpt>
      <trkpt lat="49.74796" lon="1.41225">
        <ele>83.29</ele>
        <time>2012-07-22T10:21:07Z</time>
      </trkpt>
      <trkpt lat="49.74769" lon="1.41264">
        <ele>82.81</ele>
        <time>2012-07-22T10:21:15Z</time>
      </trkpt>
      <trkpt lat="49.74765" lon="1.41269">
        <ele>82.81</ele>
        <time>2012-07-22T10:21:16Z</time>
      </trkpt>
      <trkpt lat="49.74751" lon="1.41287">
        <ele>82.33</ele>
        <time>2012-07-22T10:21:20Z</time>
      </trkpt>
      <trkpt lat="49.74748" lon="1.41292">
        <ele>82.81</ele>
        <time>2012-07-22T10:21:21Z</time>
      </trkpt>
      <trkpt lat="49.74712" lon="1.41341">
        <ele>82.81</ele>
        <time>2012-07-22T10:21:32Z</time>
      </trkpt>
      <trkpt lat="49.74674" lon="1.41393">
        <ele>81.85</ele>
        <time>2012-07-22T10:21:43Z</time>
      </trkpt>
      <trkpt lat="49.74671" lon="1.41398">
        <ele>81.85</ele>
        <time>2012-07-22T10:21:44Z</time>
      </trkpt>
      <trkpt lat="49.74666" lon="1.4141">
        <ele>81.37</ele>
        <time>2012-07-22T10:21:46Z</time>
      </trkpt>
      <trkpt lat="49.74625" lon="1.41465">
        <ele>81.37</ele>
        <time>2012-07-22T10:21:57Z</time>
      </trkpt>
      <trkpt lat="49.74584" lon="1.41522">
        <ele>80.89</ele>
        <time>2012-07-22T10:22:08Z</time>
      </trkpt>
      <trkpt lat="49.74534" lon="1.41594">
        <ele>81.37</ele>
        <time>2012-07-22T10:22:22Z</time>
      </trkpt>
      <trkpt lat="49.7453" lon="1.41599">
        <ele>81.37</ele>
        <time>2012-07-22T10:22:23Z</time>
      </trkpt>
      <trkpt lat="49.74484" lon="1.41668">
        <ele>81.37</ele>
        <time>2012-07-22T10:22:36Z</time>
      </trkpt>
      <trkpt lat="49.74434" lon="1.41745">
        <ele>81.85</ele>
        <time>2012-07-22T10:22:50Z</time>
      </trkpt>
      <trkpt lat="49.74421" lon="1.41768">
        <ele>81.37</ele>
        <time>2012-07-22T10:22:54Z</time>
      </trkpt>
      <trkpt lat="49.74384" lon="1.41836">
        <ele>81.37</ele>
        <time>2012-07-22T10:23:06Z</time>
      </trkpt>
      <trkpt lat="49.74346" lon="1.41908">
        <ele>81.85</ele>
        <time>2012-07-22T10:23:18Z</time>
      </trkpt>
      <trkpt lat="49.74304" lon="1.41983">
        <ele>81.85</ele>
        <time>2012-07-22T10:23:31Z</time>
      </trkpt>
      <trkpt lat="49.74259" lon="1.42071">
        <ele>82.33</ele>
        <time>2012-07-22T10:23:46Z</time>
      </trkpt>
      <trkpt lat="49.74216" lon="1.42148">
        <ele>83.29</ele>
        <time>2012-07-22T10:23:59Z</time>
      </trkpt>
      <trkpt lat="49.74158" lon="1.42245">
        <ele>83.77</ele>
        <time>2012-07-22T10:24:16Z</time>
      </trkpt>
      <trkpt lat="49.74111" lon="1.42315">
        <ele>83.29</ele>
        <time>2012-07-22T10:24:29Z</time>
      </trkpt>
      <trkpt lat="49.74065" lon="1.42384">
        <ele>81.85</ele>
        <time>2012-07-22T10:24:42Z</time>
      </trkpt>
      <trkpt lat="49.74032" lon="1.42432">
        <ele>81.37</ele>
        <time>2012-07-22T10:24:51Z</time>
      </trkpt>
      <trkpt lat="49.73987" lon="1.42501">
        <ele>80.89</ele>
        <time>2012-07-22T10:25:03Z</time>
      </trkpt>
      <trkpt lat="49.73941" lon="1.42567">
        <ele>80.41</ele>
        <time>2012-07-22T10:25:15Z</time>
      </trkpt>
      <trkpt lat="49.73934" lon="1.42577">
        <ele>79.93</ele>
        <time>2012-07-22T10:25:17Z</time>
      </trkpt>
      <trkpt lat="49.73927" lon="1.42587">
        <ele>80.41</ele>
        <time>2012-07-22T10:25:19Z</time>
      </trkpt>
      <trkpt lat="49.73888" lon="1.42652">
        <ele>79.45</ele>
        <time>2012-07-22T10:25:30Z</time>
      </trkpt>
      <trkpt lat="49.73863" lon="1.42693">
        <ele>79.45</ele>
        <time>2012-07-22T10:25:38Z</time>
      </trkpt>
      <trkpt lat="49.73859" lon="1.42697">
        <ele>79.45</ele>
        <time>2012-07-22T10:25:39Z</time>
      </trkpt>
      <trkpt lat="49.73857" lon="1.42701">
        <ele>79.93</ele>
        <time>2012-07-22T10:25:40Z</time>
      </trkpt>
      <trkpt lat="49.73855" lon="1.42705">
        <ele>79.45</ele>
        <time>2012-07-22T10:25:41Z</time>
      </trkpt>
      <trkpt lat="49.73854" lon="1.42708">
        <ele>79.93</ele>
        <time>2012-07-22T10:25:42Z</time>
      </trkpt>
      <trkpt lat="49.73852" lon="1.42711">
        <ele>80.41</ele>
        <time>2012-07-22T10:25:43Z</time>
      </trkpt>
      <trkpt lat="49.73849" lon="1.42715">
        <ele>79.93</ele>
        <time>2012-07-22T10:25:44Z</time>
      </trkpt>
      <trkpt lat="49.73828" lon="1.42758">
        <ele>79.45</ele>
        <time>2012-07-22T10:25:53Z</time>
      </trkpt>
      <trkpt lat="49.73801" lon="1.42818">
        <ele>78.48</ele>
        <time>2012-07-22T10:26:03Z</time>
      </trkpt>
      <trkpt lat="49.73771" lon="1.42894">
        <ele>78.48</ele>
        <time>2012-07-22T10:26:14Z</time>
      </trkpt>
      <trkpt lat="49.73752" lon="1.42943">
        <ele>78</ele>
        <time>2012-07-22T10:26:21Z</time>
      </trkpt>
      <trkpt lat="49.73749" lon="1.4295">
        <ele>77.52</ele>
        <time>2012-07-22T10:26:22Z</time>
      </trkpt>
      <trkpt lat="49.73721" lon="1.43015">
        <ele>78</ele>
        <time>2012-07-22T10:26:31Z</time>
      </trkpt>
      <trkpt lat="49.73685" lon="1.43099">
        <ele>77.52</ele>
        <time>2012-07-22T10:26:43Z</time>
      </trkpt>
      <trkpt lat="49.73658" lon="1.43157">
        <ele>78.48</ele>
        <time>2012-07-22T10:26:52Z</time>
      </trkpt>
      <trkpt lat="49.7364" lon="1.43185">
        <ele>78</ele>
        <time>2012-07-22T10:27:00Z</time>
      </trkpt>
      <trkpt lat="49.73623" lon="1.43217">
        <ele>78.48</ele>
        <time>2012-07-22T10:27:10Z</time>
      </trkpt>
      <trkpt lat="49.73596" lon="1.43263">
        <ele>78</ele>
        <time>2012-07-22T10:27:20Z</time>
      </trkpt>
      <trkpt lat="49.73557" lon="1.43322">
        <ele>78</ele>
        <time>2012-07-22T10:27:32Z</time>
      </trkpt>
      <trkpt lat="49.73538" lon="1.43348">
        <ele>78</ele>
        <time>2012-07-22T10:27:37Z</time>
      </trkpt>
      <trkpt lat="49.73521" lon="1.4337">
        <ele>77.52</ele>
        <time>2012-07-22T10:27:42Z</time>
      </trkpt>
      <trkpt lat="49.73482" lon="1.43415">
        <ele>78</ele>
        <time>2012-07-22T10:27:53Z</time>
      </trkpt>
      <trkpt lat="49.73419" lon="1.43484">
        <ele>78</ele>
        <time>2012-07-22T10:28:08Z</time>
      </trkpt>
      <trkpt lat="49.73374" lon="1.43539">
        <ele>77.52</ele>
        <time>2012-07-22T10:28:20Z</time>
      </trkpt>
      <trkpt lat="49.7334" lon="1.43578">
        <ele>77.52</ele>
        <time>2012-07-22T10:28:29Z</time>
      </trkpt>
      <trkpt lat="49.73301" lon="1.43619">
        <ele>77.52</ele>
        <time>2012-07-22T10:28:39Z</time>
      </trkpt>
      <trkpt lat="49.73297" lon="1.43622">
        <ele>77.04</ele>
        <time>2012-07-22T10:28:40Z</time>
      </trkpt>
      <trkpt lat="49.73255" lon="1.43662">
        <ele>78</ele>
        <time>2012-07-22T10:28:52Z</time>
      </trkpt>
      <trkpt lat="49.7324" lon="1.43674">
        <ele>78</ele>
        <time>2012-07-22T10:28:56Z</time>
      </trkpt>
      <trkpt lat="49.73195" lon="1.43699">
        <ele>78</ele>
        <time>2012-07-22T10:29:09Z</time>
      </trkpt>
      <trkpt lat="49.73173" lon="1.43707">
        <ele>78</ele>
        <time>2012-07-22T10:29:19Z</time>
      </trkpt>
      <trkpt lat="49.73171" lon="1.43707">
        <ele>78</ele>
        <time>2012-07-22T10:29:20Z</time>
      </trkpt>
      <trkpt lat="49.73169" lon="1.43708">
        <ele>78.48</ele>
        <time>2012-07-22T10:29:21Z</time>
      </trkpt>
      <trkpt lat="49.73167" lon="1.43709">
        <ele>77.52</ele>
        <time>2012-07-22T10:29:22Z</time>
      </trkpt>
      <trkpt lat="49.73165" lon="1.4371">
        <ele>78</ele>
        <time>2012-07-22T10:29:23Z</time>
      </trkpt>
      <trkpt lat="49.73142" lon="1.43719">
        <ele>78.48</ele>
        <time>2012-07-22T10:29:34Z</time>
      </trkpt>
      <trkpt lat="49.73108" lon="1.43725">
        <ele>78</ele>
        <time>2012-07-22T10:29:45Z</time>
      </trkpt>
      <trkpt lat="49.73078" lon="1.43725">
        <ele>78</ele>
        <time>2012-07-22T10:29:55Z</time>
      </trkpt>
      <trkpt lat="49.73051" lon="1.43722">
        <ele>77.52</ele>
        <time>2012-07-22T10:30:04Z</time>
      </trkpt>
      <trkpt lat="49.73027" lon="1.4372">
        <ele>77.52</ele>
        <time>2012-07-22T10:30:12Z</time>
      </trkpt>
      <trkpt lat="49.73004" lon="1.43719">
        <ele>78.48</ele>
        <time>2012-07-22T10:30:18Z</time>
      </trkpt>
      <trkpt lat="49.73" lon="1.4372">
        <ele>78</ele>
        <time>2012-07-22T10:30:19Z</time>
      </trkpt>
      <trkpt lat="49.72996" lon="1.4372">
        <ele>78.48</ele>
        <time>2012-07-22T10:30:20Z</time>
      </trkpt>
      <trkpt lat="49.72991" lon="1.43719">
        <ele>78.48</ele>
        <time>2012-07-22T10:30:21Z</time>
      </trkpt>
      <trkpt lat="49.72987" lon="1.43718">
        <ele>78.48</ele>
        <time>2012-07-22T10:30:22Z</time>
      </trkpt>
      <trkpt lat="49.72983" lon="1.43717">
        <ele>78.97</ele>
        <time>2012-07-22T10:30:23Z</time>
      </trkpt>
      <trkpt lat="49.72979" lon="1.43716">
        <ele>78.48</ele>
        <time>2012-07-22T10:30:24Z</time>
      </trkpt>
      <trkpt lat="49.72953" lon="1.43714">
        <ele>78.97</ele>
        <time>2012-07-22T10:30:30Z</time>
      </trkpt>
      <trkpt lat="49.72948" lon="1.43713">
        <ele>78.97</ele>
        <time>2012-07-22T10:30:31Z</time>
      </trkpt>
      <trkpt lat="49.72889" lon="1.43706">
        <ele>79.93</ele>
        <time>2012-07-22T10:30:44Z</time>
      </trkpt>
      <trkpt lat="49.7287" lon="1.43705">
        <ele>79.93</ele>
        <time>2012-07-22T10:30:48Z</time>
      </trkpt>
      <trkpt lat="49.728" lon="1.43698">
        <ele>81.37</ele>
        <time>2012-07-22T10:31:03Z</time>
      </trkpt>
      <trkpt lat="49.72733" lon="1.43696">
        <ele>81.85</ele>
        <time>2012-07-22T10:31:18Z</time>
      </trkpt>
      <trkpt lat="49.72668" lon="1.4371">
        <ele>82.33</ele>
        <time>2012-07-22T10:31:32Z</time>
      </trkpt>
      <trkpt lat="49.72654" lon="1.43715">
        <ele>82.33</ele>
        <time>2012-07-22T10:31:35Z</time>
      </trkpt>
      <trkpt lat="49.72601" lon="1.43742">
        <ele>83.77</ele>
        <time>2012-07-22T10:31:48Z</time>
      </trkpt>
      <trkpt lat="49.72581" lon="1.43755">
        <ele>84.73</ele>
        <time>2012-07-22T10:31:56Z</time>
      </trkpt>
      <trkpt lat="49.72555" lon="1.43778">
        <ele>83.77</ele>
        <time>2012-07-22T10:32:05Z</time>
      </trkpt>
      <trkpt lat="49.72541" lon="1.43791">
        <ele>83.77</ele>
        <time>2012-07-22T10:32:09Z</time>
      </trkpt>
      <trkpt lat="49.72519" lon="1.43808">
        <ele>84.73</ele>
        <time>2012-07-22T10:32:15Z</time>
      </trkpt>
      <trkpt lat="49.72516" lon="1.43812">
        <ele>84.73</ele>
        <time>2012-07-22T10:32:16Z</time>
      </trkpt>
      <trkpt lat="49.72491" lon="1.43839">
        <ele>84.73</ele>
        <time>2012-07-22T10:32:24Z</time>
      </trkpt>
      <trkpt lat="49.72478" lon="1.43855">
        <ele>85.21</ele>
        <time>2012-07-22T10:32:28Z</time>
      </trkpt>
      <trkpt lat="49.72475" lon="1.43859">
        <ele>85.21</ele>
        <time>2012-07-22T10:32:29Z</time>
      </trkpt>
      <trkpt lat="49.72472" lon="1.43863">
        <ele>85.21</ele>
        <time>2012-07-22T10:32:30Z</time>
      </trkpt>
      <trkpt lat="49.72459" lon="1.43881">
        <ele>84.73</ele>
        <time>2012-07-22T10:32:34Z</time>
      </trkpt>
      <trkpt lat="49.72426" lon="1.43935">
        <ele>85.69</ele>
        <time>2012-07-22T10:32:45Z</time>
      </trkpt>
      <trkpt lat="49.72398" lon="1.43985">
        <ele>85.21</ele>
        <time>2012-07-22T10:32:54Z</time>
      </trkpt>
      <trkpt lat="49.72372" lon="1.4405">
        <ele>85.21</ele>
        <time>2012-07-22T10:33:04Z</time>
      </trkpt>
      <trkpt lat="49.72347" lon="1.44132">
        <ele>85.21</ele>
        <time>2012-07-22T10:33:15Z</time>
      </trkpt>
      <trkpt lat="49.72325" lon="1.44209">
        <ele>85.21</ele>
        <time>2012-07-22T10:33:25Z</time>
      </trkpt>
      <trkpt lat="49.72323" lon="1.44217">
        <ele>85.21</ele>
        <time>2012-07-22T10:33:26Z</time>
      </trkpt>
      <trkpt lat="49.72296" lon="1.44321">
        <ele>84.73</ele>
        <time>2012-07-22T10:33:39Z</time>
      </trkpt>
      <trkpt lat="49.72294" lon="1.44329">
        <ele>84.25</ele>
        <time>2012-07-22T10:33:40Z</time>
      </trkpt>
      <trkpt lat="49.72287" lon="1.44353">
        <ele>84.25</ele>
        <time>2012-07-22T10:33:43Z</time>
      </trkpt>
      <trkpt lat="49.72284" lon="1.44361">
        <ele>84.73</ele>
        <time>2012-07-22T10:33:44Z</time>
      </trkpt>
      <trkpt lat="49.72282" lon="1.44368">
        <ele>84.25</ele>
        <time>2012-07-22T10:33:45Z</time>
      </trkpt>
      <trkpt lat="49.7228" lon="1.44376">
        <ele>84.25</ele>
        <time>2012-07-22T10:33:46Z</time>
      </trkpt>
      <trkpt lat="49.72278" lon="1.44384">
        <ele>84.73</ele>
        <time>2012-07-22T10:33:47Z</time>
      </trkpt>
      <trkpt lat="49.72274" lon="1.444">
        <ele>84.73</ele>
        <time>2012-07-22T10:33:49Z</time>
      </trkpt>
      <trkpt lat="49.72272" lon="1.44408">
        <ele>84.25</ele>
        <time>2012-07-22T10:33:50Z</time>
      </trkpt>
      <trkpt lat="49.7227" lon="1.44417">
        <ele>84.25</ele>
        <time>2012-07-22T10:33:51Z</time>
      </trkpt>
      <trkpt lat="49.72247" lon="1.44503">
        <ele>83.77</ele>
        <time>2012-07-22T10:34:02Z</time>
      </trkpt>
      <trkpt lat="49.72245" lon="1.4451">
        <ele>84.25</ele>
        <time>2012-07-22T10:34:03Z</time>
      </trkpt>
      <trkpt lat="49.72243" lon="1.44517">
        <ele>84.25</ele>
        <time>2012-07-22T10:34:04Z</time>
      </trkpt>
      <trkpt lat="49.72228" lon="1.44574">
        <ele>84.25</ele>
        <time>2012-07-22T10:34:12Z</time>
      </trkpt>
      <trkpt lat="49.72226" lon="1.44582">
        <ele>84.25</ele>
        <time>2012-07-22T10:34:13Z</time>
      </trkpt>
      <trkpt lat="49.72205" lon="1.44658">
        <ele>84.73</ele>
        <time>2012-07-22T10:34:24Z</time>
      </trkpt>
      <trkpt lat="49.72199" lon="1.44679">
        <ele>84.73</ele>
        <time>2012-07-22T10:34:27Z</time>
      </trkpt>
      <trkpt lat="49.72178" lon="1.44764">
        <ele>85.21</ele>
        <time>2012-07-22T10:34:39Z</time>
      </trkpt>
      <trkpt lat="49.72164" lon="1.44814">
        <ele>85.21</ele>
        <time>2012-07-22T10:34:46Z</time>
      </trkpt>
      <trkpt lat="49.72152" lon="1.4485">
        <ele>85.69</ele>
        <time>2012-07-22T10:34:53Z</time>
      </trkpt>
      <trkpt lat="49.72142" lon="1.44891">
        <ele>85.69</ele>
        <time>2012-07-22T10:35:01Z</time>
      </trkpt>
      <trkpt lat="49.7214" lon="1.44897">
        <ele>86.18</ele>
        <time>2012-07-22T10:35:02Z</time>
      </trkpt>
      <trkpt lat="49.72119" lon="1.44973">
        <ele>86.18</ele>
        <time>2012-07-22T10:35:14Z</time>
      </trkpt>
      <trkpt lat="49.72107" lon="1.45013">
        <ele>86.66</ele>
        <time>2012-07-22T10:35:20Z</time>
      </trkpt>
      <trkpt lat="49.72101" lon="1.45029">
        <ele>86.18</ele>
        <time>2012-07-22T10:35:23Z</time>
      </trkpt>
      <trkpt lat="49.72084" lon="1.45076">
        <ele>86.66</ele>
        <time>2012-07-22T10:35:31Z</time>
      </trkpt>
      <trkpt lat="49.7208" lon="1.45088">
        <ele>86.18</ele>
        <time>2012-07-22T10:35:33Z</time>
      </trkpt>
      <trkpt lat="49.72039" lon="1.45177">
        <ele>87.14</ele>
        <time>2012-07-22T10:35:48Z</time>
      </trkpt>
      <trkpt lat="49.72001" lon="1.45251">
        <ele>87.62</ele>
        <time>2012-07-22T10:36:01Z</time>
      </trkpt>
      <trkpt lat="49.71963" lon="1.45315">
        <ele>88.1</ele>
        <time>2012-07-22T10:36:13Z</time>
      </trkpt>
      <trkpt lat="49.71926" lon="1.45373">
        <ele>87.62</ele>
        <time>2012-07-22T10:36:24Z</time>
      </trkpt>
      <trkpt lat="49.7188" lon="1.45429">
        <ele>88.1</ele>
        <time>2012-07-22T10:36:36Z</time>
      </trkpt>
      <trkpt lat="49.7183" lon="1.45487">
        <ele>89.54</ele>
        <time>2012-07-22T10:36:49Z</time>
      </trkpt>
      <trkpt lat="49.71826" lon="1.45492">
        <ele>89.54</ele>
        <time>2012-07-22T10:36:50Z</time>
      </trkpt>
      <trkpt lat="49.71821" lon="1.45496">
        <ele>89.06</ele>
        <time>2012-07-22T10:36:51Z</time>
      </trkpt>
      <trkpt lat="49.71817" lon="1.455">
        <ele>89.06</ele>
        <time>2012-07-22T10:36:52Z</time>
      </trkpt>
      <trkpt lat="49.71813" lon="1.45505">
        <ele>89.06</ele>
        <time>2012-07-22T10:36:53Z</time>
      </trkpt>
      <trkpt lat="49.71762" lon="1.45563">
        <ele>89.54</ele>
        <time>2012-07-22T10:37:06Z</time>
      </trkpt>
      <trkpt lat="49.71712" lon="1.4562">
        <ele>90.98</ele>
        <time>2012-07-22T10:37:19Z</time>
      </trkpt>
      <trkpt lat="49.71684" lon="1.45657">
        <ele>91.46</ele>
        <time>2012-07-22T10:37:30Z</time>
      </trkpt>
      <trkpt lat="49.71681" lon="1.45659">
        <ele>91.46</ele>
        <time>2012-07-22T10:37:37Z</time>
      </trkpt>
      <trkpt lat="49.71677" lon="1.4566">
        <ele>91.94</ele>
        <time>2012-07-22T10:37:47Z</time>
      </trkpt>
      <trkpt lat="49.71677" lon="1.45661">
        <ele>91.46</ele>
        <time>2012-07-22T10:38:08Z</time>
      </trkpt>
      <trkpt lat="49.71678" lon="1.45662">
        <ele>92.42</ele>
        <time>2012-07-22T10:38:33Z</time>
      </trkpt>
      <trkpt lat="49.71678" lon="1.45663">
        <ele>91.94</ele>
        <time>2012-07-22T10:39:07Z</time>
      </trkpt>
      <trkpt lat="49.71678" lon="1.45664">
        <ele>91.94</ele>
        <time>2012-07-22T10:39:39Z</time>
      </trkpt>
      <trkpt lat="49.71678" lon="1.45664">
        <ele>91.94</ele>
        <time>2012-07-22T10:40:01Z</time>
      </trkpt>
      <trkpt lat="49.71679" lon="1.45664">
        <ele>91.46</ele>
        <time>2012-07-22T10:40:23Z</time>
      </trkpt>
      <trkpt lat="49.71679" lon="1.45664">
        <ele>91.46</ele>
        <time>2012-07-22T10:40:45Z</time>
      </trkpt>
      <trkpt lat="49.71679" lon="1.45665">
        <ele>91.94</ele>
        <time>2012-07-22T10:41:09Z</time>
      </trkpt>
      <trkpt lat="49.71678" lon="1.45665">
        <ele>91.94</ele>
        <time>2012-07-22T10:41:35Z</time>
      </trkpt>
      <trkpt lat="49.71677" lon="1.45668">
        <ele>91.46</ele>
        <time>2012-07-22T10:41:48Z</time>
      </trkpt>
      <trkpt lat="49.71676" lon="1.4567">
        <ele>91.46</ele>
        <time>2012-07-22T10:41:49Z</time>
      </trkpt>
      <trkpt lat="49.71675" lon="1.45672">
        <ele>91.46</ele>
        <time>2012-07-22T10:41:50Z</time>
      </trkpt>
      <trkpt lat="49.71673" lon="1.45675">
        <ele>91.46</ele>
        <time>2012-07-22T10:41:51Z</time>
      </trkpt>
      <trkpt lat="49.71672" lon="1.45678">
        <ele>91.94</ele>
        <time>2012-07-22T10:41:52Z</time>
      </trkpt>
      <trkpt lat="49.71669" lon="1.45681">
        <ele>91.94</ele>
        <time>2012-07-22T10:41:53Z</time>
      </trkpt>
      <trkpt lat="49.71667" lon="1.45685">
        <ele>91.94</ele>
        <time>2012-07-22T10:41:54Z</time>
      </trkpt>
      <trkpt lat="49.71644" lon="1.45717">
        <ele>91.94</ele>
        <time>2012-07-22T10:42:03Z</time>
      </trkpt>
      <trkpt lat="49.71624" lon="1.45753">
        <ele>92.42</ele>
        <time>2012-07-22T10:42:13Z</time>
      </trkpt>
      <trkpt lat="49.71611" lon="1.45777">
        <ele>92.42</ele>
        <time>2012-07-22T10:42:22Z</time>
      </trkpt>
      <trkpt lat="49.71595" lon="1.45815">
        <ele>92.42</ele>
        <time>2012-07-22T10:42:30Z</time>
      </trkpt>
      <trkpt lat="49.71566" lon="1.45877">
        <ele>92.42</ele>
        <time>2012-07-22T10:42:42Z</time>
      </trkpt>
      <trkpt lat="49.71538" lon="1.45936">
        <ele>92.42</ele>
        <time>2012-07-22T10:42:53Z</time>
      </trkpt>
      <trkpt lat="49.71519" lon="1.45979">
        <ele>92.9</ele>
        <time>2012-07-22T10:43:01Z</time>
      </trkpt>
      <trkpt lat="49.71517" lon="1.45985">
        <ele>92.9</ele>
        <time>2012-07-22T10:43:02Z</time>
      </trkpt>
      <trkpt lat="49.71509" lon="1.46004">
        <ele>93.39</ele>
        <time>2012-07-22T10:43:05Z</time>
      </trkpt>
      <trkpt lat="49.71501" lon="1.46021">
        <ele>93.39</ele>
        <time>2012-07-22T10:43:08Z</time>
      </trkpt>
      <trkpt lat="49.71487" lon="1.46052">
        <ele>93.87</ele>
        <time>2012-07-22T10:43:13Z</time>
      </trkpt>
      <trkpt lat="49.71448" lon="1.46133">
        <ele>94.35</ele>
        <time>2012-07-22T10:43:27Z</time>
      </trkpt>
      <trkpt lat="49.7141" lon="1.46205">
        <ele>94.35</ele>
        <time>2012-07-22T10:43:40Z</time>
      </trkpt>
      <trkpt lat="49.71367" lon="1.46279">
        <ele>94.83</ele>
        <time>2012-07-22T10:43:54Z</time>
      </trkpt>
      <trkpt lat="49.71321" lon="1.46343">
        <ele>94.83</ele>
        <time>2012-07-22T10:44:07Z</time>
      </trkpt>
      <trkpt lat="49.71288" lon="1.46386">
        <ele>94.83</ele>
        <time>2012-07-22T10:44:16Z</time>
      </trkpt>
      <trkpt lat="49.71285" lon="1.46391">
        <ele>94.35</ele>
        <time>2012-07-22T10:44:17Z</time>
      </trkpt>
      <trkpt lat="49.71231" lon="1.46449">
        <ele>94.83</ele>
        <time>2012-07-22T10:44:30Z</time>
      </trkpt>
      <trkpt lat="49.71169" lon="1.46507">
        <ele>94.35</ele>
        <time>2012-07-22T10:44:45Z</time>
      </trkpt>
      <trkpt lat="49.711" lon="1.4656">
        <ele>94.35</ele>
        <time>2012-07-22T10:45:00Z</time>
      </trkpt>
      <trkpt lat="49.71034" lon="1.46601">
        <ele>95.31</ele>
        <time>2012-07-22T10:45:14Z</time>
      </trkpt>
      <trkpt lat="49.70978" lon="1.46635">
        <ele>95.31</ele>
        <time>2012-07-22T10:45:25Z</time>
      </trkpt>
      <trkpt lat="49.70909" lon="1.46678">
        <ele>94.83</ele>
        <time>2012-07-22T10:45:38Z</time>
      </trkpt>
      <trkpt lat="49.70899" lon="1.46684">
        <ele>94.35</ele>
        <time>2012-07-22T10:45:40Z</time>
      </trkpt>
      <trkpt lat="49.7084" lon="1.46738">
        <ele>95.31</ele>
        <time>2012-07-22T10:45:52Z</time>
      </trkpt>
      <trkpt lat="49.70784" lon="1.46805">
        <ele>95.31</ele>
        <time>2012-07-22T10:46:04Z</time>
      </trkpt>
      <trkpt lat="49.70734" lon="1.46893">
        <ele>95.31</ele>
        <time>2012-07-22T10:46:17Z</time>
      </trkpt>
      <trkpt lat="49.70687" lon="1.47012">
        <ele>94.83</ele>
        <time>2012-07-22T10:46:32Z</time>
      </trkpt>
      <trkpt lat="49.7068" lon="1.47036">
        <ele>94.83</ele>
        <time>2012-07-22T10:46:35Z</time>
      </trkpt>
      <trkpt lat="49.70678" lon="1.47045">
        <ele>95.31</ele>
        <time>2012-07-22T10:46:36Z</time>
      </trkpt>
      <trkpt lat="49.70658" lon="1.47135">
        <ele>94.83</ele>
        <time>2012-07-22T10:46:47Z</time>
      </trkpt>
      <trkpt lat="49.70643" lon="1.47214">
        <ele>94.83</ele>
        <time>2012-07-22T10:46:57Z</time>
      </trkpt>
      <trkpt lat="49.70637" lon="1.47243">
        <ele>94.83</ele>
        <time>2012-07-22T10:47:01Z</time>
      </trkpt>
      <trkpt lat="49.70616" lon="1.47356">
        <ele>95.31</ele>
        <time>2012-07-22T10:47:17Z</time>
      </trkpt>
      <trkpt lat="49.70597" lon="1.47463">
        <ele>94.83</ele>
        <time>2012-07-22T10:47:32Z</time>
      </trkpt>
      <trkpt lat="49.70578" lon="1.47563">
        <ele>94.83</ele>
        <time>2012-07-22T10:47:46Z</time>
      </trkpt>
      <trkpt lat="49.70566" lon="1.47635">
        <ele>95.79</ele>
        <time>2012-07-22T10:47:56Z</time>
      </trkpt>
      <trkpt lat="49.70565" lon="1.47642">
        <ele>95.79</ele>
        <time>2012-07-22T10:47:57Z</time>
      </trkpt>
      <trkpt lat="49.70549" lon="1.47718">
        <ele>96.75</ele>
        <time>2012-07-22T10:48:08Z</time>
      </trkpt>
      <trkpt lat="49.70526" lon="1.47811">
        <ele>96.75</ele>
        <time>2012-07-22T10:48:22Z</time>
      </trkpt>
      <trkpt lat="49.70511" lon="1.47862">
        <ele>98.19</ele>
        <time>2012-07-22T10:48:30Z</time>
      </trkpt>
      <trkpt lat="49.70494" lon="1.47911">
        <ele>97.71</ele>
        <time>2012-07-22T10:48:40Z</time>
      </trkpt>
      <trkpt lat="49.70479" lon="1.47966">
        <ele>98.19</ele>
        <time>2012-07-22T10:48:51Z</time>
      </trkpt>
      <trkpt lat="49.70463" lon="1.48005">
        <ele>98.67</ele>
        <time>2012-07-22T10:48:59Z</time>
      </trkpt>
      <trkpt lat="49.70435" lon="1.48082">
        <ele>99.63</ele>
        <time>2012-07-22T10:49:13Z</time>
      </trkpt>
      <trkpt lat="49.70427" lon="1.48104">
        <ele>98.67</ele>
        <time>2012-07-22T10:49:17Z</time>
      </trkpt>
      <trkpt lat="49.70406" lon="1.48168">
        <ele>99.15</ele>
        <time>2012-07-22T10:49:28Z</time>
      </trkpt>
      <trkpt lat="49.70404" lon="1.48174">
        <ele>100.11</ele>
        <time>2012-07-22T10:49:29Z</time>
      </trkpt>
      <trkpt lat="49.70397" lon="1.48192">
        <ele>100.6</ele>
        <time>2012-07-22T10:49:32Z</time>
      </trkpt>
      <trkpt lat="49.7037" lon="1.48266">
        <ele>99.63</ele>
        <time>2012-07-22T10:49:44Z</time>
      </trkpt>
      <trkpt lat="49.70337" lon="1.48358">
        <ele>100.6</ele>
        <time>2012-07-22T10:49:59Z</time>
      </trkpt>
      <trkpt lat="49.70335" lon="1.48364">
        <ele>100.6</ele>
        <time>2012-07-22T10:50:00Z</time>
      </trkpt>
      <trkpt lat="49.70333" lon="1.4837">
        <ele>100.6</ele>
        <time>2012-07-22T10:50:01Z</time>
      </trkpt>
      <trkpt lat="49.70326" lon="1.48389">
        <ele>100.6</ele>
        <time>2012-07-22T10:50:04Z</time>
      </trkpt>
      <trkpt lat="49.70298" lon="1.4847">
        <ele>101.08</ele>
        <time>2012-07-22T10:50:17Z</time>
      </trkpt>
      <trkpt lat="49.70294" lon="1.48483">
        <ele>101.56</ele>
        <time>2012-07-22T10:50:19Z</time>
      </trkpt>
      <trkpt lat="49.70269" lon="1.48554">
        <ele>101.56</ele>
        <time>2012-07-22T10:50:31Z</time>
      </trkpt>
      <trkpt lat="49.70243" lon="1.48621">
        <ele>102.04</ele>
        <time>2012-07-22T10:50:43Z</time>
      </trkpt>
      <trkpt lat="49.70221" lon="1.4869">
        <ele>101.56</ele>
        <time>2012-07-22T10:50:55Z</time>
      </trkpt>
      <trkpt lat="49.70204" lon="1.4874">
        <ele>101.56</ele>
        <time>2012-07-22T10:51:04Z</time>
      </trkpt>
      <trkpt lat="49.70202" lon="1.48746">
        <ele>101.56</ele>
        <time>2012-07-22T10:51:05Z</time>
      </trkpt>
      <trkpt lat="49.702" lon="1.48751">
        <ele>101.56</ele>
        <time>2012-07-22T10:51:06Z</time>
      </trkpt>
      <trkpt lat="49.70198" lon="1.48757">
        <ele>101.08</ele>
        <time>2012-07-22T10:51:07Z</time>
      </trkpt>
      <trkpt lat="49.70195" lon="1.48763">
        <ele>101.56</ele>
        <time>2012-07-22T10:51:08Z</time>
      </trkpt>
      <trkpt lat="49.70178" lon="1.48808">
        <ele>101.08</ele>
        <time>2012-07-22T10:51:15Z</time>
      </trkpt>
      <trkpt lat="49.70176" lon="1.48815">
        <ele>101.08</ele>
        <time>2012-07-22T10:51:16Z</time>
      </trkpt>
      <trkpt lat="49.70151" lon="1.48885">
        <ele>100.6</ele>
        <time>2012-07-22T10:51:27Z</time>
      </trkpt>
      <trkpt lat="49.70146" lon="1.48898">
        <ele>100.6</ele>
        <time>2012-07-22T10:51:29Z</time>
      </trkpt>
      <trkpt lat="49.70115" lon="1.4898">
        <ele>100.11</ele>
        <time>2012-07-22T10:51:42Z</time>
      </trkpt>
      <trkpt lat="49.7009" lon="1.49039">
        <ele>100.11</ele>
        <time>2012-07-22T10:51:51Z</time>
      </trkpt>
      <trkpt lat="49.70066" lon="1.49091">
        <ele>100.11</ele>
        <time>2012-07-22T10:52:00Z</time>
      </trkpt>
      <trkpt lat="49.70063" lon="1.49096">
        <ele>99.63</ele>
        <time>2012-07-22T10:52:01Z</time>
      </trkpt>
      <trkpt lat="49.70024" lon="1.49168">
        <ele>99.15</ele>
        <time>2012-07-22T10:52:14Z</time>
      </trkpt>
      <trkpt lat="49.6998" lon="1.4924">
        <ele>99.15</ele>
        <time>2012-07-22T10:52:28Z</time>
      </trkpt>
      <trkpt lat="49.69952" lon="1.49279">
        <ele>99.15</ele>
        <time>2012-07-22T10:52:38Z</time>
      </trkpt>
      <trkpt lat="49.69948" lon="1.49283">
        <ele>100.11</ele>
        <time>2012-07-22T10:52:45Z</time>
      </trkpt>
      <trkpt lat="49.69942" lon="1.49291">
        <ele>99.15</ele>
        <time>2012-07-22T10:52:58Z</time>
      </trkpt>
      <trkpt lat="49.69926" lon="1.49317">
        <ele>99.63</ele>
        <time>2012-07-22T10:53:06Z</time>
      </trkpt>
      <trkpt lat="49.69921" lon="1.49325">
        <ele>99.63</ele>
        <time>2012-07-22T10:53:08Z</time>
      </trkpt>
      <trkpt lat="49.69918" lon="1.49328">
        <ele>99.63</ele>
        <time>2012-07-22T10:53:09Z</time>
      </trkpt>
      <trkpt lat="49.69915" lon="1.49333">
        <ele>99.63</ele>
        <time>2012-07-22T10:53:10Z</time>
      </trkpt>
      <trkpt lat="49.69911" lon="1.49338">
        <ele>99.15</ele>
        <time>2012-07-22T10:53:11Z</time>
      </trkpt>
      <trkpt lat="49.69908" lon="1.49343">
        <ele>99.63</ele>
        <time>2012-07-22T10:53:12Z</time>
      </trkpt>
      <trkpt lat="49.69867" lon="1.49389">
        <ele>99.15</ele>
        <time>2012-07-22T10:53:22Z</time>
      </trkpt>
      <trkpt lat="49.69818" lon="1.49436">
        <ele>99.15</ele>
        <time>2012-07-22T10:53:33Z</time>
      </trkpt>
      <trkpt lat="49.69784" lon="1.49465">
        <ele>99.15</ele>
        <time>2012-07-22T10:53:40Z</time>
      </trkpt>
      <trkpt lat="49.6972" lon="1.49517">
        <ele>99.15</ele>
        <time>2012-07-22T10:53:53Z</time>
      </trkpt>
      <trkpt lat="49.6968" lon="1.49543">
        <ele>100.11</ele>
        <time>2012-07-22T10:54:03Z</time>
      </trkpt>
      <trkpt lat="49.69667" lon="1.4955">
        <ele>100.11</ele>
        <time>2012-07-22T10:54:15Z</time>
      </trkpt>
      <trkpt lat="49.69667" lon="1.4955">
        <ele>99.63</ele>
        <time>2012-07-22T10:54:17Z</time>
      </trkpt>
      <trkpt lat="49.69666" lon="1.49552">
        <ele>100.11</ele>
        <time>2012-07-22T10:54:18Z</time>
      </trkpt>
      <trkpt lat="49.69667" lon="1.49553">
        <ele>99.15</ele>
        <time>2012-07-22T10:54:19Z</time>
      </trkpt>
      <trkpt lat="49.69668" lon="1.49552">
        <ele>99.15</ele>
        <time>2012-07-22T10:54:20Z</time>
      </trkpt>
      <trkpt lat="49.6967" lon="1.49551">
        <ele>99.15</ele>
        <time>2012-07-22T10:54:21Z</time>
      </trkpt>
      <trkpt lat="49.69671" lon="1.4955">
        <ele>99.63</ele>
        <time>2012-07-22T10:54:22Z</time>
      </trkpt>
      <trkpt lat="49.69673" lon="1.49548">
        <ele>99.15</ele>
        <time>2012-07-22T10:54:23Z</time>
      </trkpt>
      <trkpt lat="49.69689" lon="1.4954">
        <ele>99.63</ele>
        <time>2012-07-22T10:54:30Z</time>
      </trkpt>
      <trkpt lat="49.6969" lon="1.49537">
        <ele>99.63</ele>
        <time>2012-07-22T10:54:31Z</time>
      </trkpt>
      <trkpt lat="49.69691" lon="1.49535">
        <ele>100.11</ele>
        <time>2012-07-22T10:54:32Z</time>
      </trkpt>
      <trkpt lat="49.69691" lon="1.4953">
        <ele>100.11</ele>
        <time>2012-07-22T10:54:40Z</time>
      </trkpt>
      <trkpt lat="49.6969" lon="1.49527">
        <ele>100.11</ele>
        <time>2012-07-22T10:54:44Z</time>
      </trkpt>
      <trkpt lat="49.69689" lon="1.49527">
        <ele>100.6</ele>
        <time>2012-07-22T10:54:47Z</time>
      </trkpt>
      <trkpt lat="49.69687" lon="1.49527">
        <ele>100.6</ele>
        <time>2012-07-22T10:54:50Z</time>
      </trkpt>
      <trkpt lat="49.69682" lon="1.49527">
        <ele>99.63</ele>
        <time>2012-07-22T10:55:00Z</time>
      </trkpt>
      <trkpt lat="49.69681" lon="1.49529">
        <ele>99.63</ele>
        <time>2012-07-22T10:55:02Z</time>
      </trkpt>
      <trkpt lat="49.69665" lon="1.49528">
        <ele>103</ele>
        <time>2012-07-22T12:35:23Z</time>
      </trkpt>
      <trkpt lat="49.69664" lon="1.49532">
        <ele>97.23</ele>
        <time>2012-07-22T12:35:25Z</time>
      </trkpt>
      <trkpt lat="49.69672" lon="1.49523">
        <ele>97.71</ele>
        <time>2012-07-22T12:35:55Z</time>
      </trkpt>
      <trkpt lat="49.69662" lon="1.49529">
        <ele>97.71</ele>
        <time>2012-07-22T12:36:18Z</time>
      </trkpt>
      <trkpt lat="49.69659" lon="1.49531">
        <ele>98.19</ele>
        <time>2012-07-22T12:36:36Z</time>
      </trkpt>
      <trkpt lat="49.69658" lon="1.49532">
        <ele>97.71</ele>
        <time>2012-07-22T12:36:41Z</time>
      </trkpt>
      <trkpt lat="49.69643" lon="1.49541">
        <ele>98.19</ele>
        <time>2012-07-22T12:36:52Z</time>
      </trkpt>
      <trkpt lat="49.69617" lon="1.49566">
        <ele>97.71</ele>
        <time>2012-07-22T12:37:02Z</time>
      </trkpt>
      <trkpt lat="49.69599" lon="1.49577">
        <ele>97.23</ele>
        <time>2012-07-22T12:37:08Z</time>
      </trkpt>
      <trkpt lat="49.69592" lon="1.49591">
        <ele>98.19</ele>
        <time>2012-07-22T12:37:13Z</time>
      </trkpt>
      <trkpt lat="49.69557" lon="1.49612">
        <ele>97.71</ele>
        <time>2012-07-22T12:37:24Z</time>
      </trkpt>
      <trkpt lat="49.69522" lon="1.49633">
        <ele>97.23</ele>
        <time>2012-07-22T12:37:35Z</time>
      </trkpt>
      <trkpt lat="49.6949" lon="1.49649">
        <ele>97.71</ele>
        <time>2012-07-22T12:37:44Z</time>
      </trkpt>
      <trkpt lat="49.69443" lon="1.49676">
        <ele>97.71</ele>
        <time>2012-07-22T12:37:57Z</time>
      </trkpt>
      <trkpt lat="49.69412" lon="1.4969">
        <ele>98.19</ele>
        <time>2012-07-22T12:38:06Z</time>
      </trkpt>
      <trkpt lat="49.69374" lon="1.49716">
        <ele>99.15</ele>
        <time>2012-07-22T12:38:17Z</time>
      </trkpt>
      <trkpt lat="49.69327" lon="1.49743">
        <ele>99.15</ele>
        <time>2012-07-22T12:38:30Z</time>
      </trkpt>
      <trkpt lat="49.6932" lon="1.49747">
        <ele>99.15</ele>
        <time>2012-07-22T12:38:32Z</time>
      </trkpt>
      <trkpt lat="49.69288" lon="1.49764">
        <ele>99.15</ele>
        <time>2012-07-22T12:38:41Z</time>
      </trkpt>
      <trkpt lat="49.69257" lon="1.49787">
        <ele>99.63</ele>
        <time>2012-07-22T12:38:50Z</time>
      </trkpt>
      <trkpt lat="49.69222" lon="1.49816">
        <ele>100.11</ele>
        <time>2012-07-22T12:39:00Z</time>
      </trkpt>
      <trkpt lat="49.69179" lon="1.49851">
        <ele>100.11</ele>
        <time>2012-07-22T12:39:11Z</time>
      </trkpt>
      <trkpt lat="49.69138" lon="1.49885">
        <ele>101.08</ele>
        <time>2012-07-22T12:39:22Z</time>
      </trkpt>
      <trkpt lat="49.69096" lon="1.49918">
        <ele>101.08</ele>
        <time>2012-07-22T12:39:33Z</time>
      </trkpt>
      <trkpt lat="49.69092" lon="1.49921">
        <ele>100.6</ele>
        <time>2012-07-22T12:39:34Z</time>
      </trkpt>
      <trkpt lat="49.69048" lon="1.49955">
        <ele>101.56</ele>
        <time>2012-07-22T12:39:46Z</time>
      </trkpt>
      <trkpt lat="49.69008" lon="1.49988">
        <ele>101.08</ele>
        <time>2012-07-22T12:39:58Z</time>
      </trkpt>
      <trkpt lat="49.68945" lon="1.50037">
        <ele>101.56</ele>
        <time>2012-07-22T12:40:14Z</time>
      </trkpt>
      <trkpt lat="49.68901" lon="1.50068">
        <ele>101.08</ele>
        <time>2012-07-22T12:40:25Z</time>
      </trkpt>
      <trkpt lat="49.68843" lon="1.501">
        <ele>101.56</ele>
        <time>2012-07-22T12:40:38Z</time>
      </trkpt>
      <trkpt lat="49.68808" lon="1.50114">
        <ele>101.56</ele>
        <time>2012-07-22T12:40:46Z</time>
      </trkpt>
      <trkpt lat="49.68803" lon="1.50116">
        <ele>101.08</ele>
        <time>2012-07-22T12:40:47Z</time>
      </trkpt>
      <trkpt lat="49.68799" lon="1.50117">
        <ele>101.56</ele>
        <time>2012-07-22T12:40:48Z</time>
      </trkpt>
      <trkpt lat="49.68743" lon="1.50132">
        <ele>101.56</ele>
        <time>2012-07-22T12:41:00Z</time>
      </trkpt>
      <trkpt lat="49.68733" lon="1.50134">
        <ele>101.08</ele>
        <time>2012-07-22T12:41:02Z</time>
      </trkpt>
      <trkpt lat="49.68723" lon="1.50135">
        <ele>101.56</ele>
        <time>2012-07-22T12:41:04Z</time>
      </trkpt>
      <trkpt lat="49.68719" lon="1.50136">
        <ele>101.56</ele>
        <time>2012-07-22T12:41:05Z</time>
      </trkpt>
      <trkpt lat="49.68714" lon="1.50137">
        <ele>102.04</ele>
        <time>2012-07-22T12:41:06Z</time>
      </trkpt>
      <trkpt lat="49.68668" lon="1.50136">
        <ele>101.08</ele>
        <time>2012-07-22T12:41:16Z</time>
      </trkpt>
      <trkpt lat="49.68664" lon="1.50136">
        <ele>102.04</ele>
        <time>2012-07-22T12:41:17Z</time>
      </trkpt>
      <trkpt lat="49.6866" lon="1.50135">
        <ele>102.04</ele>
        <time>2012-07-22T12:41:18Z</time>
      </trkpt>
      <trkpt lat="49.68657" lon="1.50135">
        <ele>101.56</ele>
        <time>2012-07-22T12:41:19Z</time>
      </trkpt>
      <trkpt lat="49.68654" lon="1.50134">
        <ele>102.04</ele>
        <time>2012-07-22T12:41:20Z</time>
      </trkpt>
      <trkpt lat="49.68651" lon="1.50133">
        <ele>102.52</ele>
        <time>2012-07-22T12:41:21Z</time>
      </trkpt>
      <trkpt lat="49.6861" lon="1.50129">
        <ele>102.52</ele>
        <time>2012-07-22T12:41:30Z</time>
      </trkpt>
      <trkpt lat="49.68548" lon="1.50125">
        <ele>102.04</ele>
        <time>2012-07-22T12:41:42Z</time>
      </trkpt>
      <trkpt lat="49.68514" lon="1.50121">
        <ele>103</ele>
        <time>2012-07-22T12:41:49Z</time>
      </trkpt>
      <trkpt lat="49.68487" lon="1.50118">
        <ele>103.48</ele>
        <time>2012-07-22T12:41:55Z</time>
      </trkpt>
      <trkpt lat="49.68482" lon="1.50118">
        <ele>103.48</ele>
        <time>2012-07-22T12:41:56Z</time>
      </trkpt>
      <trkpt lat="49.68478" lon="1.50118">
        <ele>103</ele>
        <time>2012-07-22T12:41:57Z</time>
      </trkpt>
      <trkpt lat="49.68441" lon="1.50115">
        <ele>103.48</ele>
        <time>2012-07-22T12:42:05Z</time>
      </trkpt>
      <trkpt lat="49.68404" lon="1.50112">
        <ele>103.96</ele>
        <time>2012-07-22T12:42:13Z</time>
      </trkpt>
      <trkpt lat="49.6835" lon="1.50112">
        <ele>104.44</ele>
        <time>2012-07-22T12:42:24Z</time>
      </trkpt>
      <trkpt lat="49.68277" lon="1.50131">
        <ele>104.92</ele>
        <time>2012-07-22T12:42:39Z</time>
      </trkpt>
      <trkpt lat="49.68235" lon="1.50146">
        <ele>105.4</ele>
        <time>2012-07-22T12:42:48Z</time>
      </trkpt>
      <trkpt lat="49.68171" lon="1.50183">
        <ele>105.4</ele>
        <time>2012-07-22T12:43:02Z</time>
      </trkpt>
      <trkpt lat="49.68124" lon="1.50221">
        <ele>106.36</ele>
        <time>2012-07-22T12:43:13Z</time>
      </trkpt>
      <trkpt lat="49.6812" lon="1.50225">
        <ele>106.36</ele>
        <time>2012-07-22T12:43:14Z</time>
      </trkpt>
      <trkpt lat="49.6807" lon="1.50273">
        <ele>107.32</ele>
        <time>2012-07-22T12:43:26Z</time>
      </trkpt>
      <trkpt lat="49.68023" lon="1.50328">
        <ele>107.81</ele>
        <time>2012-07-22T12:43:38Z</time>
      </trkpt>
      <trkpt lat="49.6802" lon="1.50333">
        <ele>107.32</ele>
        <time>2012-07-22T12:43:39Z</time>
      </trkpt>
      <trkpt lat="49.68016" lon="1.50337">
        <ele>108.29</ele>
        <time>2012-07-22T12:43:40Z</time>
      </trkpt>
      <trkpt lat="49.68013" lon="1.50341">
        <ele>107.81</ele>
        <time>2012-07-22T12:43:41Z</time>
      </trkpt>
      <trkpt lat="49.67975" lon="1.50387">
        <ele>107.81</ele>
        <time>2012-07-22T12:43:53Z</time>
      </trkpt>
      <trkpt lat="49.6795" lon="1.50416">
        <ele>108.29</ele>
        <time>2012-07-22T12:44:02Z</time>
      </trkpt>
      <trkpt lat="49.6792" lon="1.50454">
        <ele>108.77</ele>
        <time>2012-07-22T12:44:13Z</time>
      </trkpt>
      <trkpt lat="49.6789" lon="1.50481">
        <ele>109.25</ele>
        <time>2012-07-22T12:44:23Z</time>
      </trkpt>
      <trkpt lat="49.6786" lon="1.50503">
        <ele>109.73</ele>
        <time>2012-07-22T12:44:32Z</time>
      </trkpt>
      <trkpt lat="49.67822" lon="1.50527">
        <ele>110.21</ele>
        <time>2012-07-22T12:44:42Z</time>
      </trkpt>
      <trkpt lat="49.67786" lon="1.50545">
        <ele>109.73</ele>
        <time>2012-07-22T12:44:51Z</time>
      </trkpt>
      <trkpt lat="49.67759" lon="1.50557">
        <ele>110.69</ele>
        <time>2012-07-22T12:44:57Z</time>
      </trkpt>
      <trkpt lat="49.67705" lon="1.50577">
        <ele>111.17</ele>
        <time>2012-07-22T12:45:09Z</time>
      </trkpt>
      <trkpt lat="49.67647" lon="1.50599">
        <ele>111.65</ele>
        <time>2012-07-22T12:45:22Z</time>
      </trkpt>
      <trkpt lat="49.67592" lon="1.50619">
        <ele>111.65</ele>
        <time>2012-07-22T12:45:34Z</time>
      </trkpt>
      <trkpt lat="49.67547" lon="1.50635">
        <ele>113.09</ele>
        <time>2012-07-22T12:45:45Z</time>
      </trkpt>
      <trkpt lat="49.67518" lon="1.50641">
        <ele>113.09</ele>
        <time>2012-07-22T12:45:55Z</time>
      </trkpt>
      <trkpt lat="49.67491" lon="1.50652">
        <ele>113.09</ele>
        <time>2012-07-22T12:46:06Z</time>
      </trkpt>
      <trkpt lat="49.67441" lon="1.50671">
        <ele>113.09</ele>
        <time>2012-07-22T12:46:22Z</time>
      </trkpt>
      <trkpt lat="49.67401" lon="1.50688">
        <ele>114.53</ele>
        <time>2012-07-22T12:46:34Z</time>
      </trkpt>
      <trkpt lat="49.67367" lon="1.50699">
        <ele>115.01</ele>
        <time>2012-07-22T12:46:44Z</time>
      </trkpt>
      <trkpt lat="49.6733" lon="1.50709">
        <ele>115.5</ele>
        <time>2012-07-22T12:46:54Z</time>
      </trkpt>
      <trkpt lat="49.67274" lon="1.50728">
        <ele>116.46</ele>
        <time>2012-07-22T12:47:09Z</time>
      </trkpt>
      <trkpt lat="49.67233" lon="1.50742">
        <ele>116.46</ele>
        <time>2012-07-22T12:47:20Z</time>
      </trkpt>
      <trkpt lat="49.67185" lon="1.50759">
        <ele>116.94</ele>
        <time>2012-07-22T12:47:32Z</time>
      </trkpt>
      <trkpt lat="49.67149" lon="1.50771">
        <ele>116.94</ele>
        <time>2012-07-22T12:47:42Z</time>
      </trkpt>
      <trkpt lat="49.67125" lon="1.50779">
        <ele>118.38</ele>
        <time>2012-07-22T12:47:52Z</time>
      </trkpt>
      <trkpt lat="49.67093" lon="1.50787">
        <ele>117.42</ele>
        <time>2012-07-22T12:48:03Z</time>
      </trkpt>
      <trkpt lat="49.67054" lon="1.50796">
        <ele>118.38</ele>
        <time>2012-07-22T12:48:14Z</time>
      </trkpt>
      <trkpt lat="49.66999" lon="1.50806">
        <ele>118.86</ele>
        <time>2012-07-22T12:48:29Z</time>
      </trkpt>
      <trkpt lat="49.6695" lon="1.50806">
        <ele>119.34</ele>
        <time>2012-07-22T12:48:42Z</time>
      </trkpt>
      <trkpt lat="49.66915" lon="1.50804">
        <ele>119.34</ele>
        <time>2012-07-22T12:48:51Z</time>
      </trkpt>
      <trkpt lat="49.66876" lon="1.50803">
        <ele>120.3</ele>
        <time>2012-07-22T12:49:01Z</time>
      </trkpt>
      <trkpt lat="49.66845" lon="1.50797">
        <ele>120.78</ele>
        <time>2012-07-22T12:49:09Z</time>
      </trkpt>
      <trkpt lat="49.66787" lon="1.50788">
        <ele>121.74</ele>
        <time>2012-07-22T12:49:23Z</time>
      </trkpt>
      <trkpt lat="49.66746" lon="1.50783">
        <ele>122.22</ele>
        <time>2012-07-22T12:49:33Z</time>
      </trkpt>
      <trkpt lat="49.66708" lon="1.50779">
        <ele>122.22</ele>
        <time>2012-07-22T12:49:42Z</time>
      </trkpt>
      <trkpt lat="49.66671" lon="1.50771">
        <ele>122.71</ele>
        <time>2012-07-22T12:49:51Z</time>
      </trkpt>
      <trkpt lat="49.66635" lon="1.50771">
        <ele>122.71</ele>
        <time>2012-07-22T12:49:59Z</time>
      </trkpt>
      <trkpt lat="49.66581" lon="1.50782">
        <ele>123.19</ele>
        <time>2012-07-22T12:50:11Z</time>
      </trkpt>
      <trkpt lat="49.6655" lon="1.50785">
        <ele>123.19</ele>
        <time>2012-07-22T12:50:19Z</time>
      </trkpt>
      <trkpt lat="49.66517" lon="1.50792">
        <ele>123.67</ele>
        <time>2012-07-22T12:50:28Z</time>
      </trkpt>
      <trkpt lat="49.66484" lon="1.50798">
        <ele>123.67</ele>
        <time>2012-07-22T12:50:37Z</time>
      </trkpt>
      <trkpt lat="49.6645" lon="1.50802">
        <ele>123.67</ele>
        <time>2012-07-22T12:50:46Z</time>
      </trkpt>
      <trkpt lat="49.66417" lon="1.50807">
        <ele>125.11</ele>
        <time>2012-07-22T12:50:54Z</time>
      </trkpt>
      <trkpt lat="49.66414" lon="1.50807">
        <ele>125.11</ele>
        <time>2012-07-22T12:50:55Z</time>
      </trkpt>
      <trkpt lat="49.66412" lon="1.50807">
        <ele>125.11</ele>
        <time>2012-07-22T12:50:56Z</time>
      </trkpt>
      <trkpt lat="49.66379" lon="1.50815">
        <ele>124.63</ele>
        <time>2012-07-22T12:51:04Z</time>
      </trkpt>
      <trkpt lat="49.66341" lon="1.50827">
        <ele>126.07</ele>
        <time>2012-07-22T12:51:12Z</time>
      </trkpt>
      <trkpt lat="49.66302" lon="1.50834">
        <ele>126.07</ele>
        <time>2012-07-22T12:51:22Z</time>
      </trkpt>
      <trkpt lat="49.66293" lon="1.50835">
        <ele>126.07</ele>
        <time>2012-07-22T12:51:24Z</time>
      </trkpt>
      <trkpt lat="49.66256" lon="1.5084">
        <ele>127.03</ele>
        <time>2012-07-22T12:51:34Z</time>
      </trkpt>
      <trkpt lat="49.66219" lon="1.50854">
        <ele>126.55</ele>
        <time>2012-07-22T12:51:45Z</time>
      </trkpt>
      <trkpt lat="49.66196" lon="1.50859">
        <ele>127.51</ele>
        <time>2012-07-22T12:51:53Z</time>
      </trkpt>
      <trkpt lat="49.66167" lon="1.50862">
        <ele>127.99</ele>
        <time>2012-07-22T12:52:02Z</time>
      </trkpt>
      <trkpt lat="49.66127" lon="1.50871">
        <ele>127.99</ele>
        <time>2012-07-22T12:52:14Z</time>
      </trkpt>
      <trkpt lat="49.66079" lon="1.50878">
        <ele>128.47</ele>
        <time>2012-07-22T12:52:28Z</time>
      </trkpt>
      <trkpt lat="49.66044" lon="1.50885">
        <ele>128.95</ele>
        <time>2012-07-22T12:52:38Z</time>
      </trkpt>
      <trkpt lat="49.66" lon="1.50894">
        <ele>128.47</ele>
        <time>2012-07-22T12:52:50Z</time>
      </trkpt>
      <trkpt lat="49.65966" lon="1.50898">
        <ele>129.92</ele>
        <time>2012-07-22T12:53:00Z</time>
      </trkpt>
      <trkpt lat="49.65929" lon="1.50906">
        <ele>129.92</ele>
        <time>2012-07-22T12:53:10Z</time>
      </trkpt>
      <trkpt lat="49.65889" lon="1.50913">
        <ele>130.88</ele>
        <time>2012-07-22T12:53:20Z</time>
      </trkpt>
      <trkpt lat="49.65844" lon="1.50922">
        <ele>130.88</ele>
        <time>2012-07-22T12:53:31Z</time>
      </trkpt>
      <trkpt lat="49.65789" lon="1.50935">
        <ele>131.36</ele>
        <time>2012-07-22T12:53:44Z</time>
      </trkpt>
      <trkpt lat="49.65752" lon="1.50945">
        <ele>132.8</ele>
        <time>2012-07-22T12:53:53Z</time>
      </trkpt>
      <trkpt lat="49.65727" lon="1.50952">
        <ele>133.28</ele>
        <time>2012-07-22T12:53:59Z</time>
      </trkpt>
      <trkpt lat="49.65723" lon="1.50953">
        <ele>133.28</ele>
        <time>2012-07-22T12:54:00Z</time>
      </trkpt>
      <trkpt lat="49.65679" lon="1.50966">
        <ele>134.24</ele>
        <time>2012-07-22T12:54:11Z</time>
      </trkpt>
      <trkpt lat="49.65648" lon="1.50983">
        <ele>134.24</ele>
        <time>2012-07-22T12:54:19Z</time>
      </trkpt>
      <trkpt lat="49.65608" lon="1.51003">
        <ele>134.72</ele>
        <time>2012-07-22T12:54:29Z</time>
      </trkpt>
      <trkpt lat="49.65571" lon="1.51024">
        <ele>135.2</ele>
        <time>2012-07-22T12:54:38Z</time>
      </trkpt>
      <trkpt lat="49.65533" lon="1.51051">
        <ele>134.72</ele>
        <time>2012-07-22T12:54:48Z</time>
      </trkpt>
      <trkpt lat="49.65484" lon="1.51089">
        <ele>136.16</ele>
        <time>2012-07-22T12:55:00Z</time>
      </trkpt>
      <trkpt lat="49.65465" lon="1.51107">
        <ele>136.16</ele>
        <time>2012-07-22T12:55:05Z</time>
      </trkpt>
      <trkpt lat="49.65438" lon="1.5113">
        <ele>136.16</ele>
        <time>2012-07-22T12:55:14Z</time>
      </trkpt>
      <trkpt lat="49.65437" lon="1.51132">
        <ele>136.64</ele>
        <time>2012-07-22T12:55:26Z</time>
      </trkpt>
      <trkpt lat="49.65428" lon="1.51141">
        <ele>135.68</ele>
        <time>2012-07-22T12:55:40Z</time>
      </trkpt>
      <trkpt lat="49.65424" lon="1.51144">
        <ele>136.16</ele>
        <time>2012-07-22T12:55:41Z</time>
      </trkpt>
      <trkpt lat="49.65421" lon="1.51147">
        <ele>136.64</ele>
        <time>2012-07-22T12:55:42Z</time>
      </trkpt>
      <trkpt lat="49.65408" lon="1.5116">
        <ele>136.64</ele>
        <time>2012-07-22T12:55:46Z</time>
      </trkpt>
      <trkpt lat="49.65359" lon="1.51217">
        <ele>137.13</ele>
        <time>2012-07-22T12:56:00Z</time>
      </trkpt>
      <trkpt lat="49.65352" lon="1.51225">
        <ele>137.61</ele>
        <time>2012-07-22T12:56:02Z</time>
      </trkpt>
      <trkpt lat="49.65346" lon="1.51234">
        <ele>137.61</ele>
        <time>2012-07-22T12:56:04Z</time>
      </trkpt>
      <trkpt lat="49.65322" lon="1.51261">
        <ele>138.09</ele>
        <time>2012-07-22T12:56:11Z</time>
      </trkpt>
      <trkpt lat="49.65296" lon="1.51293">
        <ele>138.09</ele>
        <time>2012-07-22T12:56:19Z</time>
      </trkpt>
      <trkpt lat="49.65293" lon="1.51298">
        <ele>138.57</ele>
        <time>2012-07-22T12:56:20Z</time>
      </trkpt>
      <trkpt lat="49.65276" lon="1.51319">
        <ele>138.57</ele>
        <time>2012-07-22T12:56:25Z</time>
      </trkpt>
      <trkpt lat="49.65229" lon="1.51375">
        <ele>139.53</ele>
        <time>2012-07-22T12:56:38Z</time>
      </trkpt>
      <trkpt lat="49.65221" lon="1.51384">
        <ele>139.53</ele>
        <time>2012-07-22T12:56:40Z</time>
      </trkpt>
      <trkpt lat="49.65214" lon="1.51393">
        <ele>139.05</ele>
        <time>2012-07-22T12:56:42Z</time>
      </trkpt>
      <trkpt lat="49.65172" lon="1.51447">
        <ele>140.49</ele>
        <time>2012-07-22T12:56:55Z</time>
      </trkpt>
      <trkpt lat="49.65148" lon="1.51475">
        <ele>140.49</ele>
        <time>2012-07-22T12:57:02Z</time>
      </trkpt>
      <trkpt lat="49.65144" lon="1.51479">
        <ele>140.49</ele>
        <time>2012-07-22T12:57:03Z</time>
      </trkpt>
      <trkpt lat="49.65113" lon="1.51518">
        <ele>140.97</ele>
        <time>2012-07-22T12:57:12Z</time>
      </trkpt>
      <trkpt lat="49.6511" lon="1.51522">
        <ele>140.97</ele>
        <time>2012-07-22T12:57:13Z</time>
      </trkpt>
      <trkpt lat="49.65101" lon="1.51536">
        <ele>140.97</ele>
        <time>2012-07-22T12:57:16Z</time>
      </trkpt>
      <trkpt lat="49.65097" lon="1.51539">
        <ele>141.45</ele>
        <time>2012-07-22T12:57:17Z</time>
      </trkpt>
      <trkpt lat="49.65068" lon="1.51573">
        <ele>141.93</ele>
        <time>2012-07-22T12:57:28Z</time>
      </trkpt>
      <trkpt lat="49.6504" lon="1.51613">
        <ele>142.41</ele>
        <time>2012-07-22T12:57:41Z</time>
      </trkpt>
      <trkpt lat="49.65016" lon="1.51647">
        <ele>142.89</ele>
        <time>2012-07-22T12:57:51Z</time>
      </trkpt>
      <trkpt lat="49.64998" lon="1.51681">
        <ele>142.89</ele>
        <time>2012-07-22T12:57:59Z</time>
      </trkpt>
      <trkpt lat="49.64974" lon="1.51718">
        <ele>143.37</ele>
        <time>2012-07-22T12:58:08Z</time>
      </trkpt>
      <trkpt lat="49.64952" lon="1.51754">
        <ele>143.85</ele>
        <time>2012-07-22T12:58:17Z</time>
      </trkpt>
      <trkpt lat="49.64927" lon="1.51808">
        <ele>144.34</ele>
        <time>2012-07-22T12:58:28Z</time>
      </trkpt>
      <trkpt lat="49.64915" lon="1.51837">
        <ele>144.82</ele>
        <time>2012-07-22T12:58:34Z</time>
      </trkpt>
      <trkpt lat="49.64895" lon="1.51879">
        <ele>144.82</ele>
        <time>2012-07-22T12:58:42Z</time>
      </trkpt>
      <trkpt lat="49.6488" lon="1.51911">
        <ele>144.82</ele>
        <time>2012-07-22T12:58:48Z</time>
      </trkpt>
      <trkpt lat="49.64879" lon="1.51916">
        <ele>144.82</ele>
        <time>2012-07-22T12:58:49Z</time>
      </trkpt>
      <trkpt lat="49.64864" lon="1.51952">
        <ele>144.82</ele>
        <time>2012-07-22T12:58:56Z</time>
      </trkpt>
      <trkpt lat="49.64852" lon="1.51994">
        <ele>145.3</ele>
        <time>2012-07-22T12:59:03Z</time>
      </trkpt>
      <trkpt lat="49.6485" lon="1.52">
        <ele>145.3</ele>
        <time>2012-07-22T12:59:04Z</time>
      </trkpt>
      <trkpt lat="49.64848" lon="1.52006">
        <ele>145.3</ele>
        <time>2012-07-22T12:59:05Z</time>
      </trkpt>
      <trkpt lat="49.64846" lon="1.52012">
        <ele>145.78</ele>
        <time>2012-07-22T12:59:06Z</time>
      </trkpt>
      <trkpt lat="49.64844" lon="1.52017">
        <ele>145.78</ele>
        <time>2012-07-22T12:59:07Z</time>
      </trkpt>
      <trkpt lat="49.64842" lon="1.52023">
        <ele>145.78</ele>
        <time>2012-07-22T12:59:08Z</time>
      </trkpt>
      <trkpt lat="49.6484" lon="1.52029">
        <ele>145.3</ele>
        <time>2012-07-22T12:59:09Z</time>
      </trkpt>
      <trkpt lat="49.64838" lon="1.52035">
        <ele>145.78</ele>
        <time>2012-07-22T12:59:10Z</time>
      </trkpt>
      <trkpt lat="49.64829" lon="1.52065">
        <ele>145.78</ele>
        <time>2012-07-22T12:59:15Z</time>
      </trkpt>
      <trkpt lat="49.64824" lon="1.52083">
        <ele>146.26</ele>
        <time>2012-07-22T12:59:18Z</time>
      </trkpt>
      <trkpt lat="49.64823" lon="1.52089">
        <ele>145.78</ele>
        <time>2012-07-22T12:59:19Z</time>
      </trkpt>
      <trkpt lat="49.64821" lon="1.52096">
        <ele>146.26</ele>
        <time>2012-07-22T12:59:20Z</time>
      </trkpt>
      <trkpt lat="49.64818" lon="1.52102">
        <ele>146.26</ele>
        <time>2012-07-22T12:59:21Z</time>
      </trkpt>
      <trkpt lat="49.64817" lon="1.52108">
        <ele>146.26</ele>
        <time>2012-07-22T12:59:22Z</time>
      </trkpt>
      <trkpt lat="49.64815" lon="1.52114">
        <ele>146.74</ele>
        <time>2012-07-22T12:59:23Z</time>
      </trkpt>
      <trkpt lat="49.64814" lon="1.52121">
        <ele>146.26</ele>
        <time>2012-07-22T12:59:24Z</time>
      </trkpt>
      <trkpt lat="49.64795" lon="1.52196">
        <ele>146.74</ele>
        <time>2012-07-22T12:59:36Z</time>
      </trkpt>
      <trkpt lat="49.64783" lon="1.52251">
        <ele>147.7</ele>
        <time>2012-07-22T12:59:46Z</time>
      </trkpt>
      <trkpt lat="49.64775" lon="1.52311">
        <ele>148.66</ele>
        <time>2012-07-22T12:59:57Z</time>
      </trkpt>
      <trkpt lat="49.6477" lon="1.52362">
        <ele>148.18</ele>
        <time>2012-07-22T13:00:07Z</time>
      </trkpt>
      <trkpt lat="49.6476" lon="1.5242">
        <ele>148.66</ele>
        <time>2012-07-22T13:00:18Z</time>
      </trkpt>
      <trkpt lat="49.64753" lon="1.52485">
        <ele>149.62</ele>
        <time>2012-07-22T13:00:29Z</time>
      </trkpt>
      <trkpt lat="49.64751" lon="1.52497">
        <ele>149.14</ele>
        <time>2012-07-22T13:00:31Z</time>
      </trkpt>
      <trkpt lat="49.64743" lon="1.52579">
        <ele>150.1</ele>
        <time>2012-07-22T13:00:44Z</time>
      </trkpt>
      <trkpt lat="49.64742" lon="1.52585">
        <ele>150.1</ele>
        <time>2012-07-22T13:00:45Z</time>
      </trkpt>
      <trkpt lat="49.64741" lon="1.52591">
        <ele>150.58</ele>
        <time>2012-07-22T13:00:46Z</time>
      </trkpt>
      <trkpt lat="49.64733" lon="1.5264">
        <ele>151.06</ele>
        <time>2012-07-22T13:00:54Z</time>
      </trkpt>
      <trkpt lat="49.64732" lon="1.52646">
        <ele>151.06</ele>
        <time>2012-07-22T13:00:55Z</time>
      </trkpt>
      <trkpt lat="49.64728" lon="1.52697">
        <ele>151.54</ele>
        <time>2012-07-22T13:01:04Z</time>
      </trkpt>
      <trkpt lat="49.64728" lon="1.52703">
        <ele>151.06</ele>
        <time>2012-07-22T13:01:05Z</time>
      </trkpt>
      <trkpt lat="49.64717" lon="1.52795">
        <ele>152.51</ele>
        <time>2012-07-22T13:01:20Z</time>
      </trkpt>
      <trkpt lat="49.64715" lon="1.52807">
        <ele>152.51</ele>
        <time>2012-07-22T13:01:22Z</time>
      </trkpt>
      <trkpt lat="49.64714" lon="1.52813">
        <ele>152.51</ele>
        <time>2012-07-22T13:01:23Z</time>
      </trkpt>
      <trkpt lat="49.647" lon="1.52889">
        <ele>153.47</ele>
        <time>2012-07-22T13:01:35Z</time>
      </trkpt>
      <trkpt lat="49.64679" lon="1.52976">
        <ele>153.95</ele>
        <time>2012-07-22T13:01:49Z</time>
      </trkpt>
      <trkpt lat="49.6466" lon="1.53037">
        <ele>154.91</ele>
        <time>2012-07-22T13:02:00Z</time>
      </trkpt>
      <trkpt lat="49.64641" lon="1.53094">
        <ele>154.91</ele>
        <time>2012-07-22T13:02:11Z</time>
      </trkpt>
      <trkpt lat="49.64624" lon="1.53137">
        <ele>155.39</ele>
        <time>2012-07-22T13:02:20Z</time>
      </trkpt>
      <trkpt lat="49.64608" lon="1.53174">
        <ele>155.87</ele>
        <time>2012-07-22T13:02:29Z</time>
      </trkpt>
      <trkpt lat="49.6459" lon="1.53212">
        <ele>156.35</ele>
        <time>2012-07-22T13:02:40Z</time>
      </trkpt>
      <trkpt lat="49.64572" lon="1.53243">
        <ele>156.83</ele>
        <time>2012-07-22T13:02:53Z</time>
      </trkpt>
      <trkpt lat="49.64571" lon="1.53246">
        <ele>157.79</ele>
        <time>2012-07-22T13:02:54Z</time>
      </trkpt>
      <trkpt lat="49.6457" lon="1.53248">
        <ele>157.31</ele>
        <time>2012-07-22T13:02:55Z</time>
      </trkpt>
      <trkpt lat="49.64569" lon="1.53251">
        <ele>157.31</ele>
        <time>2012-07-22T13:02:56Z</time>
      </trkpt>
      <trkpt lat="49.64567" lon="1.53254">
        <ele>157.31</ele>
        <time>2012-07-22T13:02:57Z</time>
      </trkpt>
      <trkpt lat="49.64566" lon="1.53257">
        <ele>156.83</ele>
        <time>2012-07-22T13:02:58Z</time>
      </trkpt>
      <trkpt lat="49.64565" lon="1.5326">
        <ele>157.31</ele>
        <time>2012-07-22T13:02:59Z</time>
      </trkpt>
      <trkpt lat="49.64564" lon="1.53262">
        <ele>157.31</ele>
        <time>2012-07-22T13:03:00Z</time>
      </trkpt>
      <trkpt lat="49.64563" lon="1.53265">
        <ele>157.31</ele>
        <time>2012-07-22T13:03:01Z</time>
      </trkpt>
      <trkpt lat="49.64561" lon="1.53268">
        <ele>157.31</ele>
        <time>2012-07-22T13:03:02Z</time>
      </trkpt>
      <trkpt lat="49.6456" lon="1.5327">
        <ele>156.83</ele>
        <time>2012-07-22T13:03:03Z</time>
      </trkpt>
      <trkpt lat="49.64543" lon="1.53301">
        <ele>156.83</ele>
        <time>2012-07-22T13:03:14Z</time>
      </trkpt>
      <trkpt lat="49.64521" lon="1.53335">
        <ele>157.79</ele>
        <time>2012-07-22T13:03:24Z</time>
      </trkpt>
      <trkpt lat="49.64492" lon="1.53375">
        <ele>157.31</ele>
        <time>2012-07-22T13:03:34Z</time>
      </trkpt>
      <trkpt lat="49.64463" lon="1.53416">
        <ele>157.79</ele>
        <time>2012-07-22T13:03:44Z</time>
      </trkpt>
      <trkpt lat="49.6443" lon="1.5346">
        <ele>158.75</ele>
        <time>2012-07-22T13:03:55Z</time>
      </trkpt>
      <trkpt lat="49.64417" lon="1.53477">
        <ele>159.24</ele>
        <time>2012-07-22T13:03:59Z</time>
      </trkpt>
      <trkpt lat="49.64407" lon="1.53489">
        <ele>158.75</ele>
        <time>2012-07-22T13:04:02Z</time>
      </trkpt>
      <trkpt lat="49.64367" lon="1.53542">
        <ele>160.2</ele>
        <time>2012-07-22T13:04:14Z</time>
      </trkpt>
      <trkpt lat="49.64353" lon="1.53562">
        <ele>159.72</ele>
        <time>2012-07-22T13:04:18Z</time>
      </trkpt>
      <trkpt lat="49.6435" lon="1.53566">
        <ele>160.2</ele>
        <time>2012-07-22T13:04:19Z</time>
      </trkpt>
      <trkpt lat="49.64306" lon="1.53626">
        <ele>160.2</ele>
        <time>2012-07-22T13:04:32Z</time>
      </trkpt>
      <trkpt lat="49.64296" lon="1.53638">
        <ele>160.68</ele>
        <time>2012-07-22T13:04:35Z</time>
      </trkpt>
      <trkpt lat="49.64251" lon="1.53699">
        <ele>160.68</ele>
        <time>2012-07-22T13:04:49Z</time>
      </trkpt>
      <trkpt lat="49.64247" lon="1.53702">
        <ele>161.16</ele>
        <time>2012-07-22T13:04:50Z</time>
      </trkpt>
      <trkpt lat="49.64222" lon="1.53731">
        <ele>161.16</ele>
        <time>2012-07-22T13:04:59Z</time>
      </trkpt>
      <trkpt lat="49.64199" lon="1.53765">
        <ele>161.64</ele>
        <time>2012-07-22T13:05:08Z</time>
      </trkpt>
      <trkpt lat="49.64162" lon="1.53818">
        <ele>162.12</ele>
        <time>2012-07-22T13:05:21Z</time>
      </trkpt>
      <trkpt lat="49.64121" lon="1.53872">
        <ele>162.6</ele>
        <time>2012-07-22T13:05:34Z</time>
      </trkpt>
      <trkpt lat="49.6408" lon="1.53927">
        <ele>163.56</ele>
        <time>2012-07-22T13:05:47Z</time>
      </trkpt>
      <trkpt lat="49.64043" lon="1.53978">
        <ele>163.56</ele>
        <time>2012-07-22T13:05:59Z</time>
      </trkpt>
      <trkpt lat="49.64021" lon="1.54004">
        <ele>164.04</ele>
        <time>2012-07-22T13:06:06Z</time>
      </trkpt>
      <trkpt lat="49.64011" lon="1.54017">
        <ele>164.52</ele>
        <time>2012-07-22T13:06:09Z</time>
      </trkpt>
      <trkpt lat="49.64008" lon="1.54021">
        <ele>163.56</ele>
        <time>2012-07-22T13:06:10Z</time>
      </trkpt>
      <trkpt lat="49.63977" lon="1.54067">
        <ele>164.04</ele>
        <time>2012-07-22T13:06:20Z</time>
      </trkpt>
      <trkpt lat="49.63974" lon="1.54071">
        <ele>165</ele>
        <time>2012-07-22T13:06:21Z</time>
      </trkpt>
      <trkpt lat="49.6397" lon="1.54076">
        <ele>165</ele>
        <time>2012-07-22T13:06:22Z</time>
      </trkpt>
      <trkpt lat="49.63967" lon="1.5408">
        <ele>165</ele>
        <time>2012-07-22T13:06:23Z</time>
      </trkpt>
      <trkpt lat="49.63964" lon="1.54085">
        <ele>165</ele>
        <time>2012-07-22T13:06:24Z</time>
      </trkpt>
      <trkpt lat="49.6396" lon="1.54089">
        <ele>165</ele>
        <time>2012-07-22T13:06:25Z</time>
      </trkpt>
      <trkpt lat="49.63935" lon="1.54119">
        <ele>165.48</ele>
        <time>2012-07-22T13:06:32Z</time>
      </trkpt>
      <trkpt lat="49.63931" lon="1.54124">
        <ele>165</ele>
        <time>2012-07-22T13:06:33Z</time>
      </trkpt>
      <trkpt lat="49.63892" lon="1.54172">
        <ele>165.48</ele>
        <time>2012-07-22T13:06:44Z</time>
      </trkpt>
      <trkpt lat="49.63884" lon="1.54179">
        <ele>166.45</ele>
        <time>2012-07-22T13:06:46Z</time>
      </trkpt>
      <trkpt lat="49.6387" lon="1.54192">
        <ele>166.45</ele>
        <time>2012-07-22T13:06:50Z</time>
      </trkpt>
      <trkpt lat="49.63867" lon="1.54195">
        <ele>165.96</ele>
        <time>2012-07-22T13:06:51Z</time>
      </trkpt>
      <trkpt lat="49.63834" lon="1.5422">
        <ele>165.96</ele>
        <time>2012-07-22T13:07:00Z</time>
      </trkpt>
      <trkpt lat="49.63798" lon="1.54239">
        <ele>166.93</ele>
        <time>2012-07-22T13:07:09Z</time>
      </trkpt>
      <trkpt lat="49.63759" lon="1.54253">
        <ele>165.96</ele>
        <time>2012-07-22T13:07:19Z</time>
      </trkpt>
      <trkpt lat="49.63747" lon="1.54257">
        <ele>166.45</ele>
        <time>2012-07-22T13:07:22Z</time>
      </trkpt>
      <trkpt lat="49.63743" lon="1.54258">
        <ele>166.45</ele>
        <time>2012-07-22T13:07:23Z</time>
      </trkpt>
      <trkpt lat="49.63706" lon="1.54264">
        <ele>166.93</ele>
        <time>2012-07-22T13:07:32Z</time>
      </trkpt>
      <trkpt lat="49.63702" lon="1.54263">
        <ele>166.93</ele>
        <time>2012-07-22T13:07:33Z</time>
      </trkpt>
      <trkpt lat="49.63698" lon="1.54262">
        <ele>166.93</ele>
        <time>2012-07-22T13:07:34Z</time>
      </trkpt>
      <trkpt lat="49.63694" lon="1.5426">
        <ele>166.93</ele>
        <time>2012-07-22T13:07:35Z</time>
      </trkpt>
      <trkpt lat="49.63689" lon="1.54258">
        <ele>166.93</ele>
        <time>2012-07-22T13:07:36Z</time>
      </trkpt>
      <trkpt lat="49.63651" lon="1.54237">
        <ele>167.41</ele>
        <time>2012-07-22T13:07:45Z</time>
      </trkpt>
      <trkpt lat="49.63619" lon="1.54226">
        <ele>167.41</ele>
        <time>2012-07-22T13:07:53Z</time>
      </trkpt>
      <trkpt lat="49.6361" lon="1.54222">
        <ele>166.45</ele>
        <time>2012-07-22T13:07:55Z</time>
      </trkpt>
      <trkpt lat="49.63549" lon="1.54185">
        <ele>164.04</ele>
        <time>2012-07-22T13:08:08Z</time>
      </trkpt>
      <trkpt lat="49.63512" lon="1.54163">
        <ele>162.12</ele>
        <time>2012-07-22T13:08:15Z</time>
      </trkpt>
      <trkpt lat="49.63509" lon="1.5416">
        <ele>161.64</ele>
        <time>2012-07-22T13:08:16Z</time>
      </trkpt>
      <trkpt lat="49.63505" lon="1.54156">
        <ele>162.6</ele>
        <time>2012-07-22T13:08:17Z</time>
      </trkpt>
      <trkpt lat="49.63502" lon="1.54153">
        <ele>162.12</ele>
        <time>2012-07-22T13:08:18Z</time>
      </trkpt>
      <trkpt lat="49.63499" lon="1.54153">
        <ele>162.12</ele>
        <time>2012-07-22T13:08:19Z</time>
      </trkpt>
      <trkpt lat="49.63497" lon="1.54153">
        <ele>161.64</ele>
        <time>2012-07-22T13:08:20Z</time>
      </trkpt>
      <trkpt lat="49.63496" lon="1.54154">
        <ele>162.12</ele>
        <time>2012-07-22T13:08:21Z</time>
      </trkpt>
      <trkpt lat="49.63494" lon="1.54156">
        <ele>162.6</ele>
        <time>2012-07-22T13:08:22Z</time>
      </trkpt>
      <trkpt lat="49.63493" lon="1.54157">
        <ele>161.64</ele>
        <time>2012-07-22T13:08:23Z</time>
      </trkpt>
      <trkpt lat="49.63493" lon="1.5416">
        <ele>161.16</ele>
        <time>2012-07-22T13:08:24Z</time>
      </trkpt>
      <trkpt lat="49.63492" lon="1.54164">
        <ele>162.12</ele>
        <time>2012-07-22T13:08:25Z</time>
      </trkpt>
      <trkpt lat="49.63492" lon="1.54168">
        <ele>161.16</ele>
        <time>2012-07-22T13:08:26Z</time>
      </trkpt>
      <trkpt lat="49.63492" lon="1.54172">
        <ele>161.16</ele>
        <time>2012-07-22T13:08:27Z</time>
      </trkpt>
      <trkpt lat="49.63486" lon="1.54203">
        <ele>161.64</ele>
        <time>2012-07-22T13:08:35Z</time>
      </trkpt>
      <trkpt lat="49.63486" lon="1.54204">
        <ele>161.16</ele>
        <time>2012-07-22T13:08:36Z</time>
      </trkpt>
      <trkpt lat="49.63485" lon="1.54206">
        <ele>160.68</ele>
        <time>2012-07-22T13:08:37Z</time>
      </trkpt>
      <trkpt lat="49.63484" lon="1.54207">
        <ele>161.64</ele>
        <time>2012-07-22T13:08:38Z</time>
      </trkpt>
      <trkpt lat="49.63483" lon="1.54209">
        <ele>161.16</ele>
        <time>2012-07-22T13:08:39Z</time>
      </trkpt>
      <trkpt lat="49.63482" lon="1.54211">
        <ele>160.68</ele>
        <time>2012-07-22T13:08:40Z</time>
      </trkpt>
      <trkpt lat="49.63481" lon="1.54214">
        <ele>161.64</ele>
        <time>2012-07-22T13:08:42Z</time>
      </trkpt>
      <trkpt lat="49.6348" lon="1.54215">
        <ele>161.64</ele>
        <time>2012-07-22T13:08:43Z</time>
      </trkpt>
      <trkpt lat="49.6348" lon="1.54218">
        <ele>161.16</ele>
        <time>2012-07-22T13:08:44Z</time>
      </trkpt>
      <trkpt lat="49.63479" lon="1.5422">
        <ele>161.16</ele>
        <time>2012-07-22T13:08:45Z</time>
      </trkpt>
      <trkpt lat="49.63477" lon="1.54221">
        <ele>161.16</ele>
        <time>2012-07-22T13:08:46Z</time>
      </trkpt>
      <trkpt lat="49.63475" lon="1.54223">
        <ele>161.64</ele>
        <time>2012-07-22T13:08:55Z</time>
      </trkpt>
      <trkpt lat="49.63475" lon="1.54224">
        <ele>161.16</ele>
        <time>2012-07-22T13:09:13Z</time>
      </trkpt>
      <trkpt lat="49.63473" lon="1.54223">
        <ele>161.64</ele>
        <time>2012-07-22T13:09:15Z</time>
      </trkpt>
      <trkpt lat="49.63451" lon="1.54215">
        <ele>161.16</ele>
        <time>2012-07-22T13:09:23Z</time>
      </trkpt>
      <trkpt lat="49.6344" lon="1.54213">
        <ele>162.12</ele>
        <time>2012-07-22T13:09:26Z</time>
      </trkpt>
      <trkpt lat="49.63413" lon="1.54219">
        <ele>162.12</ele>
        <time>2012-07-22T13:09:35Z</time>
      </trkpt>
      <trkpt lat="49.63389" lon="1.54219">
        <ele>163.56</ele>
        <time>2012-07-22T13:09:44Z</time>
      </trkpt>
      <trkpt lat="49.6336" lon="1.54219">
        <ele>164.04</ele>
        <time>2012-07-22T13:09:52Z</time>
      </trkpt>
      <trkpt lat="49.63327" lon="1.54224">
        <ele>163.56</ele>
        <time>2012-07-22T13:10:02Z</time>
      </trkpt>
      <trkpt lat="49.63286" lon="1.54219">
        <ele>163.08</ele>
        <time>2012-07-22T13:10:14Z</time>
      </trkpt>
      <trkpt lat="49.63233" lon="1.54199">
        <ele>163.08</ele>
        <time>2012-07-22T13:10:28Z</time>
      </trkpt>
      <trkpt lat="49.63199" lon="1.54179">
        <ele>162.12</ele>
        <time>2012-07-22T13:10:38Z</time>
      </trkpt>
      <trkpt lat="49.63176" lon="1.54164">
        <ele>161.64</ele>
        <time>2012-07-22T13:10:44Z</time>
      </trkpt>
      <trkpt lat="49.63172" lon="1.54161">
        <ele>162.12</ele>
        <time>2012-07-22T13:10:45Z</time>
      </trkpt>
      <trkpt lat="49.63168" lon="1.54159">
        <ele>161.64</ele>
        <time>2012-07-22T13:10:46Z</time>
      </trkpt>
      <trkpt lat="49.63132" lon="1.54136">
        <ele>161.16</ele>
        <time>2012-07-22T13:10:55Z</time>
      </trkpt>
      <trkpt lat="49.63108" lon="1.54125">
        <ele>160.68</ele>
        <time>2012-07-22T13:11:00Z</time>
      </trkpt>
      <trkpt lat="49.63103" lon="1.54124">
        <ele>160.2</ele>
        <time>2012-07-22T13:11:01Z</time>
      </trkpt>
      <trkpt lat="49.63097" lon="1.54124">
        <ele>159.72</ele>
        <time>2012-07-22T13:11:02Z</time>
      </trkpt>
      <trkpt lat="49.63079" lon="1.54127">
        <ele>158.75</ele>
        <time>2012-07-22T13:11:05Z</time>
      </trkpt>
      <trkpt lat="49.63073" lon="1.54129">
        <ele>159.24</ele>
        <time>2012-07-22T13:11:06Z</time>
      </trkpt>
      <trkpt lat="49.63061" lon="1.54136">
        <ele>158.75</ele>
        <time>2012-07-22T13:11:08Z</time>
      </trkpt>
      <trkpt lat="49.63045" lon="1.5415">
        <ele>158.75</ele>
        <time>2012-07-22T13:11:11Z</time>
      </trkpt>
      <trkpt lat="49.6304" lon="1.54156">
        <ele>158.27</ele>
        <time>2012-07-22T13:11:12Z</time>
      </trkpt>
      <trkpt lat="49.63036" lon="1.54164">
        <ele>158.27</ele>
        <time>2012-07-22T13:11:13Z</time>
      </trkpt>
      <trkpt lat="49.63033" lon="1.54172">
        <ele>158.75</ele>
        <time>2012-07-22T13:11:14Z</time>
      </trkpt>
      <trkpt lat="49.63031" lon="1.5418">
        <ele>158.75</ele>
        <time>2012-07-22T13:11:15Z</time>
      </trkpt>
      <trkpt lat="49.6303" lon="1.54188">
        <ele>158.27</ele>
        <time>2012-07-22T13:11:16Z</time>
      </trkpt>
      <trkpt lat="49.6303" lon="1.54195">
        <ele>158.75</ele>
        <time>2012-07-22T13:11:17Z</time>
      </trkpt>
      <trkpt lat="49.6303" lon="1.54203">
        <ele>159.24</ele>
        <time>2012-07-22T13:11:18Z</time>
      </trkpt>
      <trkpt lat="49.6303" lon="1.5421">
        <ele>159.24</ele>
        <time>2012-07-22T13:11:19Z</time>
      </trkpt>
      <trkpt lat="49.6303" lon="1.54217">
        <ele>158.75</ele>
        <time>2012-07-22T13:11:20Z</time>
      </trkpt>
      <trkpt lat="49.63029" lon="1.54221">
        <ele>159.24</ele>
        <time>2012-07-22T13:11:21Z</time>
      </trkpt>
      <trkpt lat="49.63027" lon="1.54224">
        <ele>159.24</ele>
        <time>2012-07-22T13:11:22Z</time>
      </trkpt>
      <trkpt lat="49.63025" lon="1.54224">
        <ele>159.72</ele>
        <time>2012-07-22T13:11:23Z</time>
      </trkpt>
      <trkpt lat="49.63022" lon="1.54223">
        <ele>159.72</ele>
        <time>2012-07-22T13:11:24Z</time>
      </trkpt>
      <trkpt lat="49.6302" lon="1.54222">
        <ele>159.72</ele>
        <time>2012-07-22T13:11:25Z</time>
      </trkpt>
      <trkpt lat="49.63018" lon="1.54221">
        <ele>159.72</ele>
        <time>2012-07-22T13:11:26Z</time>
      </trkpt>
      <trkpt lat="49.63016" lon="1.5422">
        <ele>159.72</ele>
        <time>2012-07-22T13:11:27Z</time>
      </trkpt>
      <trkpt lat="49.62989" lon="1.54207">
        <ele>162.12</ele>
        <time>2012-07-22T13:11:39Z</time>
      </trkpt>
      <trkpt lat="49.62956" lon="1.54192">
        <ele>163.56</ele>
        <time>2012-07-22T13:11:51Z</time>
      </trkpt>
      <trkpt lat="49.62925" lon="1.54177">
        <ele>165.48</ele>
        <time>2012-07-22T13:12:02Z</time>
      </trkpt>
      <trkpt lat="49.62894" lon="1.54153">
        <ele>166.93</ele>
        <time>2012-07-22T13:12:14Z</time>
      </trkpt>
      <trkpt lat="49.62864" lon="1.54115">
        <ele>167.89</ele>
        <time>2012-07-22T13:12:27Z</time>
      </trkpt>
      <trkpt lat="49.62836" lon="1.54081">
        <ele>168.37</ele>
        <time>2012-07-22T13:12:39Z</time>
      </trkpt>
      <trkpt lat="49.62808" lon="1.54046">
        <ele>169.81</ele>
        <time>2012-07-22T13:12:51Z</time>
      </trkpt>
      <trkpt lat="49.62778" lon="1.54005">
        <ele>170.77</ele>
        <time>2012-07-22T13:13:04Z</time>
      </trkpt>
      <trkpt lat="49.62754" lon="1.53969">
        <ele>172.21</ele>
        <time>2012-07-22T13:13:16Z</time>
      </trkpt>
      <trkpt lat="49.62746" lon="1.53956">
        <ele>172.21</ele>
        <time>2012-07-22T13:13:22Z</time>
      </trkpt>
      <trkpt lat="49.62745" lon="1.53952">
        <ele>171.73</ele>
        <time>2012-07-22T13:13:23Z</time>
      </trkpt>
      <trkpt lat="49.6273" lon="1.5391">
        <ele>172.69</ele>
        <time>2012-07-22T13:13:37Z</time>
      </trkpt>
      <trkpt lat="49.62719" lon="1.53883">
        <ele>173.17</ele>
        <time>2012-07-22T13:13:48Z</time>
      </trkpt>
      <trkpt lat="49.62717" lon="1.53875">
        <ele>173.17</ele>
        <time>2012-07-22T13:13:51Z</time>
      </trkpt>
      <trkpt lat="49.62715" lon="1.53871">
        <ele>173.17</ele>
        <time>2012-07-22T13:13:53Z</time>
      </trkpt>
      <trkpt lat="49.62712" lon="1.5386">
        <ele>173.17</ele>
        <time>2012-07-22T13:13:58Z</time>
      </trkpt>
      <trkpt lat="49.62709" lon="1.53859">
        <ele>173.66</ele>
        <time>2012-07-22T13:14:01Z</time>
      </trkpt>
      <trkpt lat="49.62709" lon="1.53861">
        <ele>173.66</ele>
        <time>2012-07-22T13:14:02Z</time>
      </trkpt>
      <trkpt lat="49.62709" lon="1.53863">
        <ele>174.14</ele>
        <time>2012-07-22T13:14:03Z</time>
      </trkpt>
      <trkpt lat="49.6271" lon="1.53865">
        <ele>173.17</ele>
        <time>2012-07-22T13:14:04Z</time>
      </trkpt>
      <trkpt lat="49.62711" lon="1.53868">
        <ele>173.17</ele>
        <time>2012-07-22T13:14:05Z</time>
      </trkpt>
      <trkpt lat="49.62712" lon="1.53872">
        <ele>174.14</ele>
        <time>2012-07-22T13:14:06Z</time>
      </trkpt>
      <trkpt lat="49.62714" lon="1.53875">
        <ele>173.17</ele>
        <time>2012-07-22T13:14:07Z</time>
      </trkpt>
      <trkpt lat="49.62716" lon="1.53878">
        <ele>173.17</ele>
        <time>2012-07-22T13:14:08Z</time>
      </trkpt>
      <trkpt lat="49.62717" lon="1.53882">
        <ele>173.66</ele>
        <time>2012-07-22T13:14:09Z</time>
      </trkpt>
      <trkpt lat="49.62726" lon="1.53905">
        <ele>173.17</ele>
        <time>2012-07-22T13:14:16Z</time>
      </trkpt>
      <trkpt lat="49.62725" lon="1.53909">
        <ele>173.17</ele>
        <time>2012-07-22T13:14:17Z</time>
      </trkpt>
      <trkpt lat="49.62723" lon="1.53909">
        <ele>173.17</ele>
        <time>2012-07-22T13:14:18Z</time>
      </trkpt>
      <trkpt lat="49.6272" lon="1.53906">
        <ele>173.17</ele>
        <time>2012-07-22T13:14:20Z</time>
      </trkpt>
      <trkpt lat="49.62718" lon="1.53902">
        <ele>173.17</ele>
        <time>2012-07-22T13:14:21Z</time>
      </trkpt>
      <trkpt lat="49.6271" lon="1.53882">
        <ele>172.21</ele>
        <time>2012-07-22T13:14:25Z</time>
      </trkpt>
      <trkpt lat="49.62707" lon="1.53877">
        <ele>171.25</ele>
        <time>2012-07-22T13:14:26Z</time>
      </trkpt>
      <trkpt lat="49.62703" lon="1.53873">
        <ele>171.73</ele>
        <time>2012-07-22T13:14:27Z</time>
      </trkpt>
      <trkpt lat="49.62699" lon="1.5387">
        <ele>171.25</ele>
        <time>2012-07-22T13:14:28Z</time>
      </trkpt>
      <trkpt lat="49.62693" lon="1.53869">
        <ele>170.77</ele>
        <time>2012-07-22T13:14:29Z</time>
      </trkpt>
      <trkpt lat="49.62637" lon="1.53861">
        <ele>168.37</ele>
        <time>2012-07-22T13:14:38Z</time>
      </trkpt>
      <trkpt lat="49.6263" lon="1.5386">
        <ele>168.37</ele>
        <time>2012-07-22T13:14:39Z</time>
      </trkpt>
      <trkpt lat="49.62592" lon="1.53856">
        <ele>165.96</ele>
        <time>2012-07-22T13:14:44Z</time>
      </trkpt>
      <trkpt lat="49.62584" lon="1.53858">
        <ele>166.93</ele>
        <time>2012-07-22T13:14:45Z</time>
      </trkpt>
      <trkpt lat="49.6257" lon="1.5386">
        <ele>165</ele>
        <time>2012-07-22T13:14:47Z</time>
      </trkpt>
      <trkpt lat="49.62563" lon="1.53858">
        <ele>165.48</ele>
        <time>2012-07-22T13:14:48Z</time>
      </trkpt>
      <trkpt lat="49.62556" lon="1.53855">
        <ele>165.48</ele>
        <time>2012-07-22T13:14:49Z</time>
      </trkpt>
      <trkpt lat="49.62528" lon="1.53841">
        <ele>164.04</ele>
        <time>2012-07-22T13:14:53Z</time>
      </trkpt>
      <trkpt lat="49.62522" lon="1.5384">
        <ele>165</ele>
        <time>2012-07-22T13:14:54Z</time>
      </trkpt>
      <trkpt lat="49.62515" lon="1.53843">
        <ele>164.04</ele>
        <time>2012-07-22T13:14:55Z</time>
      </trkpt>
      <trkpt lat="49.62509" lon="1.53849">
        <ele>164.04</ele>
        <time>2012-07-22T13:14:56Z</time>
      </trkpt>
      <trkpt lat="49.62503" lon="1.53857">
        <ele>163.08</ele>
        <time>2012-07-22T13:14:57Z</time>
      </trkpt>
      <trkpt lat="49.62498" lon="1.53865">
        <ele>163.08</ele>
        <time>2012-07-22T13:14:58Z</time>
      </trkpt>
      <trkpt lat="49.62493" lon="1.53874">
        <ele>163.08</ele>
        <time>2012-07-22T13:14:59Z</time>
      </trkpt>
      <trkpt lat="49.62487" lon="1.53881">
        <ele>163.08</ele>
        <time>2012-07-22T13:15:00Z</time>
      </trkpt>
      <trkpt lat="49.6248" lon="1.53885">
        <ele>162.6</ele>
        <time>2012-07-22T13:15:01Z</time>
      </trkpt>
      <trkpt lat="49.62473" lon="1.53888">
        <ele>163.56</ele>
        <time>2012-07-22T13:15:02Z</time>
      </trkpt>
      <trkpt lat="49.62411" lon="1.53909">
        <ele>163.56</ele>
        <time>2012-07-22T13:15:12Z</time>
      </trkpt>
      <trkpt lat="49.62406" lon="1.53909">
        <ele>163.56</ele>
        <time>2012-07-22T13:15:13Z</time>
      </trkpt>
      <trkpt lat="49.62401" lon="1.53911">
        <ele>164.04</ele>
        <time>2012-07-22T13:15:14Z</time>
      </trkpt>
      <trkpt lat="49.62374" lon="1.53917">
        <ele>165</ele>
        <time>2012-07-22T13:15:22Z</time>
      </trkpt>
      <trkpt lat="49.62366" lon="1.53907">
        <ele>164.52</ele>
        <time>2012-07-22T13:15:30Z</time>
      </trkpt>
      <trkpt lat="49.62359" lon="1.53893">
        <ele>165</ele>
        <time>2012-07-22T13:15:38Z</time>
      </trkpt>
      <trkpt lat="49.62359" lon="1.53889">
        <ele>165.96</ele>
        <time>2012-07-22T13:15:39Z</time>
      </trkpt>
      <trkpt lat="49.62357" lon="1.53886">
        <ele>166.45</ele>
        <time>2012-07-22T13:15:40Z</time>
      </trkpt>
      <trkpt lat="49.62356" lon="1.53883">
        <ele>165.96</ele>
        <time>2012-07-22T13:15:41Z</time>
      </trkpt>
      <trkpt lat="49.62349" lon="1.53869">
        <ele>167.41</ele>
        <time>2012-07-22T13:15:47Z</time>
      </trkpt>
      <trkpt lat="49.62348" lon="1.53867">
        <ele>166.93</ele>
        <time>2012-07-22T13:15:48Z</time>
      </trkpt>
      <trkpt lat="49.62347" lon="1.53865">
        <ele>166.93</ele>
        <time>2012-07-22T13:15:49Z</time>
      </trkpt>
      <trkpt lat="49.62345" lon="1.53862">
        <ele>167.41</ele>
        <time>2012-07-22T13:15:50Z</time>
      </trkpt>
      <trkpt lat="49.62344" lon="1.5386">
        <ele>167.89</ele>
        <time>2012-07-22T13:15:51Z</time>
      </trkpt>
      <trkpt lat="49.62343" lon="1.53858">
        <ele>166.93</ele>
        <time>2012-07-22T13:15:52Z</time>
      </trkpt>
      <trkpt lat="49.62342" lon="1.53853">
        <ele>167.41</ele>
        <time>2012-07-22T13:15:54Z</time>
      </trkpt>
      <trkpt lat="49.62342" lon="1.53851">
        <ele>167.41</ele>
        <time>2012-07-22T13:15:55Z</time>
      </trkpt>
      <trkpt lat="49.62341" lon="1.53848">
        <ele>167.89</ele>
        <time>2012-07-22T13:15:56Z</time>
      </trkpt>
      <trkpt lat="49.6234" lon="1.53844">
        <ele>167.89</ele>
        <time>2012-07-22T13:15:57Z</time>
      </trkpt>
      <trkpt lat="49.62338" lon="1.53841">
        <ele>166.93</ele>
        <time>2012-07-22T13:15:58Z</time>
      </trkpt>
      <trkpt lat="49.62327" lon="1.53812">
        <ele>167.41</ele>
        <time>2012-07-22T13:16:09Z</time>
      </trkpt>
      <trkpt lat="49.62326" lon="1.53807">
        <ele>167.41</ele>
        <time>2012-07-22T13:16:19Z</time>
      </trkpt>
      <trkpt lat="49.62326" lon="1.53807">
        <ele>168.37</ele>
        <time>2012-07-22T13:16:20Z</time>
      </trkpt>
      <trkpt lat="49.62325" lon="1.53806">
        <ele>167.41</ele>
        <time>2012-07-22T13:16:21Z</time>
      </trkpt>
      <trkpt lat="49.6231" lon="1.53774">
        <ele>165.96</ele>
        <time>2012-07-22T13:16:30Z</time>
      </trkpt>
      <trkpt lat="49.62289" lon="1.53726">
        <ele>165</ele>
        <time>2012-07-22T13:16:38Z</time>
      </trkpt>
      <trkpt lat="49.62287" lon="1.53721">
        <ele>164.52</ele>
        <time>2012-07-22T13:16:39Z</time>
      </trkpt>
      <trkpt lat="49.62277" lon="1.53703">
        <ele>164.52</ele>
        <time>2012-07-22T13:16:45Z</time>
      </trkpt>
      <trkpt lat="49.62276" lon="1.53702">
        <ele>165.48</ele>
        <time>2012-07-22T13:16:46Z</time>
      </trkpt>
      <trkpt lat="49.62275" lon="1.53701">
        <ele>164.04</ele>
        <time>2012-07-22T13:16:47Z</time>
      </trkpt>
      <trkpt lat="49.62273" lon="1.53701">
        <ele>164.52</ele>
        <time>2012-07-22T13:16:48Z</time>
      </trkpt>
      <trkpt lat="49.6227" lon="1.53702">
        <ele>164.52</ele>
        <time>2012-07-22T13:16:49Z</time>
      </trkpt>
      <trkpt lat="49.62268" lon="1.53702">
        <ele>164.52</ele>
        <time>2012-07-22T13:16:50Z</time>
      </trkpt>
      <trkpt lat="49.62264" lon="1.53703">
        <ele>164.04</ele>
        <time>2012-07-22T13:16:51Z</time>
      </trkpt>
      <trkpt lat="49.62261" lon="1.53705">
        <ele>163.56</ele>
        <time>2012-07-22T13:16:52Z</time>
      </trkpt>
      <trkpt lat="49.62239" lon="1.53706">
        <ele>163.08</ele>
        <time>2012-07-22T13:16:58Z</time>
      </trkpt>
      <trkpt lat="49.62239" lon="1.53702">
        <ele>162.12</ele>
        <time>2012-07-22T13:16:59Z</time>
      </trkpt>
      <trkpt lat="49.62241" lon="1.53699">
        <ele>162.6</ele>
        <time>2012-07-22T13:17:00Z</time>
      </trkpt>
      <trkpt lat="49.62243" lon="1.53697">
        <ele>162.12</ele>
        <time>2012-07-22T13:17:01Z</time>
      </trkpt>
      <trkpt lat="49.62246" lon="1.53695">
        <ele>162.6</ele>
        <time>2012-07-22T13:17:02Z</time>
      </trkpt>
      <trkpt lat="49.62282" lon="1.5368">
        <ele>161.64</ele>
        <time>2012-07-22T13:17:11Z</time>
      </trkpt>
      <trkpt lat="49.62304" lon="1.53673">
        <ele>161.64</ele>
        <time>2012-07-22T13:17:17Z</time>
      </trkpt>
      <trkpt lat="49.62304" lon="1.53671">
        <ele>161.64</ele>
        <time>2012-07-22T13:17:18Z</time>
      </trkpt>
      <trkpt lat="49.62302" lon="1.53668">
        <ele>161.16</ele>
        <time>2012-07-22T13:17:19Z</time>
      </trkpt>
      <trkpt lat="49.62266" lon="1.53635">
        <ele>161.64</ele>
        <time>2012-07-22T13:17:29Z</time>
      </trkpt>
      <trkpt lat="49.62232" lon="1.53612">
        <ele>160.2</ele>
        <time>2012-07-22T13:17:38Z</time>
      </trkpt>
      <trkpt lat="49.62182" lon="1.53572">
        <ele>160.68</ele>
        <time>2012-07-22T13:17:50Z</time>
      </trkpt>
      <trkpt lat="49.62178" lon="1.53569">
        <ele>159.24</ele>
        <time>2012-07-22T13:17:51Z</time>
      </trkpt>
      <trkpt lat="49.62174" lon="1.53566">
        <ele>160.2</ele>
        <time>2012-07-22T13:17:52Z</time>
      </trkpt>
      <trkpt lat="49.6217" lon="1.53564">
        <ele>159.72</ele>
        <time>2012-07-22T13:17:53Z</time>
      </trkpt>
      <trkpt lat="49.62166" lon="1.53562">
        <ele>159.24</ele>
        <time>2012-07-22T13:17:54Z</time>
      </trkpt>
      <trkpt lat="49.62162" lon="1.53558">
        <ele>159.72</ele>
        <time>2012-07-22T13:17:55Z</time>
      </trkpt>
      <trkpt lat="49.62135" lon="1.53533">
        <ele>159.72</ele>
        <time>2012-07-22T13:18:02Z</time>
      </trkpt>
      <trkpt lat="49.62131" lon="1.5353">
        <ele>159.72</ele>
        <time>2012-07-22T13:18:03Z</time>
      </trkpt>
      <trkpt lat="49.62103" lon="1.53502">
        <ele>159.24</ele>
        <time>2012-07-22T13:18:11Z</time>
      </trkpt>
      <trkpt lat="49.62065" lon="1.5347">
        <ele>157.79</ele>
        <time>2012-07-22T13:18:21Z</time>
      </trkpt>
      <trkpt lat="49.62028" lon="1.53442">
        <ele>157.79</ele>
        <time>2012-07-22T13:18:30Z</time>
      </trkpt>
      <trkpt lat="49.62024" lon="1.53439">
        <ele>157.31</ele>
        <time>2012-07-22T13:18:31Z</time>
      </trkpt>
      <trkpt lat="49.62011" lon="1.5343">
        <ele>157.31</ele>
        <time>2012-07-22T13:18:34Z</time>
      </trkpt>
      <trkpt lat="49.61998" lon="1.53421">
        <ele>157.31</ele>
        <time>2012-07-22T13:18:37Z</time>
      </trkpt>
      <trkpt lat="49.61994" lon="1.53418">
        <ele>157.79</ele>
        <time>2012-07-22T13:18:38Z</time>
      </trkpt>
      <trkpt lat="49.61986" lon="1.53411">
        <ele>156.83</ele>
        <time>2012-07-22T13:18:40Z</time>
      </trkpt>
      <trkpt lat="49.61957" lon="1.53384">
        <ele>156.83</ele>
        <time>2012-07-22T13:18:47Z</time>
      </trkpt>
      <trkpt lat="49.61953" lon="1.5338">
        <ele>156.35</ele>
        <time>2012-07-22T13:18:48Z</time>
      </trkpt>
      <trkpt lat="49.61924" lon="1.53356">
        <ele>156.83</ele>
        <time>2012-07-22T13:18:56Z</time>
      </trkpt>
      <trkpt lat="49.61915" lon="1.53349">
        <ele>155.87</ele>
        <time>2012-07-22T13:18:58Z</time>
      </trkpt>
      <trkpt lat="49.61892" lon="1.53334">
        <ele>156.35</ele>
        <time>2012-07-22T13:19:03Z</time>
      </trkpt>
      <trkpt lat="49.61887" lon="1.53332">
        <ele>156.35</ele>
        <time>2012-07-22T13:19:04Z</time>
      </trkpt>
      <trkpt lat="49.61873" lon="1.53326">
        <ele>155.87</ele>
        <time>2012-07-22T13:19:07Z</time>
      </trkpt>
      <trkpt lat="49.61852" lon="1.53312">
        <ele>155.87</ele>
        <time>2012-07-22T13:19:12Z</time>
      </trkpt>
      <trkpt lat="49.61848" lon="1.53309">
        <ele>155.87</ele>
        <time>2012-07-22T13:19:13Z</time>
      </trkpt>
      <trkpt lat="49.6184" lon="1.53305">
        <ele>156.35</ele>
        <time>2012-07-22T13:19:15Z</time>
      </trkpt>
      <trkpt lat="49.61831" lon="1.53302">
        <ele>155.39</ele>
        <time>2012-07-22T13:19:17Z</time>
      </trkpt>
      <trkpt lat="49.61827" lon="1.53299">
        <ele>156.35</ele>
        <time>2012-07-22T13:19:18Z</time>
      </trkpt>
      <trkpt lat="49.61803" lon="1.53287">
        <ele>155.39</ele>
        <time>2012-07-22T13:19:23Z</time>
      </trkpt>
      <trkpt lat="49.61799" lon="1.53283">
        <ele>155.39</ele>
        <time>2012-07-22T13:19:24Z</time>
      </trkpt>
      <trkpt lat="49.61794" lon="1.5328">
        <ele>155.39</ele>
        <time>2012-07-22T13:19:25Z</time>
      </trkpt>
      <trkpt lat="49.61784" lon="1.53274">
        <ele>155.39</ele>
        <time>2012-07-22T13:19:27Z</time>
      </trkpt>
      <trkpt lat="49.61779" lon="1.53272">
        <ele>154.91</ele>
        <time>2012-07-22T13:19:28Z</time>
      </trkpt>
      <trkpt lat="49.61774" lon="1.53271">
        <ele>154.91</ele>
        <time>2012-07-22T13:19:29Z</time>
      </trkpt>
      <trkpt lat="49.61737" lon="1.53259">
        <ele>154.91</ele>
        <time>2012-07-22T13:19:36Z</time>
      </trkpt>
      <trkpt lat="49.61731" lon="1.53258">
        <ele>154.91</ele>
        <time>2012-07-22T13:19:37Z</time>
      </trkpt>
      <trkpt lat="49.61715" lon="1.53252">
        <ele>154.43</ele>
        <time>2012-07-22T13:19:40Z</time>
      </trkpt>
      <trkpt lat="49.6171" lon="1.5325">
        <ele>153.95</ele>
        <time>2012-07-22T13:19:41Z</time>
      </trkpt>
      <trkpt lat="49.61701" lon="1.53245">
        <ele>153.95</ele>
        <time>2012-07-22T13:19:43Z</time>
      </trkpt>
      <trkpt lat="49.61696" lon="1.53244">
        <ele>153.95</ele>
        <time>2012-07-22T13:19:44Z</time>
      </trkpt>
      <trkpt lat="49.61691" lon="1.53242">
        <ele>154.91</ele>
        <time>2012-07-22T13:19:45Z</time>
      </trkpt>
      <trkpt lat="49.61669" lon="1.53237">
        <ele>153.95</ele>
        <time>2012-07-22T13:19:49Z</time>
      </trkpt>
      <trkpt lat="49.61652" lon="1.53234">
        <ele>153.95</ele>
        <time>2012-07-22T13:19:52Z</time>
      </trkpt>
      <trkpt lat="49.61647" lon="1.53234">
        <ele>153.95</ele>
        <time>2012-07-22T13:19:53Z</time>
      </trkpt>
      <trkpt lat="49.61642" lon="1.53233">
        <ele>154.43</ele>
        <time>2012-07-22T13:19:54Z</time>
      </trkpt>
      <trkpt lat="49.61637" lon="1.53233">
        <ele>153.47</ele>
        <time>2012-07-22T13:19:55Z</time>
      </trkpt>
      <trkpt lat="49.61632" lon="1.53233">
        <ele>153.95</ele>
        <time>2012-07-22T13:19:56Z</time>
      </trkpt>
      <trkpt lat="49.61602" lon="1.53229">
        <ele>153.47</ele>
        <time>2012-07-22T13:20:02Z</time>
      </trkpt>
      <trkpt lat="49.61592" lon="1.53227">
        <ele>152.99</ele>
        <time>2012-07-22T13:20:04Z</time>
      </trkpt>
      <trkpt lat="49.61581" lon="1.53228">
        <ele>153.47</ele>
        <time>2012-07-22T13:20:06Z</time>
      </trkpt>
      <trkpt lat="49.61575" lon="1.53228">
        <ele>152.99</ele>
        <time>2012-07-22T13:20:07Z</time>
      </trkpt>
      <trkpt lat="49.6156" lon="1.53229">
        <ele>152.99</ele>
        <time>2012-07-22T13:20:10Z</time>
      </trkpt>
      <trkpt lat="49.6155" lon="1.5323">
        <ele>152.99</ele>
        <time>2012-07-22T13:20:12Z</time>
      </trkpt>
      <trkpt lat="49.61535" lon="1.53231">
        <ele>152.51</ele>
        <time>2012-07-22T13:20:15Z</time>
      </trkpt>
      <trkpt lat="49.6153" lon="1.53232">
        <ele>152.51</ele>
        <time>2012-07-22T13:20:16Z</time>
      </trkpt>
      <trkpt lat="49.61506" lon="1.53238">
        <ele>152.51</ele>
        <time>2012-07-22T13:20:21Z</time>
      </trkpt>
      <trkpt lat="49.61497" lon="1.53241">
        <ele>152.51</ele>
        <time>2012-07-22T13:20:23Z</time>
      </trkpt>
      <trkpt lat="49.61469" lon="1.53247">
        <ele>152.03</ele>
        <time>2012-07-22T13:20:29Z</time>
      </trkpt>
      <trkpt lat="49.61465" lon="1.53249">
        <ele>151.54</ele>
        <time>2012-07-22T13:20:30Z</time>
      </trkpt>
      <trkpt lat="49.61456" lon="1.53251">
        <ele>151.54</ele>
        <time>2012-07-22T13:20:32Z</time>
      </trkpt>
      <trkpt lat="49.61452" lon="1.53251">
        <ele>151.54</ele>
        <time>2012-07-22T13:20:33Z</time>
      </trkpt>
      <trkpt lat="49.61448" lon="1.53252">
        <ele>150.1</ele>
        <time>2012-07-22T13:20:34Z</time>
      </trkpt>
      <trkpt lat="49.6144" lon="1.53253">
        <ele>151.54</ele>
        <time>2012-07-22T13:20:36Z</time>
      </trkpt>
      <trkpt lat="49.61422" lon="1.53259">
        <ele>151.06</ele>
        <time>2012-07-22T13:20:40Z</time>
      </trkpt>
      <trkpt lat="49.61413" lon="1.53262">
        <ele>151.54</ele>
        <time>2012-07-22T13:20:42Z</time>
      </trkpt>
      <trkpt lat="49.61408" lon="1.53263">
        <ele>151.06</ele>
        <time>2012-07-22T13:20:43Z</time>
      </trkpt>
      <trkpt lat="49.61403" lon="1.53264">
        <ele>150.58</ele>
        <time>2012-07-22T13:20:44Z</time>
      </trkpt>
      <trkpt lat="49.61368" lon="1.53277">
        <ele>150.1</ele>
        <time>2012-07-22T13:20:51Z</time>
      </trkpt>
      <trkpt lat="49.61358" lon="1.53281">
        <ele>150.58</ele>
        <time>2012-07-22T13:20:53Z</time>
      </trkpt>
      <trkpt lat="49.61353" lon="1.53284">
        <ele>150.58</ele>
        <time>2012-07-22T13:20:54Z</time>
      </trkpt>
      <trkpt lat="49.61307" lon="1.53309">
        <ele>149.62</ele>
        <time>2012-07-22T13:21:03Z</time>
      </trkpt>
      <trkpt lat="49.6126" lon="1.53333">
        <ele>149.14</ele>
        <time>2012-07-22T13:21:13Z</time>
      </trkpt>
      <trkpt lat="49.61248" lon="1.53339">
        <ele>149.62</ele>
        <time>2012-07-22T13:21:19Z</time>
      </trkpt>
      <trkpt lat="49.61233" lon="1.53348">
        <ele>149.14</ele>
        <time>2012-07-22T13:21:28Z</time>
      </trkpt>
      <trkpt lat="49.61206" lon="1.53361">
        <ele>149.14</ele>
        <time>2012-07-22T13:21:36Z</time>
      </trkpt>
      <trkpt lat="49.61178" lon="1.53377">
        <ele>148.66</ele>
        <time>2012-07-22T13:21:43Z</time>
      </trkpt>
      <trkpt lat="49.61173" lon="1.53379">
        <ele>148.18</ele>
        <time>2012-07-22T13:21:44Z</time>
      </trkpt>
      <trkpt lat="49.61169" lon="1.5338">
        <ele>148.66</ele>
        <time>2012-07-22T13:21:45Z</time>
      </trkpt>
      <trkpt lat="49.61142" lon="1.53396">
        <ele>147.7</ele>
        <time>2012-07-22T13:21:51Z</time>
      </trkpt>
      <trkpt lat="49.61133" lon="1.534">
        <ele>147.7</ele>
        <time>2012-07-22T13:21:53Z</time>
      </trkpt>
      <trkpt lat="49.61115" lon="1.53409">
        <ele>147.7</ele>
        <time>2012-07-22T13:21:57Z</time>
      </trkpt>
      <trkpt lat="49.61067" lon="1.53434">
        <ele>147.22</ele>
        <time>2012-07-22T13:22:07Z</time>
      </trkpt>
      <trkpt lat="49.61039" lon="1.53451">
        <ele>146.74</ele>
        <time>2012-07-22T13:22:13Z</time>
      </trkpt>
      <trkpt lat="49.61034" lon="1.53453">
        <ele>146.26</ele>
        <time>2012-07-22T13:22:14Z</time>
      </trkpt>
      <trkpt lat="49.61024" lon="1.53458">
        <ele>145.78</ele>
        <time>2012-07-22T13:22:16Z</time>
      </trkpt>
      <trkpt lat="49.60969" lon="1.53484">
        <ele>146.26</ele>
        <time>2012-07-22T13:22:26Z</time>
      </trkpt>
      <trkpt lat="49.60927" lon="1.5351">
        <ele>145.78</ele>
        <time>2012-07-22T13:22:34Z</time>
      </trkpt>
      <trkpt lat="49.60921" lon="1.53513">
        <ele>145.78</ele>
        <time>2012-07-22T13:22:35Z</time>
      </trkpt>
      <trkpt lat="49.60916" lon="1.53516">
        <ele>145.3</ele>
        <time>2012-07-22T13:22:36Z</time>
      </trkpt>
      <trkpt lat="49.60907" lon="1.53521">
        <ele>145.78</ele>
        <time>2012-07-22T13:22:38Z</time>
      </trkpt>
      <trkpt lat="49.60894" lon="1.53526">
        <ele>145.3</ele>
        <time>2012-07-22T13:22:41Z</time>
      </trkpt>
      <trkpt lat="49.6089" lon="1.53527">
        <ele>145.78</ele>
        <time>2012-07-22T13:22:42Z</time>
      </trkpt>
      <trkpt lat="49.60863" lon="1.53539">
        <ele>145.3</ele>
        <time>2012-07-22T13:22:49Z</time>
      </trkpt>
      <trkpt lat="49.6084" lon="1.53537">
        <ele>146.26</ele>
        <time>2012-07-22T13:22:56Z</time>
      </trkpt>
      <trkpt lat="49.60832" lon="1.53521">
        <ele>145.78</ele>
        <time>2012-07-22T13:23:03Z</time>
      </trkpt>
      <trkpt lat="49.60834" lon="1.53519">
        <ele>145.78</ele>
        <time>2012-07-22T13:23:04Z</time>
      </trkpt>
      <trkpt lat="49.60836" lon="1.53517">
        <ele>145.78</ele>
        <time>2012-07-22T13:23:05Z</time>
      </trkpt>
      <trkpt lat="49.60838" lon="1.53516">
        <ele>146.26</ele>
        <time>2012-07-22T13:23:06Z</time>
      </trkpt>
      <trkpt lat="49.60841" lon="1.53515">
        <ele>145.78</ele>
        <time>2012-07-22T13:23:07Z</time>
      </trkpt>
      <trkpt lat="49.60845" lon="1.53511">
        <ele>144.82</ele>
        <time>2012-07-22T13:23:14Z</time>
      </trkpt>
      <trkpt lat="49.60859" lon="1.53506">
        <ele>144.34</ele>
        <time>2012-07-22T13:23:20Z</time>
      </trkpt>
      <trkpt lat="49.60882" lon="1.53501">
        <ele>142.41</ele>
        <time>2012-07-22T13:23:26Z</time>
      </trkpt>
      <trkpt lat="49.60886" lon="1.535">
        <ele>141.93</ele>
        <time>2012-07-22T13:23:27Z</time>
      </trkpt>
      <trkpt lat="49.6089" lon="1.53499">
        <ele>141.93</ele>
        <time>2012-07-22T13:23:28Z</time>
      </trkpt>
      <trkpt lat="49.60894" lon="1.53498">
        <ele>141.45</ele>
        <time>2012-07-22T13:23:29Z</time>
      </trkpt>
      <trkpt lat="49.60898" lon="1.53497">
        <ele>141.45</ele>
        <time>2012-07-22T13:23:30Z</time>
      </trkpt>
      <trkpt lat="49.60916" lon="1.53485">
        <ele>140.97</ele>
        <time>2012-07-22T13:23:38Z</time>
      </trkpt>
      <trkpt lat="49.60933" lon="1.53481">
        <ele>140.01</ele>
        <time>2012-07-22T13:23:43Z</time>
      </trkpt>
      <trkpt lat="49.6094" lon="1.53483">
        <ele>140.01</ele>
        <time>2012-07-22T13:23:45Z</time>
      </trkpt>
      <trkpt lat="49.60943" lon="1.53487">
        <ele>140.01</ele>
        <time>2012-07-22T13:23:46Z</time>
      </trkpt>
      <trkpt lat="49.60945" lon="1.53491">
        <ele>140.01</ele>
        <time>2012-07-22T13:23:47Z</time>
      </trkpt>
      <trkpt lat="49.60955" lon="1.53525">
        <ele>140.97</ele>
        <time>2012-07-22T13:23:56Z</time>
      </trkpt>
      <trkpt lat="49.60971" lon="1.53583">
        <ele>142.41</ele>
        <time>2012-07-22T13:24:08Z</time>
      </trkpt>
      <trkpt lat="49.60986" lon="1.53643">
        <ele>143.37</ele>
        <time>2012-07-22T13:24:20Z</time>
      </trkpt>
      <trkpt lat="49.61004" lon="1.53703">
        <ele>144.82</ele>
        <time>2012-07-22T13:24:32Z</time>
      </trkpt>
      <trkpt lat="49.61022" lon="1.53769">
        <ele>146.74</ele>
        <time>2012-07-22T13:24:44Z</time>
      </trkpt>
      <trkpt lat="49.6104" lon="1.53836">
        <ele>148.18</ele>
        <time>2012-07-22T13:24:57Z</time>
      </trkpt>
      <trkpt lat="49.61062" lon="1.53901">
        <ele>150.1</ele>
        <time>2012-07-22T13:25:10Z</time>
      </trkpt>
      <trkpt lat="49.61079" lon="1.53957">
        <ele>151.06</ele>
        <time>2012-07-22T13:25:21Z</time>
      </trkpt>
      <trkpt lat="49.61096" lon="1.54013">
        <ele>152.51</ele>
        <time>2012-07-22T13:25:33Z</time>
      </trkpt>
      <trkpt lat="49.61104" lon="1.54057">
        <ele>152.99</ele>
        <time>2012-07-22T13:25:43Z</time>
      </trkpt>
      <trkpt lat="49.61108" lon="1.54089">
        <ele>152.99</ele>
        <time>2012-07-22T13:25:51Z</time>
      </trkpt>
      <trkpt lat="49.61117" lon="1.54137">
        <ele>152.99</ele>
        <time>2012-07-22T13:26:01Z</time>
      </trkpt>
      <trkpt lat="49.6113" lon="1.54181">
        <ele>153.95</ele>
        <time>2012-07-22T13:26:10Z</time>
      </trkpt>
      <trkpt lat="49.61152" lon="1.54252">
        <ele>155.39</ele>
        <time>2012-07-22T13:26:24Z</time>
      </trkpt>
      <trkpt lat="49.61166" lon="1.54309">
        <ele>156.83</ele>
        <time>2012-07-22T13:26:37Z</time>
      </trkpt>
      <trkpt lat="49.61166" lon="1.54319">
        <ele>157.79</ele>
        <time>2012-07-22T13:26:44Z</time>
      </trkpt>
      <trkpt lat="49.61166" lon="1.54319">
        <ele>157.31</ele>
        <time>2012-07-22T13:27:02Z</time>
      </trkpt>
      <trkpt lat="49.61165" lon="1.54319">
        <ele>157.79</ele>
        <time>2012-07-22T13:27:21Z</time>
      </trkpt>
      <trkpt lat="49.61164" lon="1.54319">
        <ele>157.31</ele>
        <time>2012-07-22T13:27:36Z</time>
      </trkpt>
      <trkpt lat="49.61167" lon="1.54321">
        <ele>157.79</ele>
        <time>2012-07-22T13:27:49Z</time>
      </trkpt>
      <trkpt lat="49.61169" lon="1.54321">
        <ele>157.31</ele>
        <time>2012-07-22T13:27:56Z</time>
      </trkpt>
      <trkpt lat="49.61169" lon="1.5432">
        <ele>157.79</ele>
        <time>2012-07-22T13:27:58Z</time>
      </trkpt>
      <trkpt lat="49.6117" lon="1.54319">
        <ele>157.79</ele>
        <time>2012-07-22T13:27:59Z</time>
      </trkpt>
      <trkpt lat="49.61172" lon="1.54318">
        <ele>157.79</ele>
        <time>2012-07-22T13:28:00Z</time>
      </trkpt>
      <trkpt lat="49.61175" lon="1.54316">
        <ele>157.31</ele>
        <time>2012-07-22T13:28:01Z</time>
      </trkpt>
      <trkpt lat="49.61177" lon="1.54314">
        <ele>157.31</ele>
        <time>2012-07-22T13:28:02Z</time>
      </trkpt>
      <trkpt lat="49.61179" lon="1.54312">
        <ele>157.79</ele>
        <time>2012-07-22T13:28:03Z</time>
      </trkpt>
      <trkpt lat="49.61181" lon="1.54311">
        <ele>157.79</ele>
        <time>2012-07-22T13:28:04Z</time>
      </trkpt>
      <trkpt lat="49.61183" lon="1.54311">
        <ele>157.79</ele>
        <time>2012-07-22T13:28:05Z</time>
      </trkpt>
      <trkpt lat="49.61185" lon="1.54311">
        <ele>158.27</ele>
        <time>2012-07-22T13:28:06Z</time>
      </trkpt>
      <trkpt lat="49.61187" lon="1.5431">
        <ele>157.31</ele>
        <time>2012-07-22T13:28:07Z</time>
      </trkpt>
      <trkpt lat="49.61188" lon="1.54309">
        <ele>158.27</ele>
        <time>2012-07-22T13:28:08Z</time>
      </trkpt>
      <trkpt lat="49.6119" lon="1.54307">
        <ele>157.79</ele>
        <time>2012-07-22T13:28:09Z</time>
      </trkpt>
      <trkpt lat="49.61192" lon="1.54306">
        <ele>157.79</ele>
        <time>2012-07-22T13:28:10Z</time>
      </trkpt>
      <trkpt lat="49.61193" lon="1.54304">
        <ele>158.75</ele>
        <time>2012-07-22T13:28:11Z</time>
      </trkpt>
      <trkpt lat="49.61195" lon="1.54303">
        <ele>158.27</ele>
        <time>2012-07-22T13:28:12Z</time>
      </trkpt>
      <trkpt lat="49.61197" lon="1.54301">
        <ele>158.27</ele>
        <time>2012-07-22T13:28:13Z</time>
      </trkpt>
      <trkpt lat="49.61217" lon="1.54286">
        <ele>158.27</ele>
        <time>2012-07-22T13:28:24Z</time>
      </trkpt>
      <trkpt lat="49.61234" lon="1.54272">
        <ele>159.24</ele>
        <time>2012-07-22T13:28:35Z</time>
      </trkpt>
      <trkpt lat="49.61234" lon="1.54272">
        <ele>159.24</ele>
        <time>2012-07-22T13:28:45Z</time>
      </trkpt>
    </trkseg>
  </trk>
</gpx>